ftp/pub/palmer/observations_modified/2019/August/AR190831_BASE.txt

Download

Sample DateTime	Unit Id	WS Avg 2min	WD Avg 2min	WGS 10min	WGD 10min	Air Temp	Rel Humidity	Dew Point	Pyranometer	Quantum	Air Pressure	Snow Level	Rainfall	PW Current	Visibility	CBase 1	CBase 2	CBase 3	Vert Vis
2019/08/31  00:00:00  BASE  1.39356  152  1.96392  155  -3.0  100   -3.0  0     0     992.1    NA       0.0000   -SN      BR    3900  2990 
2019/08/31  00:01:00  BASE  1.2348   147  1.96392  155  -3.0  100   -3.0  0     0     992.1    NA       0.0000   -SN      BR    3900  4070 
2019/08/31  00:02:00  BASE  1.0878   137  1.75224  155  -3.0  100   -3.0  0     0     992.1    NA       0.0000   -SN      BR    4000  3940 
2019/08/31  00:03:00  BASE  1.12308  119  1.75224  155  -3.0  100   -3.0  0     0     992.1    NA       0.0000   -SN      BR    9999  3940 
2019/08/31  00:04:00  BASE  1.2054   100  1.75224  155  -3.0  100   -3.0  0     0     992.1    NA       0.0000   -SN      BR    9999  4000 
2019/08/31  00:05:00  BASE  0.95844  96   1.75224  155  -3.0  100   -3.0  0     0     992.1    NA       0.0000   -SN      BR    9999  2530 
2019/08/31  00:06:00  BASE  0.41748  103  1.75224  155  -3.0  100   -3.0  0     0     992.1    NA       0.0000   -SN      BR    9999  4130 
2019/08/31  00:07:00  BASE  0.10584  110  1.60524  151  -2.9  100   -2.9  0     0     992.1    NA       0.0000   -SN      BR    9999  3410 
2019/08/31  00:08:00  BASE  0.05292  129  1.57584  152  -2.9  100   -2.9  0     0     992.1    NA       0.0000   -SN      BR    9999  2720 
2019/08/31  00:09:00  BASE  0.48216  149  1.54056  126  -2.9  100   -2.9  0     0     992.0    NA       0.0000   -SN      BR    9999  2590 
2019/08/31  00:10:00  BASE  1.30536  147  1.78752  141  -2.9  100   -2.9  0     0     992.0    NA       0.0000   -SN      BR    9999  3220 
2019/08/31  00:11:00  BASE  1.72872  144  2.0286   149  -2.9  100   -2.9  0     0     992.0    NA       0.0000   -SN      9999  3510  0    
2019/08/31  00:12:00  BASE  1.72872  147  2.0286   149  -3.0  100   -3.0  0     0     992.0    NA       0.0000   -SN      9999  3840  0    
2019/08/31  00:13:00  BASE  1.48176  150  2.0286   149  -3.0  100   -3.0  0     0     992.0    NA       0.0000   -SN      9999  2820  4040 
2019/08/31  00:14:00  BASE  1.18776  134  2.0286   149  -3.0  100   -3.0  0     0     992.0    NA       0.0000   9999     2920  4100  0    
2019/08/31  00:15:00  BASE  1.27596  109  2.0286   149  -3.0  100   -3.0  0     0     992.1    NA       0.0000   9999     2760  4100  0    
2019/08/31  00:16:00  BASE  1.53468  100  2.0286   149  -3.0  100   -3.0  0     0     992.1    NA       0.0000   9999     2790  3810  0    
2019/08/31  00:17:00  BASE  1.68756  108  2.0286   114  -3.0  100   -3.0  0     0     992.1    NA       0.0000   9999     2690  3610  0    
2019/08/31  00:18:00  BASE  1.72284  103  2.1462   87   -3.0  100   -3.0  0     0     992.0    NA       0.0000   9999     3640  0     0    
2019/08/31  00:19:00  BASE  1.34652  86   2.1462   87   -3.0  100   -3.0  0     0     992.0    NA       0.0000   9999     2690  3710  0    
2019/08/31  00:20:00  BASE  0.51744  88   2.1462   87   -3.0  100   -3.0  0     0     992.0    NA       0.0000   9999     2560  0     0    
2019/08/31  00:21:00  BASE  0        112  2.1462   87   -2.9  100   -2.9  0     0     992.0    NA       0.0000   9999     2430  4230  0    
2019/08/31  00:22:00  BASE  0.45864  135  2.1462   87   -2.9  100   -2.9  0     0     991.9    NA       0.0000   9999     2230  0     0    
2019/08/31  00:23:00  BASE  1.38768  125  2.21088  111  -2.9  100   -2.9  0     0     991.8    NA       0.0000   9999     2990  4630  0    
2019/08/31  00:24:00  BASE  1.87572  109  2.21088  114  -3.0  100   -3.0  0     0     991.8    NA       0.0000   9999     2790  4690  0    
2019/08/31  00:25:00  BASE  1.74636  109  2.21088  114  -3.0  100   -3.0  0     0     991.8    NA       0.0000   9999     2760  4690  0    
2019/08/31  00:26:00  BASE  1.90512  119  3.0576   132  -3.0  100   -3.0  0     0     991.8    NA       0.0000   9999     2790  4590  0    
2019/08/31  00:27:00  BASE  2.59896  130  3.65736  138  -3.0  100   -3.0  0     0     991.8    NA       0.0000   9999     2620  4560  0    
2019/08/31  00:28:00  BASE  3.08112  125  3.93372  136  -3.0  100   -3.0  0     0     991.8    NA       0.0000   9999     4590  0     0    
2019/08/31  00:29:00  BASE  3.18696  120  3.93372  136  -3.0  100   -3.0  0     0     991.8    NA       0.0000   9999     4490  0     0    
2019/08/31  00:30:00  BASE  3.09288  122  3.93372  136  -2.9  100   -2.9  0     0     991.8    NA       0.0000   9999     4400  0     0    
2019/08/31  00:31:00  BASE  2.65188  120  3.93372  136  -2.9  100   -2.9  0     0     991.8    NA       0.0000   9999     4170  0     0    
2019/08/31  00:32:00  BASE  2.31672  122  3.93372  136  -2.9  100   -2.9  0     0     991.8    NA       0.0000   9999     4230  0     0    
2019/08/31  00:33:00  BASE  2.04036  128  3.93372  136  -2.9  100   -2.9  0     0     991.8    NA       0.0000   9999     4330  0     0    
2019/08/31  00:34:00  BASE  1.68168  121  3.93372  136  -2.9  100   -2.9  0     0     992.0    NA       0.0000   9999     2820  4560  0    
2019/08/31  00:35:00  BASE  1.71696  108  3.93372  136  -2.9  100   -2.9  0     0     992.0    NA       0.0000   9999     2920  4300  0    
2019/08/31  00:36:00  BASE  1.4406   99   3.93372  136  -2.9  100   -2.9  0     0     992.0    NA       0.0000   9999     4230  0     0    
2019/08/31  00:37:00  BASE  0.68208  103  3.93372  136  -3.0  100   -3.0  0     0     992.0    NA       0.0000   9999     4330  0     0    
2019/08/31  00:38:00  BASE  0.15876  197  3.32808  122  -3.0  100   -3.0  0     0     992.0    NA       0.0000   9999     1570  0     0    
2019/08/31  00:39:00  BASE  0        282  3.26928  124  -3.0  100   -3.0  0     0     992.0    NA       0.0000   9999     3220  0     0    
2019/08/31  00:40:00  BASE  0.27048  327  2.81064  111  -3.1  100   -3.1  0     0     992.0    NA       0.0000   9999     3250  0     0    
2019/08/31  00:41:00  BASE  0.77028  338  2.72244  123  -3.1  100   -3.1  0     0     992.0    NA       0.0000   9999     3220  0     0    
2019/08/31  00:42:00  BASE  0.95256  337  2.32848  108  -3.1  100   -3.1  0     0     992.0    NA       0.0000   9999     2950  0     0    
2019/08/31  00:43:00  BASE  0.56448  334  2.32848  108  -3.1  100   -3.1  0     0     992.0    NA       0.0000   9999     1280  4360  0    
2019/08/31  00:44:00  BASE  0.1176   334  2.32848  108  -3.1  100   -3.1  0     0     992.0    NA       0.0000   9999     3310  0     0    
2019/08/31  00:45:00  BASE  0        25   1.69344  103  -3.1  100   -3.1  0     0     991.9    NA       0.0000   UP       9999  4430  0    
2019/08/31  00:46:00  BASE  0.16464  162  1.1466   331  -3.1  100   -3.1  0     0     991.8    NA       0.0000   UP       9999  2430  0    
2019/08/31  00:47:00  BASE  0.22344  221  1.1466   331  -3.1  100   -3.1  0     0     991.8    NA       0.0000   UP       9999  2850  4230 
2019/08/31  00:48:00  BASE  0.0588   254  1.1466   331  -3.0  100   -3.0  0     0     991.8    NA       0.0000   UP       9999  2950  4300 
2019/08/31  00:49:00  BASE  0        313  1.1466   331  -3.0  100   -3.0  0     0     991.8    NA       0.0000   UP       9999  2990  0    
2019/08/31  00:50:00  BASE  0        357  1.1466   331  -3.0  100   -3.0  0     0     991.8    NA       0.0000   UP       9999  3180  0    
2019/08/31  00:51:00  BASE  0        310  1.1466   331  -3.0  100   -3.0  0     0     991.8    NA       0.0000   UP       9999  4400  0    
2019/08/31  00:52:00  BASE  0        264  1.029    205  -3.0  100   -3.0  0     0     991.8    NA       0.0000   UP       9999  4360  0    
2019/08/31  00:53:00  BASE  0        250  1.029    205  -3.0  100   -3.0  0     0     991.7    NA       0.0000   UP       9999  2660  0    
2019/08/31  00:54:00  BASE  0        233  1.029    205  -3.0  100   -3.0  0     0     991.7    NA       0.0000   UP       9999  4330  0    
2019/08/31  00:55:00  BASE  0.19992  214  1.029    205  -3.0  100   -3.0  0     0     991.7    NA       0.0000   UP       9999  4330  0    
2019/08/31  00:56:00  BASE  0.588    177  0.87612  175  -3.0  100   -3.0  0     0     991.7    NA       0.0000   UP       9999  4360  0    
2019/08/31  00:57:00  BASE  0.40572  167  0.87612  175  -3.1  100   -3.1  0     0     991.7    NA       0.0000   UP       9999  2070  0    
2019/08/31  00:58:00  BASE  0.18228  174  0.87612  175  -3.1  100   -3.1  0     0     991.7    NA       0.0000   UP       9999  4400  0    
2019/08/31  00:59:00  BASE  0.36456  177  0.93492  173  -3.1  100   -3.1  0     0     991.7    NA       0.0000   UP       9999  4430  0    
2019/08/31  01:00:00  BASE  0.19992  176  0.93492  173  -3.1  100   -3.1  0     0     991.7    NA       0.0000   UP       9999  4430  0    
2019/08/31  01:01:00  BASE  0        167  0.93492  173  -3.1  100   -3.1  0     0     991.7    NA       0.0000   UP       9999  4360  0    
2019/08/31  01:02:00  BASE  0        151  0.93492  173  -3.1  100   -3.1  0     0     991.7    NA       0.0000   9999     4460  0     0    
2019/08/31  01:03:00  BASE  0        139  0.93492  173  -3.1  100   -3.1  0     0     991.7    NA       0.0000   9999     4460  0     0    
2019/08/31  01:04:00  BASE  0.05292  236  0.93492  173  -3.1  100   -3.1  0     0     991.7    NA       0.0000   UP       9999  4430  0    
2019/08/31  01:05:00  BASE  0.13524  286  0.93492  173  -3.1  100   -3.1  0     0     991.7    NA       0.0000   UP       9999  4300  0    
2019/08/31  01:06:00  BASE  0.13524  255  0.93492  173  -3.1  100   -3.1  0     0     991.7    NA       0.0000   UP       9999  4360  0    
2019/08/31  01:07:00  BASE  0.29988  231  0.93492  173  -3.2  100   -3.2  0     0     991.7    NA       0.0000   UP       9999  4460  0    
2019/08/31  01:08:00  BASE  0.61152  232  0.93492  173  -3.2  100   -3.2  0     0     991.7    NA       0.0000   UP       9999  4430  0    
2019/08/31  01:09:00  BASE  0.72324  241  0.81732  227  -3.2  100   -3.2  0     0     991.7    NA       0.0000   UP       9000  4530  0    
2019/08/31  01:10:00  BASE  0.6762   243  0.81732  227  -3.2  100   -3.2  0     0     991.7    NA       0.0000   UP       8000  4230  0    
2019/08/31  01:11:00  BASE  0.55272  234  0.81732  227  -3.1  100   -3.1  0     0     991.7    NA       0.0000   UP       9999  4430  0    
2019/08/31  01:12:00  BASE  0.51744  225  0.81732  227  -3.1  100   -3.1  0     0     991.7    NA       0.0000   UP       9999  0     0    
2019/08/31  01:13:00  BASE  0.63504  234  0.9996   255  -3.1  100   -3.1  0     0     991.7    NA       0.0000   UP       9999  1150  0    
2019/08/31  01:14:00  BASE  0.93492  244  1.24068  249  -3.1  100   -3.1  0     0     991.7    NA       0.0000   UP       9999  4040  0    
2019/08/31  01:15:00  BASE  0.99372  241  1.24068  249  -3.1  100   -3.1  0     0     991.7    NA       0.0000   UP       9999  0     0    
2019/08/31  01:16:00  BASE  0.57624  247  1.24068  249  -3.0  100   -3.0  0     0     991.7    NA       0.0000   UP       9999  0     0    
2019/08/31  01:17:00  BASE  0.35868  256  1.24068  249  -3.0  100   -3.0  0     0     991.7    NA       0.0000   UP       9999  0     0    
2019/08/31  01:18:00  BASE  0.588    253  1.24068  249  -3.0  100   -3.0  0     0     991.7    NA       0.0000   UP       9999  0     0    
2019/08/31  01:19:00  BASE  0.78204  249  1.24068  249  -2.9  100   -2.9  0     0     991.7    NA       0.0000   UP       9999  0     0    
2019/08/31  01:20:00  BASE  0.8526   243  1.24068  249  -2.9  100   -2.9  0     0     991.6    NA       0.0000   UP       9999  950   0    
2019/08/31  01:21:00  BASE  0.9114   236  1.24068  249  -2.9  100   -2.9  0     0     991.6    NA       0.0000   UP       9000  0     0    
2019/08/31  01:22:00  BASE  0.8232   230  1.24068  249  -2.9  100   -2.9  0     0     991.6    NA       0.0000   UP       9999  1510  0    
2019/08/31  01:23:00  BASE  0.77616  233  1.24068  249  -2.9  100   -2.9  0     0     991.6    NA       0.0000   UP       9999  0     0    
2019/08/31  01:24:00  BASE  0.77616  241  1.029    235  -2.9  100   -2.9  0     0     991.6    NA       0.0000   UP       9999  1440  0    
2019/08/31  01:25:00  BASE  0.88788  241  1.29948  235  -2.9  100   -2.9  0     0     991.6    NA       0.0000   UP       9999  0     0    
2019/08/31  01:26:00  BASE  1.1172   225  1.35828  212  -3.0  100   -3.0  0     0     991.6    NA       0.0000   UP       9999  1640  0    
2019/08/31  01:27:00  BASE  1.3524   203  1.72284  191  -2.9  100   -2.9  0     0     991.6    NA       0.0000   UP       9999  1150  0    
2019/08/31  01:28:00  BASE  1.56408  182  1.72284  171  -3.0  100   -3.0  0     0     991.6    NA       0.0000   UP       9999  1310  0    
2019/08/31  01:29:00  BASE  1.56408  158  1.72284  171  -3.0  100   -3.0  0     0     991.6    NA       0.0000   UP       9999  750   0    
2019/08/31  01:30:00  BASE  1.5876   138  1.84632  110  -3.1  100   -3.1  0     0     991.6    NA       0.0000   UP       9999  690   2330 
2019/08/31  01:31:00  BASE  1.80516  121  2.24028  108  -3.1  100   -3.1  0     0     991.6    NA       0.0000   UP       9999  790   2360 
2019/08/31  01:32:00  BASE  2.13444  110  2.45196  112  -3.2  100   -3.2  0     0     991.6    NA       0.0000   UP       9999  390   0    
2019/08/31  01:33:00  BASE  2.34612  108  2.48136  110  -3.2  100   -3.2  0     0     991.6    NA       0.0000   UP       7000  360   0    
2019/08/31  01:34:00  BASE  2.33436  111  2.56956  108  -3.2  100   -3.2  0     0     991.6    NA       0.0000   UP       BR    4800  330  
2019/08/31  01:35:00  BASE  2.34024  114  2.56956  108  -3.1  100   -3.1  0     0     991.6    NA       0.0000   -SN      BR    4300  330  
2019/08/31  01:36:00  BASE  2.39904  121  2.63424  121  -3.1  100   -3.1  0     0     991.6    NA       0.0000   -SN      BR    6000  330  
2019/08/31  01:37:00  BASE  2.37552  128  2.75184  130  -3.0  100   -3.0  0     0     991.6    NA       0.0000   -SN      BR    4700  330  
2019/08/31  01:38:00  BASE  2.205    128  2.75184  130  -2.9  100   -2.9  0     0     991.6    NA       0.0000   -SN      BR    2800  260  
2019/08/31  01:39:00  BASE  2.04624  122  2.75184  130  -2.9  100   -2.9  0     0     991.6    NA       0.0000   -SN      BR    2200  0    
2019/08/31  01:40:00  BASE  2.08152  114  2.75184  130  -2.8  100   -2.8  0     0     991.6    NA       0.0000   -SN      BR    2000  200  
2019/08/31  01:41:00  BASE  2.13444  109  2.75184  130  -2.8  100   -2.8  0     0     991.6    NA       0.0000   -SN      BR    2900  260  
2019/08/31  01:42:00  BASE  2.12268  108  2.75184  130  -2.8  100   -2.8  0     0     991.6    NA       0.0000   -SN      BR    2200  0    
2019/08/31  01:43:00  BASE  2.06976  108  2.75184  130  -2.8  100   -2.8  0     0     991.6    NA       0.0000   -SN      BR    2100  0    
2019/08/31  01:44:00  BASE  2.058    105  2.75184  130  -2.8  100   -2.8  0     0     991.6    NA       0.0000   -SN      BR    1600  0    
2019/08/31  01:45:00  BASE  2.34024  102  2.75184  96   -2.8  100   -2.8  0     0     991.6    NA       0.0000   -SN      BR    1700  0    
2019/08/31  01:46:00  BASE  2.55192  98   2.75184  96   -2.8  100   -2.8  0     0     991.6    NA       0.0000   -SN      BR    1800  0    
2019/08/31  01:47:00  BASE  2.28144  104  2.75184  96   -2.8  100   -2.8  0     0     991.6    NA       0.0000   -SN      BR    1500  0    
2019/08/31  01:48:00  BASE  1.90512  124  2.75184  96   -2.8  100   -2.8  0     0     991.6    NA       0.0000   -SN      BR    1700  0    
2019/08/31  01:49:00  BASE  1.54056  155  2.75184  96   -2.8  100   -2.8  0     0     991.6    NA       0.0000   -SN      BR    1500  0    
2019/08/31  01:50:00  BASE  1.25832  180  2.75184  96   -2.8  100   -2.8  0     0     991.6    NA       0.0000   -SN      BR    1400  0    
2019/08/31  01:51:00  BASE  1.10544  182  2.75184  96   -2.9  100   -2.9  0     0     991.6    NA       0.0000   -SN      BR    1200  0    
2019/08/31  01:52:00  BASE  1.13484  151  2.75184  96   -2.9  100   -2.9  0     0     991.6    NA       0.0000   -SN      BR    1100  0    
2019/08/31  01:53:00  BASE  1.46412  122  2.75184  96   -2.9  100   -2.9  0     0     991.6    NA       0.0000   -SN      BR    1500  0    
2019/08/31  01:54:00  BASE  2.06388  122  2.75184  96   -2.9  100   -2.9  0     0     991.6    NA       0.0000   -SN      BR    1700  0    
2019/08/31  01:55:00  BASE  2.29908  139  2.69304  96   -2.9  100   -2.9  0     0     991.6    NA       0.0000   -SN      BR    1400  0    
2019/08/31  01:56:00  BASE  2.14032  164  2.63424  126  -2.9  100   -2.9  0     0     991.5    NA       0.0000   -SN      BR    1100  0    
2019/08/31  01:57:00  BASE  2.39316  187  2.75184  202  -2.9  100   -2.9  0     0     991.5    NA       0.0000   -SN      BR    1200  0    
2019/08/31  01:58:00  BASE  2.86944  200  3.26928  197  -2.8  100   -2.8  0     0     991.5    NA       0.0000   -SN      BR    1700  0    
2019/08/31  01:59:00  BASE  2.7342   200  3.26928  197  -2.9  100   -2.9  0     0     991.5    NA       0.0000   -SN      BR    3400  260  
2019/08/31  02:00:00  BASE  1.96392  198  3.26928  197  -2.9  100   -2.9  0     0     991.5    NA       0.0000   -SN      BR    2900  300  
2019/08/31  02:01:00  BASE  1.35828  200  3.26928  197  -2.9  100   -2.9  0     0     991.6    NA       0.0000   -SN      BR    3000  260  
2019/08/31  02:02:00  BASE  1.06428  204  3.26928  197  -2.9  100   -2.9  0     0     991.5    NA       0.0000   -SN      BR    3100  260  
2019/08/31  02:03:00  BASE  1.28772  207  3.26928  197  -2.9  100   -2.9  0     0     991.5    NA       0.0000   -SN      BR    2600  260  
2019/08/31  02:04:00  BASE  1.8228   202  3.26928  197  -2.9  100   -2.9  0     0     991.5    NA       0.0000   -SN      BR    2600  0    
2019/08/31  02:05:00  BASE  1.7346   205  3.26928  197  -2.9  100   -2.9  0     0     991.5    NA       0.0000   -SN      BR    2200  0    
2019/08/31  02:06:00  BASE  1.41708  209  3.26928  197  -2.9  100   -2.9  0     0     991.5    NA       0.0000   -SN      BR    2100  0    
2019/08/31  02:07:00  BASE  1.52292  201  3.26928  197  -2.9  100   -2.9  0     0     991.5    NA       0.0000   -SN      BR    3000  330  
2019/08/31  02:08:00  BASE  1.75224  189  2.75184  203  -2.9  100   -2.9  0     0     991.5    NA       0.0000   -SN      BR    3500  260  
2019/08/31  02:09:00  BASE  2.15796  178  2.56956  183  -2.9  100   -2.9  0     0     991.5    NA       0.0000   -SN      BR    2800  0    
2019/08/31  02:10:00  BASE  2.44608  179  2.56956  181  -2.9  100   -2.9  0     0     991.4    NA       0.0000   -SN      BR    2000  0    
2019/08/31  02:11:00  BASE  2.24616  184  2.56956  181  -2.9  100   -2.9  0     0     991.5    NA       0.0000   -SN      BR    2300  3280 
2019/08/31  02:12:00  BASE  1.911    187  2.56956  181  -2.9  100   -2.9  0     0     991.5    NA       0.0000   -SN      BR    2700  0    
2019/08/31  02:13:00  BASE  1.83456  185  2.56956  181  -2.9  100   -2.9  0     0     991.5    NA       0.0000   -SN      BR    2700  0    
2019/08/31  02:14:01  BASE  2.11092  173  2.56956  181  -2.9  100   -2.9  0     0     991.5    NA       0.0000   -SN      BR    2900  330  
2019/08/31  02:15:00  BASE  2.37552  165  2.56956  181  -2.9  100   -2.9  0     0     991.4    NA       0.0000   -SN      BR    2600  330  
2019/08/31  02:16:00  BASE  2.37552  167  2.56956  181  -3.0  100   -3.0  0     0     991.4    NA       0.0000   -SN      BR    2800  300  
2019/08/31  02:17:00  BASE  2.54604  171  3.02232  171  -3.0  100   -3.0  0     0     991.4    NA       0.0000   -SN      BR    3200  300  
2019/08/31  02:18:01  BASE  2.72244  173  3.02232  171  -3.0  100   -3.0  0     0     991.4    NA       0.0000   -SN      BR    2800  850  
2019/08/31  02:19:00  BASE  2.28732  169  3.02232  171  -3.0  100   -3.0  0     0     991.4    NA       0.0000   -SN      BR    2700  300  
2019/08/31  02:20:00  BASE  1.7052   168  3.02232  171  -3.0  100   -3.0  0     0     991.4    NA       0.0000   -SN      BR    2900  0    
2019/08/31  02:21:00  BASE  1.84632  173  3.02232  171  -3.0  100   -3.0  0     0     991.4    NA       0.0000   -SN      BR    3600  390  
2019/08/31  02:22:01  BASE  2.4696   180  3.02232  171  -3.0  100   -3.0  0     0     991.4    NA       0.0000   -SN      BR    2900  2820 
2019/08/31  02:23:00  BASE  2.89296  183  3.41628  181  -3.1  100   -3.1  0     0     991.4    NA       0.0000   -SN      BR    2300  300  
2019/08/31  02:24:00  BASE  3.2634   181  3.72204  178  -3.0  100   -3.0  0     0     991.3    NA       0.0000   -SN      BR    2500  0    
2019/08/31  02:25:00  BASE  3.5868   178  3.93372  175  -3.0  100   -3.0  0     0     991.3    NA       0.0000   -SN      BR    2800  300  
2019/08/31  02:26:00  BASE  3.8808   175  4.263    171  -3.0  100   -3.0  0     0     991.3    NA       0.0000   -SN      BR    2600  300  
2019/08/31  02:27:00  BASE  4.06896  172  4.263    171  -3.0  100   -3.0  0     0     991.3    NA       0.0000   -SN      BR    2400  300  
2019/08/31  02:28:01  BASE  3.90432  170  4.263    171  -3.0  100   -3.0  0     0     991.3    NA       0.0000   -SN      BR    2500  2030 
2019/08/31  02:29:01  BASE  3.71616  166  4.263    171  -3.0  100   -3.0  0     0     991.3    NA       0.0000   -SN      BR    2200  2760 
2019/08/31  02:30:00  BASE  3.54564  166  4.263    171  -3.0  100   -3.0  0     0     991.3    NA       0.0000   -SN      BR    2000  3050 
2019/08/31  02:31:00  BASE  3.2928   169  4.263    171  -3.0  100   -3.0  0     0     991.3    NA       0.0000   -SN      BR    3300  2000 
2019/08/31  02:32:00  BASE  3.2046   171  4.263    171  -3.0  100   -3.0  0     0     991.3    NA       0.0000   -SN      BR    4000  0    
2019/08/31  02:33:01  BASE  2.97528  175  4.263    171  -3.0  100   -3.0  0     0     991.3    NA       0.0000   -SN      BR    4600  2720 
2019/08/31  02:34:00  BASE  2.37552  172  4.263    171  -3.0  100   -3.0  0     0     991.4    NA       0.0000   -SN      BR    4000  2950 
2019/08/31  02:35:00  BASE  1.96392  162  4.263    171  -3.0  100   -3.0  0     0     991.4    NA       0.0000   -SN      BR    3600  2890 
2019/08/31  02:36:00  BASE  1.57584  157  4.263    171  -3.0  100   -3.0  0     0     991.4    NA       0.0000   -SN      BR    2600  260  
2019/08/31  02:37:00  BASE  1.25832  142  4.116    173  -3.0  100   -3.0  0     0     991.3    NA       0.0000   -SN      BR    1600  260  
2019/08/31  02:38:00  BASE  1.50528  132  3.96312  166  -3.0  100   -3.0  0     0     991.3    NA       0.0000   -SN      BR    1700  2530 
2019/08/31  02:39:01  BASE  1.84044  151  3.81024  166  -3.0  100   -3.0  0     0     991.3    NA       0.0000   -SN      BR    3200  2070 
2019/08/31  02:40:00  BASE  1.88748  160  3.41628  170  -3.0  100   -3.0  0     0     991.3    NA       0.0000   -SN      BR    4000  2790 
2019/08/31  02:41:00  BASE  2.18736  154  3.41628  170  -3.0  100   -3.0  0     0     991.2    NA       0.0000   -SN      BR    7000  2990 
2019/08/31  02:42:00  BASE  2.61072  156  3.1164   176  -3.0  100   -3.0  0     0     991.2    NA       0.0000   -SN      BR    9999  2000 
2019/08/31  02:43:00  BASE  2.42256  159  3.087    164  -3.0  100   -3.0  0     0     991.2    NA       0.0000   -SN      BR    6000  1740 
2019/08/31  02:44:00  BASE  1.78752  161  3.087    164  -3.0  100   -3.0  0     0     991.2    NA       0.0000   -SN      BR    4300  2990 
2019/08/31  02:45:00  BASE  1.42296  164  3.087    164  -3.0  100   -3.0  0     0     991.2    NA       0.0000   -SN      BR    3100  2920 
2019/08/31  02:46:01  BASE  1.42296  163  3.087    164  -3.0  100   -3.0  0     0     991.2    NA       0.0000   -SN      BR    3000  2890 
2019/08/31  02:47:00  BASE  1.8816   161  3.087    164  -3.0  100   -3.0  0     0     991.2    NA       0.0000   -SN      BR    5000  2490 
2019/08/31  02:48:00  BASE  2.5284   164  3.087    164  -3.0  100   -3.0  0     0     991.2    NA       0.0000   -SN      BR    4400  2300 
2019/08/31  02:49:00  BASE  2.8224   170  3.29868  176  -3.0  100   -3.0  0     0     991.1    NA       0.0000   -SN      BR    9000  1510 
2019/08/31  02:50:00  BASE  3.3222   176  4.1454   175  -3.0  100   -3.0  0     0     991.0    NA       0.0000   -SN      BR    6000  1020 
2019/08/31  02:51:00  BASE  3.90432  176  4.2336   175  -3.0  100   -3.0  0     0     991.0    NA       0.0000   -SN      BR    9000  820  
2019/08/31  02:52:00  BASE  4.19832  175  4.59816  176  -3.0  100   -3.0  0     0     991.0    NA       0.0000   -SN      BR    6000  1480 
2019/08/31  02:53:00  BASE  4.05132  174  4.59816  176  -3.0  100   -3.0  0     0     991.0    NA       0.0000   -SN      BR    4100  2950 
2019/08/31  02:54:00  BASE  3.53976  170  4.59816  176  -3.0  100   -3.0  0     0     991.0    NA       0.0000   -SN      BR    3500  1900 
2019/08/31  02:55:00  BASE  3.12816  167  4.59816  176  -3.0  100   -3.0  0     0     991.0    NA       0.0000   -SN      BR    4300  0    
2019/08/31  02:56:00  BASE  2.98116  170  4.59816  176  -3.0  100   -3.0  0     0     991.0    NA       0.0000   -SN      BR    3100  1710 
2019/08/31  02:57:00  BASE  2.99292  173  4.59816  176  -3.0  100   -3.0  0     0     991.0    NA       0.0000   -SN      BR    3400  1080 
2019/08/31  02:58:00  BASE  3.13404  174  4.59816  176  -3.0  100   -3.0  0     0     991.0    NA       0.0000   -SN      BR    4200  2490 
2019/08/31  02:59:00  BASE  3.50448  170  4.59816  176  -3.0  100   -3.0  0     0     991.0    NA       0.0000   -SN      BR    4200  1900 
2019/08/31  03:00:00  BASE  3.63972  166  4.59816  176  -3.0  100   -3.0  0     0     991.0    NA       0.0000   -SN      BR    6000  2490 
2019/08/31  03:01:00  BASE  3.53388  166  4.59816  176  -3.0  100   -3.0  0     0     991.0    NA       0.0000   -SN      BR    5000  1800 
2019/08/31  03:02:00  BASE  3.65148  167  4.2042   173  -3.0  100   -3.0  0     0     990.9    NA       0.0000   -SN      BR    3900  1770 
2019/08/31  03:03:00  BASE  3.84552  168  4.38648  169  -3.0  100   -3.0  0     0     990.9    NA       0.0000   -SN      BR    4000  1610 
2019/08/31  03:04:00  BASE  4.06308  168  4.41588  168  -3.0  100   -3.0  0     0     990.9    NA       0.0000   -SN      BR    3300  1210 
2019/08/31  03:05:00  BASE  3.98076  168  4.41588  168  -3.0  100   -3.0  0     0     990.9    NA       0.0000   -SN      BR    3200  0    
2019/08/31  03:06:00  BASE  3.45156  164  4.41588  168  -3.0  100   -3.0  0     0     991.0    NA       0.0000   -SN      BR    3200  2920 
2019/08/31  03:07:00  BASE  2.75772  163  4.41588  168  -3.0  100   -3.0  0     0     991.0    NA       0.0000   -SN      BR    3600  360  
2019/08/31  03:08:00  BASE  2.25792  165  4.41588  168  -3.0  100   -3.0  0     0     991.0    NA       0.0000   -SN      BR    3400  1610 
2019/08/31  03:09:00  BASE  2.09328  171  4.41588  168  -3.0  100   -3.0  0     0     990.9    NA       0.0000   -SN      BR    3500  1540 
2019/08/31  03:10:00  BASE  2.0286   178  4.41588  168  -3.0  100   -3.0  0     0     990.9    NA       0.0000   -SN      BR    3500  390  
2019/08/31  03:11:00  BASE  1.9404   178  4.41588  168  -3.0  100   -3.0  0     0     990.9    NA       0.0000   -SN      BR    3000  330  
2019/08/31  03:12:00  BASE  1.53468  176  4.41588  168  -3.0  100   -3.0  0     0     990.9    NA       0.0000   -SN      BR    3100  300  
2019/08/31  03:13:00  BASE  0.87612  167  4.41588  168  -3.0  100   -3.0  0     0     990.9    NA       0.0000   -SN      BR    3100  300  
2019/08/31  03:14:00  BASE  0.89376  157  4.05132  164  -3.0  100   -3.0  0     0     990.9    NA       0.0000   -SN      BR    2700  260  
2019/08/31  03:15:00  BASE  1.71108  156  3.59856  168  -3.0  100   -3.0  0     0     990.8    NA       0.0000   -SN      BR    2700  360  
2019/08/31  03:16:00  BASE  1.8522   164  3.02232  162  -3.0  100   -3.0  0     0     990.8    NA       0.0000   -SN      BR    2700  330  
2019/08/31  03:17:00  BASE  1.9404   158  2.69304  134  -3.0  100   -3.0  0     0     990.8    NA       0.0000   -SN      BR    2700  260  
2019/08/31  03:18:00  BASE  2.7636   145  3.59856  141  -3.0  100   -3.0  0     0     990.8    NA       0.0000   -SN      BR    2700  820  
2019/08/31  03:19:00  BASE  3.53976  145  4.1454   151  -3.0  100   -3.0  0     0     990.7    NA       0.0000   -SN      BR    2200  300  
2019/08/31  03:20:00  BASE  4.00428  150  4.2042   154  -3.0  100   -3.0  0     0     990.7    NA       0.0000   -SN      BR    1900  330  
2019/08/31  03:21:00  BASE  4.03368  153  4.2042   154  -3.0  100   -3.0  0     0     990.7    NA       0.0000   -SN      BR    2500  300  
2019/08/31  03:22:00  BASE  3.86904  145  4.2042   154  -3.0  100   -3.0  0     0     990.7    NA       0.0000   -SN      BR    2400  0    
2019/08/31  03:23:00  BASE  3.7926   131  4.2042   154  -3.0  100   -3.0  0     0     990.8    NA       0.0000   -SN      BR    1900  0    
2019/08/31  03:24:00  BASE  3.62796  124  4.2042   154  -3.0  100   -3.0  0     0     990.8    NA       0.0000   -SN      BR    2100  260  
2019/08/31  03:25:00  BASE  3.7632   130  4.41588  137  -3.0  100   -3.0  0     0     990.7    NA       0.0000   -SN      BR    1600  0    
2019/08/31  03:26:00  BASE  4.06896  138  4.41588  137  -3.0  100   -3.0  0     0     990.7    NA       0.0000   -SN      BR    1600  0    
2019/08/31  03:27:00  BASE  4.0572   140  4.41588  141  -3.0  100   -3.0  0     0     990.6    NA       0.0000   -SN      BR    1500  0    
2019/08/31  03:28:00  BASE  4.36296  143  4.93332  145  -3.0  100   -3.0  0     0     990.5    NA       0.0000   -SN      BR    1400  0    
2019/08/31  03:29:00  BASE  4.704    148  5.145    147  -3.0  100   -3.0  0     0     990.5    NA       0.0000   -SN      BR    1300  0    
2019/08/31  03:30:00  BASE  4.92744  150  5.53308  157  -3.0  100   -3.0  0     0     990.5    NA       0.0000   -SN      BR    1400  0    
2019/08/31  03:31:00  BASE  5.20968  156  5.74476  158  -3.0  100   -3.0  0     0     990.4    NA       0.0000   -SN      BR    1800  300  
2019/08/31  03:32:00  BASE  4.998    165  5.74476  158  -3.0  100   -3.0  0     0     990.5    NA       0.0000   -SN      BR    2700  0    
2019/08/31  03:33:00  BASE  4.98624  166  6.13872  163  -3.0  100   -3.0  0     0     990.5    NA       0.0000   -SN      BR    4300  2660 
2019/08/31  03:34:00  BASE  4.96272  166  6.13872  163  -2.9  100   -2.9  0     0     990.5    NA       0.0000   -SN      BR    5000  1840 
2019/08/31  03:35:00  BASE  5.30964  158  6.80316  156  -2.9  100   -2.9  0     0     990.4    NA       0.0000   -SN      BR    4800  1150 
2019/08/31  03:36:00  BASE  5.586    159  6.80316  156  -2.9  100   -2.9  0     0     990.4    NA       0.0000   -SN      BR    3600  430  
2019/08/31  03:37:00  BASE  5.586    166  6.80316  156  -2.9  100   -2.9  0     0     990.4    NA       0.0000   -SN      BR    3100  2590 
2019/08/31  03:38:00  BASE  5.74476  161  6.80316  156  -3.0  100   -3.0  0     0     990.5    NA       0.0000   -SN      BR    3400  330  
2019/08/31  03:39:00  BASE  5.15676  156  6.80316  156  -3.0  100   -3.0  0     0     990.5    NA       0.0000   -SN      BR    3300  260  
2019/08/31  03:40:00  BASE  4.86276  151  6.80316  156  -3.0  100   -3.0  0     0     990.5    NA       0.0000   -SN      BR    2600  230  
2019/08/31  03:41:00  BASE  4.82748  151  6.80316  156  -3.0  100   -3.0  0     0     990.5    NA       0.0000   -SN      BR    1900  230  
2019/08/31  03:42:00  BASE  4.6158   152  6.80316  156  -3.0  100   -3.0  0     0     990.5    NA       0.0000   -SN      BR    1600  2760 
2019/08/31  03:43:00  BASE  4.82748  157  6.80316  156  -3.0  100   -3.0  0     0     990.4    NA       0.0000   -SN      BR    3400  0    
2019/08/31  03:44:00  BASE  5.54484  156  6.80316  156  -3.0  100   -3.0  0     0     990.4    NA       0.0000   -SN      BR    3700  490  
2019/08/31  03:45:00  BASE  5.6154   154  6.47388  163  -3.0  100   -3.0  0     0     990.4    NA       0.0000   -SN      BR    2900  2720 
2019/08/31  03:46:00  BASE  4.851    158  6.47388  163  -3.0  100   -3.0  0     0     990.5    NA       0.0000   -SN      BR    3000  2920 
2019/08/31  03:47:00  BASE  3.84552  159  6.321    163  -3.0  100   -3.0  0     0     990.5    NA       0.0000   -SN      BR    3200  0    
2019/08/31  03:48:00  BASE  4.36296  155  6.321    163  -3.0  100   -3.0  0     0     990.4    NA       0.0000   -SN      BR    2700  1540 
2019/08/31  03:49:00  BASE  6.05052  153  7.16772  155  -3.0  100   -3.0  0     0     990.3    NA       0.0000   -SN      BR    2900  330  
2019/08/31  03:50:00  BASE  7.10892  159  8.07912  170  -3.0  100   -3.0  0     0     990.0    NA       0.0000   -SN      BR    2400  330  
2019/08/31  03:51:00  BASE  6.96192  167  8.07912  170  -3.0  100   -3.0  0     0     990.1    NA       0.0000   -SN      BR    3800  2560 
2019/08/31  03:52:00  BASE  6.86784  164  8.07912  170  -3.0  100   -3.0  0     0     990.1    NA       0.0000   -SN      BR    6000  1120 
2019/08/31  03:53:00  BASE  6.99132  157  8.07912  170  -3.0  100   -3.0  0     0     990.2    NA       0.0000   -SN      BR    3500  1870 
2019/08/31  03:54:00  BASE  6.30336  154  8.07912  170  -3.0  100   -3.0  0     0     990.3    NA       0.0000   -SN      BR    3000  1900 
2019/08/31  03:55:00  BASE  6.3798   154  8.07912  170  -3.0  100   -3.0  0     0     990.2    NA       0.0000   -SN      BR    2300  2360 
2019/08/31  03:56:00  BASE  6.84432  155  8.07912  170  -3.0  100   -3.0  0     0     990.1    NA       0.0000   -SN      BR    2700  1770 
2019/08/31  03:57:00  BASE  6.32688  161  8.07912  170  -3.0  100   -3.0  0     0     990.1    NA       0.0000   -SN      BR    3500  2400 
2019/08/31  03:58:00  BASE  5.69184  165  8.07912  170  -3.0  100   -3.0  0     0     990.2    NA       0.0000   -SN      BR    3900  0    
2019/08/31  03:59:00  BASE  5.42136  159  8.07912  170  -3.0  100   -3.0  0     0     990.3    NA       0.0000   -SN      BR    5000  2170 
2019/08/31  04:00:00  BASE  5.0568   155  7.98504  171  -3.0  100   -3.0  0     0     990.4    NA       0.0000   -SN      BR    2500  2200 
2019/08/31  04:02:02  BASE  4.80984  153  7.98504  171  -3.0  100   -3.0  0     0     990.3    NA       0.0000   -SN      BR    2200  0    
2019/08/31  04:03:02  BASE  4.75692  154  7.98504  171  -3.0  100   -3.0  0     0     990.3    NA       0.0000   -SN      BR    2400  0    
2019/08/31  04:04:02  BASE  4.9392   156  7.71456  157  -3.0  100   -3.0  0     0     990.3    NA       0.0000   -SN      BR    2600  230  
2019/08/31  04:05:03  BASE  4.851    160  7.71456  157  -3.0  100   -3.0  0     0     990.2    NA       0.0000   -SN      BR    2300  0    
2019/08/31  04:06:01  BASE  5.06856  157  7.71456  157  -3.0  100   -3.0  0     0     990.2    NA       0.0000   -SN      BR    1900  0    
2019/08/31  04:07:02  BASE  5.45076  147  6.3504   158  -3.0  100   -3.0  0     0     990.2    NA       0.0000   -SN      BR    1800  0    
2019/08/31  04:08:02  BASE  5.46252  144  6.07992  150  -3.0  100   -3.0  0     0     990.2    NA       0.0000   -SN      BR    2000  0    
2019/08/31  04:09:02  BASE  5.90352  144  6.86784  144  -2.9  100   -2.9  0     0     990.1    NA       0.0000   -SN      BR    2100  0    
2019/08/31  04:10:02  BASE  6.73848  145  7.71456  145  -2.9  100   -2.9  0     0     990.1    NA       0.0000   -SN      BR    2200  0    
2019/08/31  04:11:02  BASE  6.762    147  7.71456  145  -2.9  100   -2.9  0     0     990.1    NA       0.0000   -SN      BR    2200  0    
2019/08/31  04:12:02  BASE  5.13324  145  7.71456  145  -2.9  100   -2.9  0     0     990.2    NA       0.0000   -SN      BR    1900  2400 
2019/08/31  04:13:02  BASE  4.32768  147  7.71456  145  -2.9  100   -2.9  0     0     990.1    NA       0.0000   -SN      BR    2800  2230 
2019/08/31  04:14:01  BASE  5.66832  148  7.71456  145  -2.9  100   -2.9  0     0     990.0    NA       0.0000   -SN      BR    3400  1610 
2019/08/31  04:15:02  BASE  6.3504   147  7.71456  145  -2.9  100   -2.9  0     0     990.0    NA       0.0000   -SN      BR    2600  2460 
2019/08/31  04:16:01  BASE  6.13284  147  7.71456  145  -2.9  100   -2.9  0     0     990.0    NA       0.0000   -SN      BR    3400  2460 
2019/08/31  04:17:02  BASE  6.50916  143  7.71456  145  -3.0  100   -3.0  0     0     990.0    NA       0.0000   -SN      BR    2700  2560 
2019/08/31  04:18:02  BASE  6.83844  143  7.71456  145  -3.0  100   -3.0  0     0     990.0    NA       0.0000   -SN      BR    1900  2490 
2019/08/31  04:19:02  BASE  7.03836  146  7.71456  145  -3.0  100   -3.0  0     0     989.9    NA       0.0000   -SN      BR    1400  2720 
2019/08/31  04:20:02  BASE  7.18536  146  7.53228  143  -2.9  100   -2.9  0     0     989.9    NA       0.0000   -SN      BR    1300  2660 
2019/08/31  04:21:02  BASE  6.09168  154  7.53228  143  -2.9  100   -2.9  0     0     990.1    NA       0.0000   -SN      BR    2100  2690 
2019/08/31  04:22:02  BASE  5.36844  161  7.53228  143  -2.9  100   -2.9  0     0     990.0    NA       0.0000   -SN      BR    3400  2760 
2019/08/31  04:23:02  BASE  6.81492  151  8.3202   145  -3.0  100   -3.0  0     0     989.9    NA       0.0000   -SN      BR    3900  1940 
2019/08/31  04:24:02  BASE  7.7616   145  8.3202   145  -3.0  100   -3.0  0     0     989.8    NA       0.0000   -SN      BR    2400  2400 
2019/08/31  04:25:02  BASE  7.67928  150  8.4084   149  -2.9  100   -2.9  0     0     989.8    NA       0.0000   -SN      BR    2100  2200 
2019/08/31  04:26:02  BASE  7.75572  154  8.71416  152  -2.9  100   -2.9  0     0     989.8    NA       0.0000   -SN      BR    2000  2300 
2019/08/31  04:27:03  BASE  7.203    159  8.71416  152  -2.9  100   -2.9  0     0     989.8    NA       0.0000   -SN      BR    1400  2430 
2019/08/31  04:28:02  BASE  6.35628  158  8.71416  152  -2.9  100   -2.9  0     0     989.9    NA       0.0000   -SN      BR    3700  2360 
2019/08/31  04:29:01  BASE  6.20928  152  8.71416  152  -2.9  100   -2.9  0     0     989.8    NA       0.0000   -SN      BR    4200  2260 
2019/08/31  04:30:02  BASE  6.468    153  8.71416  152  -2.9  100   -2.9  0     0     989.8    NA       0.0000   -SN      BR    3100  2330 
2019/08/31  04:31:02  BASE  6.0564   155  8.71416  152  -2.9  100   -2.9  0     0     989.8    NA       0.0000   -SN      BR    3400  2590 
2019/08/31  04:32:02  BASE  5.9976   152  8.71416  152  -2.9  100   -2.9  0     0     989.8    NA       0.0000   -SN      BR    3800  2660 
2019/08/31  04:33:02  BASE  6.3798   148  8.71416  152  -2.9  100   -2.9  0     0     989.8    NA       0.0000   -SN      BR    3500  2560 
2019/08/31  04:34:01  BASE  6.3798   146  8.71416  152  -2.9  100   -2.9  0     0     989.7    NA       0.0000   -SN      BR    4400  2360 
2019/08/31  04:35:02  BASE  6.59148  145  8.71416  152  -2.9  100   -2.9  0     0     989.7    NA       0.0000   -SN      BR    5000  2490 
2019/08/31  04:36:02  BASE  6.51504  148  7.68516  165  -2.9  100   -2.9  0     0     989.8    NA       0.0000   -SN      BR    4000  2890 
2019/08/31  04:37:02  BASE  5.6448   146  7.44408  147  -2.9  100   -2.9  0     0     989.8    NA       0.0000   -SN      BR    3400  2790 
2019/08/31  04:38:02  BASE  5.18028  144  7.44408  147  -2.9  100   -2.9  0     0     989.8    NA       0.0000   -SN      BR    3800  2430 
2019/08/31  04:39:02  BASE  6.05052  146  7.44408  147  -2.9  100   -2.9  0     0     989.7    NA       0.0000   -SN      BR    3800  2360 
2019/08/31  04:40:02  BASE  6.80316  149  7.44408  147  -2.9  100   -2.9  0     0     989.7    NA       0.0000   -SN      BR    3200  2990 
2019/08/31  04:41:02  BASE  6.78552  149  7.44408  147  -2.9  100   -2.9  0     0     989.7    NA       0.0000   -SN      BR    3600  2950 
2019/08/31  04:42:02  BASE  5.89176  148  7.44408  147  -2.9  100   -2.9  0     0     989.7    NA       0.0000   -SN      BR    3800  2590 
2019/08/31  04:43:02  BASE  5.145    149  7.44408  147  -2.9  100   -2.9  0     0     989.7    NA       0.0000   -SN      BR    4500  2490 
2019/08/31  04:44:02  BASE  5.18616  143  7.44408  147  -2.9  100   -2.9  0     0     989.9    NA       0.0000   -SN      BR    5000  2790 
2019/08/31  04:45:02  BASE  4.82748  134  7.2912   142  -2.9  100   -2.9  0     0     989.9    NA       0.0000   -SN      BR    7000  2660 
2019/08/31  04:46:03  BASE  4.90392  137  7.2912   142  -2.8  100   -2.8  0     0     989.8    NA       0.0000   -SN      BR    6000  2230 
2019/08/31  04:47:02  BASE  5.16852  150  7.2912   142  -2.8  100   -2.8  0     0     989.7    NA       0.0000   -SN      BR    7000  2660 
2019/08/31  04:48:01  BASE  4.43352  157  7.2912   142  -2.8  100   -2.8  0     0     989.9    NA       0.0000   -SN      BR    5000  2950 
2019/08/31  04:49:01  BASE  3.01644  147  7.2912   142  -2.8  100   -2.8  0     0     989.9    NA       0.0000   -SN      BR    3900  2890 
2019/08/31  04:50:01  BASE  3.12816  137  7.2912   142  -2.8  100   -2.8  0     0     989.8    NA       0.0000   -SN      BR    4200  0    
2019/08/31  04:51:01  BASE  4.41588  146  6.59148  145  -2.9  100   -2.9  0     0     989.8    NA       0.0000   -SN      BR    5000  2950 
2019/08/31  04:52:01  BASE  4.998    147  6.13872  152  -2.9  100   -2.9  0     0     989.8    NA       0.0000   -SN      BR    6000  3220 
2019/08/31  04:53:02  BASE  5.35668  145  6.2328   151  -2.8  100   -2.8  0     0     989.7    NA       0.0000   -SN      BR    4700  1770 
2019/08/31  04:54:01  BASE  6.02112  150  6.80316  153  -2.9  100   -2.9  0     0     989.6    NA       0.0000   -SN      BR    6000  2820 
2019/08/31  04:55:02  BASE  6.0858   152  6.80316  153  -2.9  100   -2.9  0     0     989.7    NA       0.0000   -SN      BR    4900  3020 
2019/08/31  04:56:01  BASE  5.62128  153  6.80316  153  -2.8  100   -2.8  0     0     989.6    NA       0.0000   -SN      BR    9999  2460 
2019/08/31  04:57:02  BASE  5.05092  155  6.80316  153  -2.8  100   -2.8  0     0     989.7    NA       0.0000   -SN      BR    7000  2620 
2019/08/31  04:58:02  BASE  3.72792  141  6.80316  153  -2.8  100   -2.8  0     0     989.7    NA       0.0000   -SN      BR    8000  2890 
2019/08/31  04:59:01  BASE  3.37512  130  6.80316  153  -2.8  100   -2.8  0     0     989.7    NA       0.0000   -SN      BR    4500  2490 
2019/08/31  05:00:02  BASE  4.54524  145  6.80316  153  -2.8  100   -2.8  0     0     989.5    NA       0.0000   -SN      BR    7000  2560 
2019/08/31  05:01:02  BASE  5.70948  158  6.83844  156  -2.8  100   -2.8  0     0     989.4    NA       0.0000   -SN      BR    5000  2820 
2019/08/31  05:02:02  BASE  5.60952  158  6.83844  156  -2.8  100   -2.8  0     0     989.5    NA       0.0000   -SN      BR    6000  2920 
2019/08/31  05:03:02  BASE  5.03328  154  6.83844  156  -2.8  100   -2.8  0     0     989.5    NA       0.0000   -SN      BR    9999  2400 
2019/08/31  05:04:02  BASE  4.9686   152  6.83844  156  -2.8  100   -2.8  0     0     989.6    NA       0.0000   -SN      BR    9999  2950 
2019/08/31  05:05:03  BASE  4.74516  149  6.83844  156  -2.8  100   -2.8  0     0     989.5    NA       0.0000   -SN      BR    9999  3080 
2019/08/31  05:06:01  BASE  4.92156  150  6.83844  156  -2.8  100   -2.8  0     0     989.4    NA       0.0000   -SN      BR    9999  1380 
2019/08/31  05:07:02  BASE  5.2038   155  6.83844  156  -2.8  100   -2.8  0     0     989.4    NA       0.0000   -SN      BR    9999  3120 
2019/08/31  05:08:01  BASE  4.79808  154  6.83844  156  -2.8  100   -2.8  0     0     989.5    NA       0.0000   -SN      BR    9999  2850 
2019/08/31  05:09:02  BASE  4.4688   143  6.83844  156  -2.8  100   -2.8  0     0     989.6    NA       0.0000   -SN      BR    9000  2790 
2019/08/31  05:10:01  BASE  4.29828  136  6.83844  156  -2.8  100   -2.8  0     0     989.5    NA       0.0000   -SN      9999  2890  0    
2019/08/31  05:11:02  BASE  5.15088  148  7.19712  163  -2.7  100   -2.7  0     0     989.4    NA       0.0000   -SN      9999  2330  0    
2019/08/31  05:12:01  BASE  6.57384  154  7.92624  130  -2.7  100   -2.7  0     0     989.3    NA       0.0000   -SN      8000  2490  0    
2019/08/31  05:13:01  BASE  7.497    146  8.86116  132  -2.6  100   -2.6  0     0     989.2    NA       0.0000   -SN      9999  2660  0    
2019/08/31  05:14:02  BASE  7.39116  142  8.86116  132  -2.6  100   -2.6  0     0     989.3    NA       0.0000   -SN      9999  2030  0    
2019/08/31  05:15:02  BASE  6.3504   149  8.86116  132  -2.5  100   -2.5  0     0     989.2    NA       0.0000   -SN      7000  2430  0    
2019/08/31  05:16:02  BASE  5.66832  150  8.86116  132  -2.5  100   -2.5  0     0     989.4    NA       0.0000   -SN      BR    3700  2820 
2019/08/31  05:17:02  BASE  5.46252  146  8.86116  132  -2.5  100   -2.5  0     0     989.4    NA       0.0000   -SN      BR    4700  2760 
2019/08/31  05:18:02  BASE  4.8216   149  8.86116  132  -2.5  100   -2.5  0     0     989.4    NA       0.0000   -SN      BR    5000  2850 
2019/08/31  05:19:02  BASE  4.19244  162  8.86116  132  -2.6  100   -2.6  0     0     989.3    NA       0.0000   -SN      BR    4300  2260 
2019/08/31  05:20:02  BASE  4.78632  179  8.86116  132  -2.6  100   -2.6  0     0     989.2    NA       0.0000   -SN      BR    9999  2720 
2019/08/31  05:21:02  BASE  5.1744   160  8.86116  132  -2.6  100   -2.6  0     0     989.2    NA       0.0000   -SN      BR    9999  2590 
2019/08/31  05:22:01  BASE  5.3214   113  8.86116  132  -2.6  100   -2.6  0     0     989.2    NA       0.0000   -SN      BR    8000  2200 
2019/08/31  05:23:02  BASE  4.99212  99   8.19672  91   -2.4  100   -2.4  0     0     989.3    NA       0.0000   -SN      BR    8000  2530 
2019/08/31  05:24:02  BASE  4.05132  73   8.19672  91   -2.2  100   -2.2  0     0     989.5    NA       0.0000   -SN      BR    7000  1540 
2019/08/31  05:25:02  BASE  2.94588  41   8.19672  91   -2.1  100   -2.1  0     0     989.5    NA       0.0000   -SN      BR    9999  2260 
2019/08/31  05:26:02  BASE  1.35828  22   8.19672  91   -2.0  100   -2.0  0     0     989.4    NA       0.0000   -SN      BR    9999  2200 
2019/08/31  05:27:02  BASE  2.28732  81   8.19672  91   -1.9  100   -1.9  0     0     989.4    NA       0.0000   -SN      BR    9999  2130 
2019/08/31  05:28:02  BASE  3.78672  123  8.19672  91   -1.9  100   -1.9  0     0     989.3    NA       0.0000   -SN      BR    9999  2430 
2019/08/31  05:29:03  BASE  3.49272  131  8.19672  91   -1.8  100   -1.8  0     0     989.2    NA       0.0000   -SN      9999  2620  0    
2019/08/31  05:30:03  BASE  5.51544  123  8.77296  137  -1.7  99    -1.7  0     0     989.1    NA       0.0000   -SN      7000  2230  0    
2019/08/31  05:31:02  BASE  5.77416  127  8.77296  137  -1.5  98    -1.8  0     0     989.1    NA       0.0000   -SN      BR    3800  2330 
2019/08/31  05:32:03  BASE  5.18616  139  8.77296  137  -1.4  96    -1.9  0     0     989.0    NA       0.0000   -SN      BR    5000  2660 
2019/08/31  05:33:03  BASE  6.26808  145  8.77296  137  -1.4  94    -2.2  0     0     989.1    NA       0.0000   -SN      BR    6000  2590 
2019/08/31  05:34:02  BASE  6.93252  142  8.77296  137  -1.5  92    -2.6  0     0     989.0    NA       0.0000   -SN      BR    6000  2790 
2019/08/31  05:35:02  BASE  7.02072  133  8.77296  137  -1.6  91    -2.9  0     0     989.1    NA       0.0000   -SN      BR    7000  2430 
2019/08/31  05:36:02  BASE  4.98036  121  8.77296  137  -1.6  90    -3.0  0     0     989.1    NA       0.0000   -SN      BR    9999  2560 
2019/08/31  05:37:02  BASE  2.98116  133  8.77296  137  -1.5  90    -2.9  0     0     989.0    NA       0.0000   -SN      BR    9999  2660 
2019/08/31  05:38:02  BASE  4.36884  132  8.77296  137  -1.4  89    -2.9  0     0     989.0    NA       0.0000   -SN      BR    9999  2590 
2019/08/31  05:39:02  BASE  5.68008  115  8.77296  137  -1.2  88    -2.9  0     0     988.9    NA       0.0000   -SN      BR    9999  2400 
2019/08/31  05:40:01  BASE  5.23908  121  8.71416  137  -1.0  86    -3.1  0     0     988.9    NA       0.0000   -SN      BR    9999  2720 
2019/08/31  05:41:02  BASE  4.83336  129  8.71416  137  -0.9  84    -3.3  0     0     989.0    NA       0.0000   -SN      9999  2660  0    
2019/08/31  05:42:03  BASE  4.21596  135  8.71416  137  -0.8  82    -3.6  0     0     988.9    NA       0.0000   -SN      9999  2660  0    
2019/08/31  05:43:03  BASE  7.42644  140  15.5467  129  -0.9  81    -3.8  0     0     988.5    NA       0.0000   -SN      9999  2850  0    
2019/08/31  05:44:02  BASE  8.83176  138  15.5467  129  -0.9  80    -3.9  0     0     988.8    NA       0.0000   -SN      9999  2360  0    
2019/08/31  05:45:02  BASE  6.93252  139  15.5467  129  -1.0  81    -3.9  0     0     988.9    NA       0.0000   -SN      9999  2620  0    
2019/08/31  05:46:02  BASE  6.62088  129  15.5467  129  -1.1  81    -3.9  0     0     988.9    NA       0.0000   -SN      9999  2720  0    
2019/08/31  05:47:03  BASE  5.59776  114  15.5467  129  -1.2  82    -3.9  0     0     989.0    NA       0.0000   -SN      9999  2790  0    
2019/08/31  05:48:03  BASE  3.84552  102  15.5467  129  -1.2  83    -3.7  0     0     989.0    NA       0.0000   -SN      9999  2920  0    
2019/08/31  05:49:02  BASE  2.76948  114  15.5467  129  -1.1  83    -3.7  0     0     989.0    NA       0.0000   -SN      9999  2590  0    
2019/08/31  05:50:02  BASE  4.41588  146  15.5467  129  -1.1  82    -3.8  0     0     988.9    NA       0.0000   -SN      9999  2850  0    
2019/08/31  05:51:03  BASE  6.24456  151  15.5467  129  -1.1  82    -3.8  0     0     988.9    NA       0.0000   -SN      9999  3120  0    
2019/08/31  05:52:02  BASE  5.4978   145  15.5467  129  -1.1  81    -3.9  0     0     988.9    NA       0.0000   -SN      9999  2850  0    
2019/08/31  05:53:02  BASE  3.71028  135  8.3202   135  -1.1  81    -3.9  0     0     989.0    NA       0.0000   9999     2660  3310  0    
2019/08/31  05:54:03  BASE  2.0874   128  8.25552  130  -1.1  81    -3.9  0     0     989.0    NA       0.0000   9999     2850  3450  0    
2019/08/31  05:55:03  BASE  1.9404   153  7.83216  103  -1.1  81    -3.9  0     0     989.0    NA       0.0000   9999     3350  0     0    
2019/08/31  05:56:02  BASE  2.12268  166  6.98544  166  -1.2  81    -3.9  0     0     988.9    NA       0.0000   9999     3150  0     0    
2019/08/31  05:57:02  BASE  1.53468  189  6.98544  166  -1.2  82    -3.9  0     0     988.9    NA       0.0000   9999     3510  0     0    
2019/08/31  05:58:02  BASE  1.37592  237  6.98544  166  -1.3  82    -4.0  0     0     988.9    NA       0.0000   9999     2820  0     0    
2019/08/31  05:59:03  BASE  1.30536  249  6.98544  166  -1.5  83    -4.0  0     0     988.9    NA       0.0000   9999     2920  3410  0    
2019/08/31  06:00:02  BASE  1.28772  225  6.68556  137  -1.6  84    -3.9  0     0     988.8    NA       0.0000   9999     3280  4130  0    
2019/08/31  06:01:01  BASE  2.81064  161  6.98544  124  -1.7  86    -3.7  0     0     988.7    NA       0.0000   9999     3050  4000  0    
2019/08/31  06:02:01  BASE  5.04504  144  7.3794   156  -1.6  87    -3.5  0     0     988.6    NA       0.0000   9999     3080  3940  0    
2019/08/31  06:03:02  BASE  5.50956  147  7.3794   156  -1.5  87    -3.4  0     0     988.6    NA       0.0000   9999     3250  3940  0    
2019/08/31  06:04:01  BASE  4.7628   148  7.3794   156  -1.3  87    -3.3  0     0     988.7    NA       0.0000   9999     3080  3940  0    
2019/08/31  06:05:03  BASE  3.99252  153  7.3794   156  -1.3  86    -3.3  0     0     988.7    NA       0.0000   9999     3250  3940  0    
2019/08/31  06:06:02  BASE  3.29868  143  7.3794   156  -1.3  85    -3.5  0     0     988.7    NA       0.0000   9999     2890  3870  0    
2019/08/31  06:07:02  BASE  2.25204  112  7.3794   156  -1.3  85    -3.6  0     0     988.7    NA       0.0000   9999     2990  3840  0    
2019/08/31  06:08:02  BASE  0.81144  107  7.3794   156  -1.4  85    -3.6  0     0     988.7    NA       0.0000   9999     2920  3870  0    
2019/08/31  06:09:02  BASE  0.54096  94   7.3794   156  -1.4  85    -3.7  0     0     988.7    NA       0.0000   9999     2850  3940  6690 
2019/08/31  06:10:01  BASE  0.87024  46   7.3794   156  -1.4  85    -3.6  0     0     988.7    NA       0.0000   9999     2760  6730  0    
2019/08/31  06:11:02  BASE  0.94668  266  7.3794   156  -1.4  85    -3.6  0     0     988.8    NA       0.0000   9999     2720  6660  0    
2019/08/31  06:12:03  BASE  1.34064  220  6.44448  172  -1.4  85    -3.6  0     0     988.6    NA       0.0000   9999     2230  0     0    
2019/08/31  06:13:02  BASE  2.27556  218  5.3214   152  -1.4  85    -3.6  0     0     988.5    NA       0.0000   9999     2560  0     0    
2019/08/31  06:14:02  BASE  1.911    208  5.08032  147  -1.3  85    -3.6  0     0     988.5    NA       0.0000   9999     2460  0     0    
2019/08/31  06:15:01  BASE  2.1168   182  5.2626   167  -1.2  84    -3.6  0     0     988.6    NA       0.0000   9999     2850  0     0    
2019/08/31  06:16:01  BASE  2.78712  139  5.2626   167  -1.1  83    -3.6  0     0     988.7    NA       0.0000   9999     2790  0     0    
2019/08/31  06:17:02  BASE  2.57544  97   5.2626   167  -1.1  82    -3.8  0     0     988.7    NA       0.0000   9999     2920  0     0    
2019/08/31  06:18:02  BASE  2.89296  86   5.2626   167  -1.1  81    -3.9  0     0     988.6    NA       0.0000   9999     2430  0     0    
2019/08/31  06:19:01  BASE  2.9106   113  5.2626   167  -1.0  80    -4.0  0     0     988.5    NA       0.0000   9999     2890  0     0    
2019/08/31  06:20:01  BASE  1.66404  180  5.2626   167  -0.9  79    -4.1  0     0     988.5    NA       0.0000   9999     2820  0     0    
2019/08/31  06:21:02  BASE  1.42296  317  5.2626   167  -0.8  78    -4.2  0     0     988.5    NA       0.0000   9999     2950  0     0    
2019/08/31  06:22:01  BASE  2.69892  345  5.2626   167  -0.9  78    -4.3  0     0     988.5    NA       0.0000   9999     3050  0     0    
2019/08/31  06:23:02  BASE  3.05172  359  5.2626   167  -1.1  78    -4.5  0     0     988.5    NA       0.0000   9999     3050  0     0    
2019/08/31  06:24:01  BASE  3.12816  2    5.2626   167  -1.3  78    -4.6  0     0     988.5    NA       0.0000   9999     3120  0     0    
2019/08/31  06:25:01  BASE  2.59896  359  4.65696  83   -1.5  80    -4.6  0     0     988.5    NA       0.0000   9999     3020  0     0    
2019/08/31  06:26:01  BASE  1.21128  5    4.65696  83   -1.6  81    -4.4  0     0     988.5    NA       0.0000   9999     2820  0     0    
2019/08/31  06:27:01  BASE  0.72324  82   4.65696  83   -1.6  82    -4.3  0     0     988.5    NA       0.0000   9999     2920  0     0    
2019/08/31  06:28:02  BASE  1.13484  140  4.53936  120  -1.6  83    -4.2  0     0     988.5    NA       0.0000   9999     3220  0     0    
2019/08/31  06:29:01  BASE  0.90552  159  3.75144  9    -1.6  83    -4.2  0     0     988.4    NA       0.0000   9999     2720  0     0    
2019/08/31  06:30:02  BASE  1.22892  199  3.75144  9    -1.7  83    -4.2  0     0     988.4    NA       0.0000   9999     2890  0     0    
2019/08/31  06:31:01  BASE  1.68168  212  3.75144  9    -1.7  83    -4.2  0     0     988.4    NA       0.0000   9999     2920  0     0    
2019/08/31  06:32:01  BASE  1.31124  196  3.75144  9    -1.7  84    -4.1  0     0     988.5    NA       0.0000   9999     2990  3580  0    
2019/08/31  06:33:02  BASE  1.40532  173  3.75144  9    -1.7  84    -4.0  0     0     988.5    NA       0.0000   9999     3120  0     0    
2019/08/31  06:34:02  BASE  2.9694   157  4.86864  154  -1.6  84    -3.9  0     0     988.4    NA       0.0000   9999     2890  0     0    
2019/08/31  06:35:02  BASE  3.98664  157  5.292    165  -1.5  83    -3.9  0     0     988.3    NA       0.0000   9999     2890  0     0    
2019/08/31  06:36:02  BASE  5.29788  151  7.98504  134  -1.5  83    -4.0  0     0     988.2    NA       0.0000   9999     2620  3280  0    
2019/08/31  06:37:02  BASE  6.7914   149  7.98504  134  -1.4  82    -4.0  0     0     988.1    NA       0.0000   9999     2990  3670  0    
2019/08/31  06:38:02  BASE  6.67968  159  8.62008  143  -1.3  82    -4.0  0     0     988.1    NA       0.0000   9999     3310  0     0    
2019/08/31  06:39:02  BASE  6.89724  167  8.62008  143  -1.2  81    -4.1  0     0     988.0    NA       0.0000   9999     3050  0     0    
2019/08/31  06:40:02  BASE  7.48524  165  9.91956  143  -1.2  81    -4.1  0     0     988.0    NA       0.0000   9999     2820  0     0    
2019/08/31  06:41:02  BASE  8.00268  140  10.1018  128  -1.2  81    -4.1  0     0     988.0    NA       0.0000   9999     2820  0     0    
2019/08/31  06:42:02  BASE  5.5272   94   10.1018  128  -1.1  80    -4.1  0     0     988.2    NA       0.0000   9999     3180  0     0    
2019/08/31  06:43:01  BASE  2.80476  74   10.1018  128  -1.0  80    -4.1  0     0     988.2    NA       0.0000   9999     3310  0     0    
2019/08/31  06:44:01  BASE  3.48096  133  10.1018  128  -0.9  79    -4.2  0     0     988.2    NA       0.0000   9999     3120  0     0    
2019/08/31  06:45:02  BASE  4.3512   142  10.1018  128  -0.9  78    -4.2  0     0     988.1    NA       0.0000   9999     2720  3150  0    
2019/08/31  06:46:02  BASE  3.75144  120  10.1018  128  -0.9  78    -4.2  0     0     988.1    NA       0.0000   9999     3280  0     0    
2019/08/31  06:47:02  BASE  3.99252  126  10.1018  128  -0.9  77    -4.4  0     0     988.2    NA       0.0000   9999     2720  3610  0    
2019/08/31  06:48:02  BASE  4.16892  129  10.1018  128  -1.0  77    -4.5  0     0     988.2    NA       0.0000   9999     2990  3540  0    
2019/08/31  06:49:02  BASE  3.72204  134  10.1018  128  -1.1  78    -4.5  0     0     988.1    NA       0.0000   9999     3150  0     0    
2019/08/31  06:50:02  BASE  4.34532  150  10.1018  128  -1.1  78    -4.4  0     0     988.0    NA       0.0000   9999     2620  0     0    
2019/08/31  06:51:02  BASE  6.4092   156  8.83176  152  -1.2  79    -4.5  0     0     987.9    NA       0.0000   9999     2890  3450  0    
2019/08/31  06:52:02  BASE  7.19124  153  8.83176  152  -1.4  80    -4.4  0     0     988.0    NA       0.0000   9999     3150  0     0    
2019/08/31  06:53:02  BASE  6.7914   151  8.83176  152  -1.5  81    -4.2  0     0     987.9    NA       0.0000   9999     2690  0     0    
2019/08/31  06:54:02  BASE  6.8796   152  8.83176  152  -1.5  83    -4.1  0     0     987.9    NA       0.0000   9999     3410  0     0    
2019/08/31  06:55:02  BASE  6.97956  146  9.70788  127  -1.5  84    -3.9  0     0     987.8    NA       0.0000   9999     3120  0     0    
2019/08/31  06:56:02  BASE  6.55032  131  9.70788  127  -1.4  84    -3.7  0     0     987.9    NA       0.0000   9999     2620  0     0    
2019/08/31  06:57:02  BASE  5.91528  135  9.70788  127  -1.3  84    -3.6  0     0     987.9    NA       0.0000   9999     3050  0     0    
2019/08/31  06:58:02  BASE  6.56208  136  9.70788  127  -1.1  83    -3.7  0     0     987.8    NA       0.0000   9999     2660  0     0    
2019/08/31  06:59:02  BASE  6.47976  127  9.70788  127  -1.0  82    -3.8  0     0     987.9    NA       0.0000   UP       9999  2990  0    
2019/08/31  07:00:02  BASE  6.84432  134  9.70788  127  -0.9  80    -3.9  0     0     987.8    NA       0.0000   UP       9999  3020  3900 
2019/08/31  07:01:02  BASE  7.30884  142  9.70788  127  -1.0  79    -4.2  0     0     987.9    NA       0.0000   UP       9999  2720  3480 
2019/08/31  07:02:03  BASE  8.13204  139  10.7075  133  -1.1  78    -4.5  0     0     987.7    NA       0.0000   UP       9999  2760  0    
2019/08/31  07:03:02  BASE  9.17868  135  10.7075  133  -1.2  78    -4.6  0     0     987.7    NA       0.0000   UP       9999  2620  0    
2019/08/31  07:04:02  BASE  8.43192  140  10.7075  133  -1.3  78    -4.6  0     0     987.8    NA       0.0000   UP       9999  2690  0    
2019/08/31  07:05:03  BASE  6.87372  150  10.7075  133  -1.4  79    -4.6  0     0     987.9    NA       0.0000   UP       9999  2990  0    
2019/08/31  07:06:02  BASE  5.59188  157  10.7075  133  -1.5  80    -4.6  0     0     987.9    NA       0.0000   UP       9999  2990  0    
2019/08/31  07:07:02  BASE  5.10972  151  10.7075  133  -1.5  80    -4.5  0     0     987.9    NA       0.0000   UP       9999  3050  0    
2019/08/31  07:08:02  BASE  5.36256  140  10.7075  133  -1.6  81    -4.4  0     0     987.9    NA       0.0000   UP       9999  3220  0    
2019/08/31  07:09:01  BASE  6.53268  135  10.7075  133  -1.6  81    -4.4  0     0     987.9    NA       0.0000   UP       9999  3120  0    
2019/08/31  07:10:02  BASE  7.09716  135  10.7075  133  -1.7  82    -4.3  0     0     987.8    NA       0.0000   UP       9999  2890  0    
2019/08/31  07:11:01  BASE  7.03836  139  10.7075  133  -1.7  82    -4.3  0     0     987.7    NA       0.0000   UP       9999  2690  0    
2019/08/31  07:12:01  BASE  8.48484  140  11.3131  134  -1.7  83    -4.2  0     0     987.5    NA       0.0000   UP       9999  2690  0    
2019/08/31  07:13:02  BASE  9.83724  138  11.3131  134  -1.6  83    -4.1  0     0     987.4    NA       0.0000   UP       9999  3020  0    
2019/08/31  07:14:02  BASE  9.57264  139  11.3131  134  -1.6  82    -4.2  0     0     987.5    NA       0.0000   9999     3080  0     0    
2019/08/31  07:15:02  BASE  8.97288  142  11.3131  134  -1.5  82    -4.2  0     0     987.6    NA       0.0000   9999     3080  0     0    
2019/08/31  07:16:02  BASE  8.13792  144  11.3131  134  -1.5  82    -4.3  0     0     987.6    NA       0.0000   9999     3380  0     0    
2019/08/31  07:17:01  BASE  7.0854   144  11.3131  134  -1.6  81    -4.3  0     0     987.7    NA       0.0000   9999     3510  0     0    
2019/08/31  07:18:01  BASE  7.35     143  11.3131  134  -1.6  81    -4.4  0     0     987.5    NA       0.0000   9999     2950  3510  0    
2019/08/31  07:19:01  BASE  8.19084  143  11.3131  134  -1.6  82    -4.3  0     0     987.5    NA       0.0000   9999     3480  0     0    
2019/08/31  07:20:01  BASE  9.21984  142  11.3131  134  -1.6  82    -4.3  0     0     987.4    NA       0.0000   9999     3510  0     0    
2019/08/31  07:21:01  BASE  9.62556  141  11.3131  134  -1.6  82    -4.2  0     0     987.4    NA       0.0000   9999     3610  0     0    
2019/08/31  07:22:01  BASE  9.17868  141  11.0426  137  -1.6  82    -4.3  0     0     987.4    NA       0.0000   9999     3510  0     0    
2019/08/31  07:23:02  BASE  8.526    145  10.8604  138  -1.7  82    -4.3  0     0     987.5    NA       0.0000   9999     3670  0     0    
2019/08/31  07:24:01  BASE  6.468    153  10.8604  138  -1.7  82    -4.3  0     0     987.6    NA       0.0000   9999     3710  0     0    
2019/08/31  07:25:02  BASE  4.69812  157  10.8604  138  -1.7  82    -4.3  0     0     987.6    NA       0.0000   9999     3710  0     0    
2019/08/31  07:26:02  BASE  4.91568  147  10.8604  138  -1.7  82    -4.3  0     0     987.6    NA       0.0000   9999     2890  3740  0    
2019/08/31  07:27:02  BASE  5.9976   136  10.8604  138  -1.6  82    -4.3  0     0     987.5    NA       0.0000   9999     2820  3840  0    
2019/08/31  07:28:02  BASE  7.82628  142  10.8604  138  -1.6  82    -4.2  0     0     987.4    NA       0.0000   9999     2890  0     0    
2019/08/31  07:29:02  BASE  8.23788  153  10.8604  138  -1.6  83    -4.2  0     0     987.4    NA       0.0000   9999     2820  0     0    
2019/08/31  07:30:02  BASE  7.51464  152  10.437   150  -1.6  83    -4.1  0     0     987.4    NA       0.0000   9999     2790  3840  0    
2019/08/31  07:31:02  BASE  8.74356  151  11.3425  160  -1.5  83    -4.1  0     0     987.3    NA       0.0000   9999     2820  3580  0    
2019/08/31  07:32:02  BASE  9.40212  157  11.3425  160  -1.5  83    -4.1  0     0     987.3    NA       0.0000   7000     2890  3610  0    
2019/08/31  07:33:02  BASE  8.86116  152  11.3425  160  -1.5  83    -4.1  0     0     987.4    NA       0.0000   UP       9999  3670  0    
2019/08/31  07:34:02  BASE  9.03168  145  11.3425  160  -1.6  83    -4.1  0     0     987.4    NA       0.0000   UP       9999  3740  0    
2019/08/31  07:35:02  BASE  8.33196  148  11.3425  160  -1.6  82    -4.2  0     0     987.5    NA       0.0000   UP       9999  3770  0    
2019/08/31  07:36:02  BASE  6.28572  147  11.3425  160  -1.6  82    -4.3  0     0     987.5    NA       0.0000   UP       9999  3740  0    
2019/08/31  07:37:02  BASE  5.95644  142  11.3425  160  -1.6  82    -4.3  0     0     987.5    NA       0.0000   UP       9999  3710  0    
2019/08/31  07:38:02  BASE  7.82628  137  11.3425  160  -1.6  81    -4.4  0     0     987.4    NA       0.0000   UP       9999  3640  0    
2019/08/31  07:39:02  BASE  9.47268  134  11.3425  160  -1.7  81    -4.5  0     0     987.3    NA       0.0000   UP       9999  2690  3670 
2019/08/31  07:40:02  BASE  9.68436  135  11.3425  160  -1.7  81    -4.5  0     0     987.3    NA       0.0000   UP       9999  2690  3710 
2019/08/31  07:41:02  BASE  8.70828  141  10.7075  130  -1.7  81    -4.5  0     0     987.4    NA       0.0000   UP       9999  3640  0    
2019/08/31  07:42:02  BASE  8.27316  146  10.7075  130  -1.7  81    -4.6  0     0     987.4    NA       0.0000   9999     3640  0     0    
2019/08/31  07:43:02  BASE  7.57932  147  10.7075  130  -1.7  81    -4.6  0     0     987.5    NA       0.0000   9999     3610  0     0    
2019/08/31  07:44:02  BASE  6.8502   150  10.7075  130  -1.7  81    -4.6  0     0     987.5    NA       0.0000   9999     3710  0     0    
2019/08/31  07:45:01  BASE  7.44408  151  10.7075  130  -1.8  81    -4.5  0     0     987.3    NA       0.0000   9999     3610  0     0    
2019/08/31  07:46:01  BASE  8.59656  149  10.7075  130  -1.8  81    -4.5  0     0     987.3    NA       0.0000   9999     3640  0     0    
2019/08/31  07:47:02  BASE  9.34332  148  10.7075  130  -1.8  82    -4.5  0     0     987.3    NA       0.0000   9999     3670  0     0    
2019/08/31  07:48:01  BASE  9.11988  147  10.7075  130  -1.8  82    -4.4  0     0     987.3    NA       0.0000   9999     3640  0     0    
2019/08/31  07:49:02  BASE  8.9376   147  10.3782  151  -1.8  83    -4.4  0     0     987.2    NA       0.0000   9999     3610  0     0    
2019/08/31  07:50:02  BASE  9.15516  150  10.3782  151  -1.9  83    -4.3  0     0     987.2    NA       0.0000   9999     3580  0     0    
2019/08/31  07:51:02  BASE  9.27864  152  10.3782  151  -1.9  84    -4.3  0     0     987.2    NA       0.0000   9999     3580  0     0    
2019/08/31  07:52:02  BASE  9.34332  150  10.7369  154  -1.9  84    -4.3  0     0     987.1    NA       0.0000   9999     3580  0     0    
2019/08/31  07:53:02  BASE  9.49032  149  10.831   146  -1.9  84    -4.3  0     0     987.1    NA       0.0000   9999     3610  0     0    
2019/08/31  07:54:02  BASE  9.34332  146  12.0364  136  -1.9  84    -4.3  0     0     987.1    NA       0.0000   9999     3640  0     0    
2019/08/31  07:55:01  BASE  9.4962   141  12.0364  136  -1.9  84    -4.3  0     0     987.1    NA       0.0000   9999     3670  0     0    
2019/08/31  07:56:02  BASE  9.35508  138  12.0364  136  -2.0  84    -4.3  0     0     987.2    NA       0.0000   9999     3610  0     0    
2019/08/31  07:57:02  BASE  8.07912  137  12.0364  136  -2.0  84    -4.3  0     0     987.3    NA       0.0000   9999     3540  0     0    
2019/08/31  07:58:02  BASE  6.94428  137  12.0364  136  -2.0  84    -4.3  0     0     987.4    NA       0.0000   9999     3510  0     0    
2019/08/31  07:59:02  BASE  6.91488  143  12.0364  136  -2.0  84    -4.3  0     0     987.2    NA       0.0000   9999     3350  0     0    
2019/08/31  08:00:02  BASE  8.06736  149  12.0364  136  -2.0  84    -4.3  0     0     987.1    NA       0.0000   9999     3350  0     0    
2019/08/31  08:01:02  BASE  9.36684  145  12.0364  136  -2.0  84    -4.3  0     0     987.0    NA       0.0000   9999     3280  0     0    
2019/08/31  08:02:02  BASE  9.41388  137  12.0364  136  -2.0  85    -4.3  0     0     987.0    NA       0.0000   9999     3150  0     0    
2019/08/31  08:03:02  BASE  8.40252  137  12.0364  136  -2.0  85    -4.2  0     0     987.1    NA       0.0000   9999     3080  0     0    
2019/08/31  08:04:02  BASE  8.22612  135  10.8016  136  -2.0  85    -4.2  0     0     987.1    NA       0.0000   9999     2950  0     0    
2019/08/31  08:05:03  BASE  8.45544  130  10.8016  136  -2.0  85    -4.2  0     0     987.2    NA       0.0000   9999     2760  0     0    
2019/08/31  08:06:02  BASE  8.20848  130  10.8016  136  -1.9  84    -4.2  0     0     987.2    NA       0.0000   9999     2720  0     0    
2019/08/31  08:07:02  BASE  8.03208  133  10.8016  136  -1.9  84    -4.3  0     0     987.1    NA       0.0000   9999     3080  0     0    
2019/08/31  08:08:02  BASE  8.44956  133  10.8016  136  -1.9  83    -4.4  0     0     987.0    NA       0.0000   9999     3120  0     0    
2019/08/31  08:09:02  BASE  9.36684  134  10.8016  136  -1.9  83    -4.4  0     0     986.9    NA       0.0000   9999     1800  0     0    
2019/08/31  08:10:02  BASE  9.99012  133  11.0426  134  -1.9  82    -4.5  0     0     986.8    NA       0.0000   9999     3220  0     0    
2019/08/31  08:11:02  BASE  9.78432  136  11.0426  134  -1.9  82    -4.6  0     0     986.8    NA       0.0000   9999     2950  0     0    
2019/08/31  08:12:02  BASE  9.06696  140  11.0426  134  -1.9  81    -4.6  0     0     986.9    NA       0.0000   9999     2990  0     0    
2019/08/31  08:13:02  BASE  8.66124  141  11.0426  134  -1.9  81    -4.7  0     0     987.0    NA       0.0000   9999     3310  0     0    
2019/08/31  08:14:02  BASE  8.57304  142  11.0426  134  -1.9  81    -4.8  0     0     986.9    NA       0.0000   9999     3350  0     0    
2019/08/31  08:15:02  BASE  9.0552   144  11.0426  134  -2.0  81    -4.7  0     0     986.8    NA       0.0000   9999     3480  0     0    
2019/08/31  08:16:02  BASE  9.555    146  11.0426  134  -2.0  81    -4.7  0     0     986.8    NA       0.0000   9999     3540  0     0    
2019/08/31  08:17:02  BASE  9.32568  146  11.0426  134  -2.0  82    -4.7  0     0     986.8    NA       0.0000   9999     3640  0     0    
2019/08/31  08:18:02  BASE  8.74944  142  11.0426  134  -2.0  82    -4.7  0     0     987.0    NA       0.0000   9999     3540  0     0    
2019/08/31  08:19:02  BASE  8.23788  138  11.0426  134  -2.0  82    -4.6  0     0     987.1    NA       0.0000   9999     3540  0     0    
2019/08/31  08:20:02  BASE  7.6146   128  10.1665  145  -2.0  82    -4.6  0     0     987.2    NA       0.0000   9999     3510  0     0    
2019/08/31  08:21:01  BASE  6.98544  120  10.1665  145  -1.9  83    -4.5  0     0     987.3    NA       0.0000   9999     3480  0     0    
2019/08/31  08:22:02  BASE  6.25632  122  10.1665  145  -1.9  83    -4.5  0     0     987.2    NA       0.0000   9999     3450  0     0    
2019/08/31  08:23:02  BASE  5.89176  126  10.1665  145  -1.9  83    -4.5  0     0     987.2    NA       0.0000   9999     3450  0     0    
2019/08/31  08:24:02  BASE  5.97408  123  10.1665  145  -1.9  83    -4.5  0     0     987.2    NA       0.0000   9999     3410  0     0    
2019/08/31  08:25:02  BASE  5.54484  116  10.1665  145  -1.9  83    -4.5  0     0     987.2    NA       0.0000   9999     3310  0     0    
2019/08/31  08:26:01  BASE  5.43312  114  9.61968  151  -1.9  83    -4.5  0     0     987.2    NA       0.0000   UP       9999  3310  0    
2019/08/31  08:27:02  BASE  5.75064  116  9.04344  137  -2.0  83    -4.5  0     0     987.2    NA       0.0000   UP       9999  3310  0    
2019/08/31  08:28:02  BASE  5.9976   116  8.379    137  -2.0  83    -4.5  0     0     987.2    NA       0.0000   UP       9999  3250  0    
2019/08/31  08:29:02  BASE  6.03288  117  7.95564  122  -2.0  83    -4.6  0     0     987.2    NA       0.0000   UP       9999  3310  0    
2019/08/31  08:30:02  BASE  5.7624   119  7.19712  118  -2.0  82    -4.6  0     0     987.2    NA       0.0000   UP       9999  3410  0    
2019/08/31  08:31:01  BASE  5.33316  122  6.65616  116  -2.0  82    -4.7  0     0     987.2    NA       0.0000   UP       9999  3280  3840 
2019/08/31  08:32:01  BASE  4.73928  126  6.65616  116  -2.0  82    -4.7  0     0     987.2    NA       0.0000   UP       9999  3220  0    
2019/08/31  08:33:02  BASE  4.70988  125  6.65616  116  -2.0  82    -4.7  0     0     987.2    NA       0.0000   UP       9999  3280  0    
2019/08/31  08:34:02  BASE  5.3508   120  7.59108  117  -2.0  82    -4.7  0     0     987.1    NA       0.0000   UP       9999  3310  0    
2019/08/31  08:35:02  BASE  6.79728  117  8.25552  112  -2.0  82    -4.7  0     0     987.0    NA       0.0000   UP       9999  3180  3870 
2019/08/31  08:36:02  BASE  8.0262   115  8.53188  115  -2.0  82    -4.6  0     0     987.0    NA       0.0000   UP       9999  3380  0    
2019/08/31  08:37:02  BASE  7.92624  117  8.74356  118  -2.0  82    -4.7  0     0     987.0    NA       0.0000   UP       9999  3450  0    
2019/08/31  08:38:02  BASE  7.33824  116  8.74356  118  -1.9  81    -4.7  0     0     987.0    NA       0.0000   9999     3450  0     0    
2019/08/31  08:39:02  BASE  7.19124  114  8.74356  118  -1.9  81    -4.7  0     0     987.0    NA       0.0000   9999     3580  0     0    
2019/08/31  08:40:02  BASE  7.0266   118  8.74356  118  -1.8  80    -4.8  0     0     987.0    NA       0.0000   9999     3580  0     0    
2019/08/31  08:41:02  BASE  7.056    120  8.74356  118  -1.8  79    -4.9  0     0     987.0    NA       0.0000   9999     3640  0     0    
2019/08/31  08:42:03  BASE  7.19712  115  8.74356  118  -1.8  79    -5.0  0     0     987.0    NA       0.0000   9999     3770  0     0    
2019/08/31  08:43:02  BASE  7.06776  116  8.74356  118  -1.8  78    -5.1  0     0     986.9    NA       0.0000   9999     3810  0     0    
2019/08/31  08:44:02  BASE  7.4088   122  8.74356  118  -1.8  78    -5.1  0     0     986.8    NA       0.0000   9999     3870  0     0    
2019/08/31  08:45:02  BASE  7.85568  126  8.74356  118  -1.9  79    -5.1  0     0     986.8    NA       0.0000   9999     3900  0     0    
2019/08/31  08:46:02  BASE  7.28532  128  8.74356  118  -1.9  79    -5.1  0     0     986.8    NA       0.0000   9999     3900  0     0    
2019/08/31  08:47:02  BASE  5.92704  126  8.53188  120  -1.9  79    -5.0  0     0     986.8    NA       0.0000   9999     3940  0     0    
2019/08/31  08:48:02  BASE  6.72672  119  9.19632  114  -2.0  80    -5.0  0     0     986.8    NA       0.0000   9999     3870  0     0    
2019/08/31  08:49:02  BASE  8.02032  117  9.95484  120  -2.0  80    -4.9  0     0     986.8    NA       0.0000   9999     3900  0     0    
2019/08/31  08:50:02  BASE  7.82628  116  9.95484  120  -1.9  80    -4.9  0     0     986.8    NA       0.0000   9999     3870  0     0    
2019/08/31  08:51:02  BASE  7.03836  109  9.95484  120  -1.9  80    -4.9  0     0     986.9    NA       0.0000   9999     3970  0     0    
2019/08/31  08:52:02  BASE  6.03876  112  9.95484  120  -2.0  81    -4.8  0     0     986.8    NA       0.0000   9999     4040  0     0    
2019/08/31  08:53:02  BASE  6.13872  119  9.95484  120  -2.0  81    -4.8  0     0     986.8    NA       0.0000   9999     3940  0     0    
2019/08/31  08:54:02  BASE  6.321    118  9.95484  120  -2.1  81    -4.9  0     0     986.8    NA       0.0000   9999     3970  0     0    
2019/08/31  08:55:02  BASE  5.9682   117  9.95484  120  -2.1  82    -4.9  0     0     986.8    NA       0.0000   9999     3970  0     0    
2019/08/31  08:56:02  BASE  6.12696  124  9.95484  120  -2.2  82    -4.8  0     0     986.7    NA       0.0000   9999     4000  0     0    
2019/08/31  08:57:02  BASE  5.96232  125  9.95484  120  -2.1  82    -4.8  0     0     986.8    NA       0.0000   9999     4000  0     0    
2019/08/31  08:58:02  BASE  5.34492  110  9.95484  120  -2.1  82    -4.8  0     0     986.8    NA       0.0000   9999     4040  0     0    
2019/08/31  08:59:02  BASE  5.68596  101  8.19672  115  -2.2  82    -4.8  0     0     986.8    NA       0.0000   9999     3940  0     0    
2019/08/31  09:00:02  BASE  6.27396  106  7.62048  108  -2.2  82    -4.7  0     0     986.6    NA       0.0000   9999     3900  0     0    
2019/08/31  09:01:02  BASE  6.42684  113  7.3794   110  -2.1  83    -4.7  0     0     986.6    NA       0.0000   9999     3870  0     0    
2019/08/31  09:02:02  BASE  7.22652  120  8.98464  125  -2.2  83    -4.7  0     0     986.5    NA       0.0000   9999     3870  0     0    
2019/08/31  09:03:02  BASE  8.32608  120  9.408    118  -2.2  83    -4.7  0     0     986.5    NA       0.0000   9999     3840  0     0    
2019/08/31  09:04:02  BASE  8.15556  115  9.408    118  -2.1  83    -4.6  0     0     986.6    NA       0.0000   9999     3870  0     0    
2019/08/31  09:05:03  BASE  7.78512  114  9.408    118  -2.1  83    -4.6  0     0     986.6    NA       0.0000   9999     3870  0     0    
2019/08/31  09:06:02  BASE  7.42056  114  9.408    118  -2.0  82    -4.6  0     0     986.6    NA       0.0000   9999     3900  0     0    
2019/08/31  09:07:02  BASE  6.37392  117  9.408    118  -2.0  82    -4.6  0     0     986.5    NA       0.0000   9999     3810  0     0    
2019/08/31  09:08:02  BASE  6.70908  118  9.408    118  -1.9  82    -4.7  0     0     986.4    NA       0.0000   9999     3770  0     0    
2019/08/31  09:09:02  BASE  8.44956  116  10.4958  117  -1.9  81    -4.7  0     0     986.3    NA       0.0000   9999     3870  0     0    
2019/08/31  09:10:02  BASE  9.60204  115  10.4958  117  -1.8  80    -4.8  0     0     986.3    NA       0.0000   9999     3840  0     0    
2019/08/31  09:11:02  BASE  7.95564  115  10.4958  117  -1.8  80    -4.8  0     0     986.5    NA       0.0000   9999     3710  0     0    
2019/08/31  09:12:02  BASE  7.25004  116  10.4958  117  -1.8  79    -4.9  0     0     986.4    NA       0.0000   9999     3670  0     0    
2019/08/31  09:13:02  BASE  8.2614   114  10.4958  117  -1.8  79    -4.9  0     0     986.4    NA       0.0000   9999     3710  0     0    
2019/08/31  09:14:02  BASE  8.04384  109  10.4958  117  -1.8  79    -5.0  0     0     986.4    NA       0.0000   9999     3640  0     0    
2019/08/31  09:15:02  BASE  7.87332  108  10.4958  117  -1.8  79    -5.0  0     0     986.4    NA       0.0000   9999     3670  0     0    
2019/08/31  09:16:03  BASE  7.60284  110  10.4958  117  -1.9  79    -5.0  0     0     986.4    NA       0.0000   9999     3640  0     0    
2019/08/31  09:17:02  BASE  8.12028  110  10.4958  117  -2.0  80    -5.0  0     0     986.4    NA       0.0000   9999     3670  0     0    
2019/08/31  09:18:02  BASE  8.72592  109  10.4958  117  -2.0  80    -5.0  0     0     986.4    NA       0.0000   9999     3770  0     0    
2019/08/31  09:19:02  BASE  8.27316  110  10.4664  115  -2.1  81    -5.0  0     0     986.4    NA       0.0000   9999     3900  0     0    
2019/08/31  09:20:02  BASE  8.33784  112  9.4374   113  -2.1  81    -4.9  0     0     986.3    NA       0.0000   9999     3870  0     0    
2019/08/31  09:21:02  BASE  8.62008  111  9.4374   113  -2.1  81    -4.9  0     0     986.3    NA       0.0000   9999     3740  0     0    
2019/08/31  09:22:02  BASE  8.36136  112  9.4374   113  -2.1  82    -4.8  0     0     986.3    NA       0.0000   9999     3740  0     0    
2019/08/31  09:23:02  BASE  8.1438   115  9.4374   113  -2.1  82    -4.8  0     0     986.4    NA       0.0000   9999     3710  0     0    
2019/08/31  09:24:02  BASE  7.66752  114  9.4374   113  -2.1  82    -4.7  0     0     986.4    NA       0.0000   9999     3610  0     0    
2019/08/31  09:25:02  BASE  7.35588  114  9.4374   113  -2.0  82    -4.7  0     0     986.4    NA       0.0000   9999     3610  0     0    
2019/08/31  09:26:02  BASE  7.29708  112  9.4374   113  -2.0  82    -4.7  0     0     986.4    NA       0.0000   9999     3740  0     0    
2019/08/31  09:27:02  BASE  7.3794   110  9.4374   113  -2.0  82    -4.7  0     0     986.5    NA       0.0000   9999     3350  0     0    
2019/08/31  09:28:02  BASE  7.54404  118  9.4374   113  -1.9  82    -4.7  0     0     986.4    NA       0.0000   9999     3480  0     0    
2019/08/31  09:29:03  BASE  7.6146   128  9.4374   113  -1.9  81    -4.7  0     0     986.3    NA       0.0000   9999     3450  0     0    
2019/08/31  09:30:02  BASE  7.96152  132  8.98464  106  -1.9  81    -4.7  0     0     986.2    NA       0.0000   9999     3180  0     0    
2019/08/31  09:31:02  BASE  8.39076  136  9.86076  139  -2.0  81    -4.8  0     0     986.0    NA       0.0000   9999     3380  0     0    
2019/08/31  09:32:02  BASE  9.07872  141  10.043   141  -2.0  81    -4.8  0     0     986.0    NA       0.0000   9999     3250  0     0    
2019/08/31  09:33:02  BASE  9.65496  140  10.9192  139  -2.1  82    -4.8  0     0     986.0    NA       0.0000   9999     3310  0     0    
2019/08/31  09:34:02  BASE  9.25512  136  10.9192  139  -2.1  82    -4.8  0     0     986.2    NA       0.0000   9999     3280  0     0    
2019/08/31  09:35:02  BASE  8.62596  131  10.9192  139  -2.1  82    -4.8  0     0     986.2    NA       0.0000   9999     3250  0     0    
2019/08/31  09:36:01  BASE  8.3496   129  10.9192  139  -2.1  82    -4.8  0     0     986.2    NA       0.0000   9999     3250  0     0    
2019/08/31  09:37:02  BASE  7.70868  129  10.9192  139  -2.1  82    -4.8  0     0     986.2    NA       0.0000   9999     3120  0     0    
2019/08/31  09:38:01  BASE  7.25592  130  10.9192  139  -2.1  82    -4.8  0     0     986.3    NA       0.0000   9999     3120  0     0    
2019/08/31  09:39:02  BASE  6.99132  131  10.9192  139  -2.1  82    -4.8  0     0     986.3    NA       0.0000   9999     3080  0     0    
2019/08/31  09:40:02  BASE  6.06228  134  10.9192  139  -2.1  82    -4.8  0     0     986.4    NA       0.0000   9999     3180  0     0    
2019/08/31  09:41:02  BASE  5.36256  133  10.9192  139  -2.1  82    -4.7  0     0     986.3    NA       0.0000   9999     3250  0     0    
2019/08/31  09:42:01  BASE  6.19752  129  10.9192  139  -2.1  82    -4.7  0     0     986.2    NA       0.0000   9999     3080  0     0    
2019/08/31  09:43:02  BASE  7.5264   125  10.2253  133  -2.1  83    -4.7  0     0     986.1    NA       0.0000   9999     3120  0     0    
2019/08/31  09:44:02  BASE  8.01444  126  9.59028  126  -2.1  83    -4.6  0     0     986.0    NA       0.0000   9999     2990  0     0    
2019/08/31  09:45:02  BASE  8.80824  125  10.6193  121  -2.0  83    -4.6  0     0     986.0    NA       0.0000   9999     2720  0     0    
2019/08/31  09:46:02  BASE  8.83176  124  10.6193  121  -2.0  82    -4.6  0     0     986.1    NA       0.0000   9999     2820  0     0    
2019/08/31  09:47:02  BASE  7.938    128  10.6193  121  -2.0  82    -4.6  0     0     986.1    NA       0.0000   9999     3050  0     0    
2019/08/31  09:48:02  BASE  7.6734   124  10.6193  121  -1.9  82    -4.7  0     0     986.1    NA       0.0000   9999     3020  0     0    
2019/08/31  09:49:02  BASE  6.39156  130  10.6193  121  -1.9  81    -4.7  0     0     986.1    NA       0.0000   9999     3020  0     0    
2019/08/31  09:50:02  BASE  6.49152  139  10.6193  121  -1.8  80    -4.8  0     0     986.0    NA       0.0000   9999     3050  0     0    
2019/08/31  09:51:02  BASE  7.92624  133  10.6193  121  -1.8  80    -4.8  0     0     986.0    NA       0.0000   9999     3280  0     0    
2019/08/31  09:52:02  BASE  7.79688  131  10.6193  121  -1.9  80    -4.9  0     0     986.0    NA       0.0000   9999     3310  0     0    
2019/08/31  09:53:03  BASE  7.2912   127  10.6193  121  -1.9  79    -5.0  0     0     986.1    NA       0.0000   9999     3150  0     0    
2019/08/31  09:54:02  BASE  6.91488  119  10.6193  121  -2.0  79    -5.0  0     0     986.1    NA       0.0000   9999     3080  0     0    
2019/08/31  09:55:02  BASE  7.03836  115  9.61968  106  -2.0  80    -5.1  0     0     986.1    NA       0.0000   9999     2950  0     0    
2019/08/31  09:56:02  BASE  7.35     112  9.61968  106  -2.0  80    -5.1  0     0     986.1    NA       0.0000   9999     3250  0     0    
2019/08/31  09:57:02  BASE  6.6444   113  9.61968  106  -2.0  80    -5.0  0     0     986.0    NA       0.0000   9999     3450  0     0    
2019/08/31  09:58:02  BASE  5.93292  114  8.98464  124  -2.0  80    -5.0  0     0     986.0    NA       0.0000   9999     3480  0     0    
2019/08/31  09:59:02  BASE  5.97996  118  8.98464  124  -2.0  80    -5.0  0     0     986.0    NA       0.0000   9999     3280  0     0    
2019/08/31  10:00:02  BASE  6.0858   124  8.77296  129  -2.0  80    -5.1  0     0     986.0    NA       0.0000   9999     3120  0     0    
2019/08/31  10:01:02  BASE  6.63264  122  8.25552  116  -2.0  80    -5.0  0     0     986.0    NA       0.0000   9999     3410  0     0    
2019/08/31  10:02:02  BASE  6.63264  117  8.25552  116  -2.0  80    -5.0  0     0     986.0    NA       0.0000   9999     3080  0     0    
2019/08/31  10:03:01  BASE  5.97996  116  8.25552  116  -2.0  80    -5.0  0     0     986.1    NA       0.0000   9999     2990  0     0    
2019/08/31  10:04:02  BASE  5.92704  117  8.25552  116  -2.0  80    -5.0  0     0     986.0    NA       0.0000   9999     3250  0     0    
2019/08/31  10:05:03  BASE  5.80356  119  8.25552  116  -1.9  80    -4.9  0     0     986.0    NA       0.0000   9999     3150  0     0    
2019/08/31  10:06:02  BASE  5.65068  118  7.71456  115  -1.9  80    -4.9  0     0     986.0    NA       0.0000   9999     3080  0     0    
2019/08/31  10:07:02  BASE  6.12696  116  7.71456  115  -2.0  80    -4.9  0     0     986.0    NA       0.0000   9999     3250  0     0    
2019/08/31  10:08:03  BASE  6.7326   117  7.71456  115  -2.0  80    -5.0  0     0     986.0    NA       0.0000   9999     3050  0     0    
2019/08/31  10:09:02  BASE  7.2324   119  7.74396  119  -2.0  80    -5.0  0     0     986.0    NA       0.0000   9999     3050  0     0    
2019/08/31  10:10:02  BASE  6.9972   120  7.74396  119  -1.9  80    -4.9  0     0     986.0    NA       0.0000   9999     2920  0     0    
2019/08/31  10:11:02  BASE  6.63264  120  7.74396  119  -1.9  80    -4.9  0     0     985.9    NA       0.0000   9999     3050  0     0    
2019/08/31  10:12:02  BASE  6.0858   117  7.74396  119  -1.7  80    -4.8  0     0     986.0    NA       0.0000   9999     3150  0     0    
2019/08/31  10:13:02  BASE  6.39744  105  8.2908   89   -1.6  79    -4.7  0     0     986.0    NA       0.0000   9999     3080  3610  0    
2019/08/31  10:14:02  BASE  6.33276  105  8.2908   89   -1.5  78    -4.8  0     0     986.0    NA       0.0000   9999     3280  0     0    
2019/08/31  10:15:02  BASE  6.13284  116  8.2908   89   -1.5  78    -4.8  0     0     986.0    NA       0.0000   9999     3020  0     0    
2019/08/31  10:16:02  BASE  6.94428  117  8.2908   89   -1.4  77    -4.9  0     0     986.0    NA       0.0000   9999     2920  0     0    
2019/08/31  10:17:03  BASE  7.4676   114  8.80236  111  -1.6  77    -5.1  0     0     985.9    NA       0.0000   9999     3020  3670  0    
2019/08/31  10:18:02  BASE  7.21476  116  8.80236  111  -1.7  76    -5.3  0     0     986.0    NA       0.0000   9999     2950  0     0    
2019/08/31  10:19:02  BASE  6.16224  116  8.80236  111  -1.7  77    -5.3  0     0     986.0    NA       0.0000   9999     2990  0     0    
2019/08/31  10:20:02  BASE  5.50956  111  8.80236  111  -1.7  77    -5.3  0     0     986.1    NA       0.0000   9999     3120  0     0    
2019/08/31  10:21:02  BASE  5.23908  103  8.80236  111  -1.8  77    -5.3  0     0     986.2    NA       0.0000   9999     3450  0     0    
2019/08/31  10:22:02  BASE  5.27436  105  8.80236  111  -1.8  77    -5.3  0     0     986.1    NA       0.0000   9999     3350  0     0    
2019/08/31  10:23:02  BASE  5.3508   115  8.80236  111  -1.8  78    -5.2  0     0     986.0    NA       0.0000   9999     3050  0     0    
2019/08/31  10:24:02  BASE  5.37432  112  8.80236  111  -1.8  78    -5.2  0     0     986.1    NA       0.0000   9999     2850  0     0    
2019/08/31  10:25:02  BASE  5.51544  90   8.80236  111  -1.9  78    -5.2  0     0     986.2    NA       0.0000   9999     2990  0     0    
2019/08/31  10:26:02  BASE  5.80356  84   8.80236  111  -1.9  78    -5.1  0     0     986.1    NA       0.0000   9999     3180  0     0    
2019/08/31  10:27:02  BASE  6.42096  102  7.74396  120  -1.9  78    -5.2  0     0     986.0    NA       0.0000   9999     3410  0     0    
2019/08/31  10:28:02  BASE  6.86784  115  7.71456  111  -1.9  78    -5.2  0     0     985.9    NA       0.0000   9999     3380  0     0    
2019/08/31  10:29:02  BASE  6.7914   117  7.71456  111  -1.9  78    -5.2  0     0     986.0    NA       0.0000   9999     2890  0     0    
2019/08/31  10:30:02  BASE  6.70908  111  7.71456  111  -1.9  78    -5.2  0     0     986.0    NA       0.0000   9999     3150  0     0    
2019/08/31  10:31:02  BASE  7.1442   101  9.4374   102  -1.9  78    -5.2  0     0     986.0    NA       0.0000   9999     2990  0     0    
2019/08/31  10:32:03  BASE  8.01444  103  9.4668   100  -1.9  78    -5.2  0     0     986.0    NA       0.0000   9999     3310  0     0    
2019/08/31  10:33:02  BASE  7.76748  116  9.4668   100  -1.9  78    -5.2  0     0     986.0    NA       0.0000   9999     3250  0     0    
2019/08/31  10:34:02  BASE  6.95016  120  9.4668   100  -2.0  79    -5.2  0     0     986.0    NA       0.0000   9999     2950  0     0    
2019/08/31  10:35:02  BASE  7.15008  111  9.59028  103  -2.0  79    -5.2  0     0     986.0    NA       0.0000   9999     3180  0     0    
2019/08/31  10:36:02  BASE  8.13792  104  9.91956  103  -2.0  79    -5.2  0     0     985.9    NA       0.0000   9999     3220  0     0    
2019/08/31  10:37:01  BASE  7.57932  108  9.91956  103  -2.0  79    -5.1  0     0     986.0    NA       0.0000   9999     3050  0     0    
2019/08/31  10:38:02  BASE  7.36764  114  9.91956  103  -2.0  79    -5.2  0     0     985.8    NA       0.0000   9999     3280  0     0    
2019/08/31  10:39:02  BASE  8.42016  116  9.91956  103  -2.0  79    -5.1  0     0     985.7    NA       0.0000   9999     2990  0     0    
2019/08/31  10:40:02  BASE  8.15556  116  9.91956  103  -1.9  79    -5.1  0     0     985.8    NA       0.0000   9999     2990  0     0    
2019/08/31  10:41:02  BASE  8.29668  117  9.98424  117  -1.8  78    -5.1  0     0     985.7    NA       0.0000   9999     2590  0     0    
2019/08/31  10:42:02  BASE  8.72592  122  9.98424  117  -1.7  77    -5.1  0     0     985.7    NA       0.0000   9999     2620  0     0    
2019/08/31  10:43:02  BASE  8.4672   122  9.98424  117  -1.6  76    -5.2  0     0     985.7    NA       0.0000   9999     2660  0     0    
2019/08/31  10:44:01  BASE  7.42056  128  9.98424  117  -1.5  76    -5.1  0     0     985.8    NA       0.0000   9999     2950  0     0    
2019/08/31  10:45:02  BASE  7.06776  134  9.98424  117  -1.4  76    -5.2  0     0     985.8    NA       0.0000   9999     2920  0     0    
2019/08/31  10:46:01  BASE  7.6734   130  9.98424  117  -1.5  76    -5.3  0     0     985.8    NA       0.0000   9999     2820  0     0    
2019/08/31  10:47:02  BASE  7.68516  129  9.98424  117  -1.6  76    -5.2  0     0     985.8    NA       0.0000   9999     2850  0     0    
2019/08/31  10:48:02  BASE  7.00308  126  9.98424  117  -1.6  77    -5.1  0     0     985.8    NA       0.0000   9999     2400  0     0    
2019/08/31  10:49:01  BASE  7.0854   125  9.98424  117  -1.7  77    -5.2  0     0     985.7    NA       0.0000   9999     2460  0     0    
2019/08/31  10:50:02  BASE  8.1732   119  9.98424  117  -1.7  77    -5.2  0     0     985.7    NA       0.0000   9999     2460  0     0    
2019/08/31  10:51:02  BASE  7.62636  118  9.80196  111  -1.6  78    -4.9  0     0     985.7    NA       0.0000   9999     2620  0     0    
2019/08/31  10:52:01  BASE  8.12028  122  10.6487  120  -1.4  78    -4.7  0     0     985.7    NA       0.0000   9999     2690  0     0    
2019/08/31  10:53:01  BASE  8.63184  121  10.6487  120  -1.3  78    -4.7  0     0     985.8    NA       0.0000   9999     2660  0     0    
2019/08/31  10:54:02  BASE  7.46172  115  10.6487  120  -1.3  78    -4.7  0     0     985.9    NA       0.0000   9999     1180  0     0    
2019/08/31  10:55:02  BASE  7.1148   116  10.6487  120  -1.3  78    -4.7  0     0     985.9    NA       0.0000   9999     2790  0     0    
2019/08/31  10:56:01  BASE  7.63812  119  10.6487  120  -1.5  77    -4.9  0     0     985.8    NA       0.0000   9999     2890  0     0    
2019/08/31  10:57:02  BASE  7.7616   120  10.6487  120  -1.7  77    -5.1  0     0     985.8    NA       0.0000   9999     2950  0     0    
2019/08/31  10:58:02  BASE  7.42056  118  10.6487  120  -1.7  78    -5.1  0     0     985.9    NA       0.0000   9999     2850  0     0    
2019/08/31  10:59:02  BASE  7.15596  113  10.6487  120  -1.8  78    -5.0  0     0     985.8    NA       0.0000   9999     2620  0     0    
2019/08/31  11:00:02  BASE  7.07952  114  10.6487  120  -1.7  79    -4.9  0     0     985.7    NA       0.0000   9999     2660  0     0    
2019/08/31  11:01:02  BASE  8.06736  115  10.6487  120  -1.6  79    -4.8  0     0     985.7    NA       0.0000   9999     2760  0     0    
2019/08/31  11:02:01  BASE  8.76708  119  9.61968  116  -1.6  79    -4.8  0     0     985.7    NA       0.0000   9999     2760  0     0    
2019/08/31  11:03:02  BASE  8.81412  117  9.61968  116  -1.6  79    -4.8  0     0     985.8    NA       0.0000   9999     2720  0     0    
2019/08/31  11:04:02  BASE  8.3496   111  9.61968  116  -1.6  79    -4.8  0     0     985.8    NA       0.0000   9999     2620  0     0    
2019/08/31  11:05:03  BASE  7.60872  114  9.61968  116  -1.6  79    -4.8  0     0     985.8    NA       0.0000   9999     2720  0     0    
2019/08/31  11:06:02  BASE  7.0854   113  9.5256   120  -1.6  78    -4.9  0     0     985.9    NA       0.0000   9999     2660  0     0    
2019/08/31  11:07:02  BASE  7.15596  112  9.5256   120  -1.7  78    -4.9  0     0     985.8    NA       0.0000   9999     2760  0     0    
2019/08/31  11:08:02  BASE  7.09128  119  9.5256   120  -1.7  79    -4.9  0     0     985.8    NA       0.0000   9999     2720  0     0    
2019/08/31  11:09:02  BASE  7.40292  124  9.98424  116  -1.7  79    -5.0  0     0     985.7    NA       0.0000   9999     2790  0     0    
2019/08/31  11:10:02  BASE  8.7318   119  9.98424  118  -1.8  79    -5.0  0     0     985.7    NA       0.0000   9999     2760  0     0    
2019/08/31  11:11:01  BASE  8.5554   114  9.98424  118  -1.9  79    -5.0  0     0     985.8    NA       0.0000   9999     2620  0     0    
2019/08/31  11:12:02  BASE  7.7322   111  9.98424  118  -1.9  80    -5.0  0     0     985.8    NA       0.0000   9999     2620  3380  0    
2019/08/31  11:13:02  BASE  7.77336  107  9.98424  118  -1.9  80    -5.0  0     0     985.8    NA       0.0000   9999     2820  0     0    
2019/08/31  11:14:02  BASE  7.63224  109  9.98424  118  -1.9  80    -4.9  0     0     985.8    NA       0.0000   9999     2720  0     0    
2019/08/31  11:15:02  BASE  6.72672  113  9.98424  118  -1.9  80    -4.9  0     0     985.9    NA       0.0000   9999     2620  0     0    
2019/08/31  11:16:02  BASE  5.63304  116  9.98424  118  -1.8  79    -4.9  1     0     985.9    NA       0.0000   9999     2590  0     0    
2019/08/31  11:17:02  BASE  5.59776  119  9.98424  118  -1.8  79    -5.0  1     0     985.9    NA       0.0000   9999     2560  0     0    
2019/08/31  11:18:02  BASE  5.97996  116  9.98424  118  -1.8  79    -5.0  1     0     985.9    NA       0.0000   9999     2660  0     0    
2019/08/31  11:19:01  BASE  6.05052  115  9.98424  118  -1.9  79    -5.0  1     0     985.9    NA       0.0000   9999     2560  0     0    
2019/08/31  11:20:01  BASE  5.89764  123  8.77296  112  -1.9  80    -5.0  1     0     985.9    NA       0.0000   9999     2720  0     0    
2019/08/31  11:21:02  BASE  5.10972  130  8.77296  112  -1.9  80    -4.9  1     0     985.9    NA       0.0000   9999     2660  0     0    
2019/08/31  11:22:01  BASE  4.03368  136  8.53188  100  -2.0  80    -4.9  1     0     985.9    NA       0.0000   9999     2660  0     0    
2019/08/31  11:23:02  BASE  3.36924  135  8.379    112  -1.9  81    -4.8  1     0     986.0    NA       0.0000   9999     2560  0     0    
2019/08/31  11:24:02  BASE  3.62796  121  6.59148  122  -1.9  81    -4.8  1     0     986.0    NA       0.0000   9999     2560  0     0    
2019/08/31  11:25:02  BASE  3.78084  105  6.59148  122  -1.8  81    -4.7  1     0     986.0    NA       0.0000   9999     2590  0     0    
2019/08/31  11:26:02  BASE  3.83376  114  6.59148  122  -1.8  81    -4.6  1     0     986.0    NA       0.0000   9999     2620  0     0    
2019/08/31  11:27:02  BASE  4.86276  130  6.59148  122  -1.7  81    -4.6  1     0     986.0    NA       0.0000   9999     2590  0     0    
2019/08/31  11:28:02  BASE  5.66832  135  6.59148  122  -1.7  81    -4.6  1     0     985.9    NA       0.0000   9999     2590  0     0    
2019/08/31  11:29:02  BASE  5.92704  137  6.53268  136  -1.8  81    -4.6  1     0     986.0    NA       0.0000   9999     2660  0     0    
2019/08/31  11:30:02  BASE  5.70948  138  6.53268  136  -1.8  81    -4.6  1     0     986.0    NA       0.0000   9999     1050  0     0    
2019/08/31  11:31:01  BASE  5.09796  142  6.53268  136  -1.9  82    -4.6  1     0     986.0    NA       0.0000   9999     2530  0     0    
2019/08/31  11:32:02  BASE  4.80396  147  6.53268  136  -1.9  82    -4.6  1     0     986.0    NA       0.0000   9999     2560  0     0    
2019/08/31  11:33:02  BASE  4.46292  138  6.53268  136  -1.9  82    -4.6  1     0     986.0    NA       0.0000   9999     2530  0     0    
2019/08/31  11:34:02  BASE  4.00428  125  6.53268  136  -1.9  82    -4.5  2     0     986.0    NA       0.0000   9999     2990  0     0    
2019/08/31  11:35:02  BASE  3.9396   122  6.53268  136  -1.9  82    -4.5  2     0     986.0    NA       0.0000   9999     2660  0     0    
2019/08/31  11:36:02  BASE  4.12776  115  6.53268  136  -1.8  83    -4.4  2     0     986.0    NA       0.0000   9999     2590  0     0    
2019/08/31  11:37:02  BASE  4.60404  105  6.53268  136  -1.7  83    -4.2  2     0     986.0    NA       0.0000   9999     2660  0     0    
2019/08/31  11:38:02  BASE  4.704    113  6.50328  138  -1.7  83    -4.2  2     0     986.0    NA       0.0000   9999     2850  0     0    
2019/08/31  11:39:02  BASE  4.557    127  6.07992  134  -1.7  83    -4.2  2     0     986.0    NA       0.0000   9999     2690  0     0    
2019/08/31  11:40:02  BASE  4.704    131  5.56836  99   -1.8  84    -4.2  2     0     986.0    NA       0.0000   9999     2660  0     0    
2019/08/31  11:41:02  BASE  4.65696  130  5.56836  99   -1.8  84    -4.2  3     0     986.0    NA       0.0000   9999     2660  0     0    
2019/08/31  11:42:02  BASE  4.21008  125  5.56836  99   -1.9  84    -4.1  3     0     986.1    NA       0.0000   9999     2430  0     0    
2019/08/31  11:43:02  BASE  3.60444  116  5.56836  99   -1.9  85    -4.1  3     0     986.1    NA       0.0000   9999     2690  3610  0    
2019/08/31  11:44:02  BASE  4.33356  104  6.07992  94   -1.9  85    -4.1  3     0     986.0    NA       0.0000   9999     2890  0     0    
2019/08/31  11:45:02  BASE  5.50368  96   6.321    90   -1.9  85    -4.1  3     0     986.0    NA       0.0000   9999     2760  0     0    
2019/08/31  11:46:02  BASE  5.33904  97   6.321    90   -1.9  85    -4.1  4     0     986.0    NA       0.0000   9999     2660  0     0    
2019/08/31  11:47:02  BASE  5.00976  99   6.321    90   -1.9  85    -4.0  4     0     986.0    NA       0.0000   9999     2620  0     0    
2019/08/31  11:48:02  BASE  5.15676  93   6.71496  95   -1.9  85    -4.0  4     0     986.0    NA       0.0000   9999     2690  0     0    
2019/08/31  11:49:02  BASE  5.56836  92   6.71496  95   -1.9  86    -4.0  4     0     986.0    NA       0.0000   9999     2660  0     0    
2019/08/31  11:50:02  BASE  5.7918   95   6.71496  95   -1.9  86    -3.9  5     0     986.1    NA       0.0000   9999     2620  0     0    
2019/08/31  11:51:01  BASE  6.04464  95   7.02072  96   -1.9  86    -3.9  5     0     986.0    NA       0.0000   9999     2590  0     0    
2019/08/31  11:52:02  BASE  6.4386   92   7.05012  90   -1.9  86    -3.8  5     0     986.0    NA       0.0000   9999     2560  0     0    
2019/08/31  11:53:01  BASE  6.13872  93   7.05012  90   -1.9  87    -3.8  5     0     986.1    NA       0.0000   9999     2590  0     0    
2019/08/31  11:54:02  BASE  6.37392  91   7.35     89   -1.9  87    -3.8  6     0     986.2    NA       0.0000   9999     2560  0     0    
2019/08/31  11:55:02  BASE  6.50328  91   7.35     89   -1.9  87    -3.8  6     0     986.2    NA       0.0000   9999     2690  0     0    
2019/08/31  11:56:02  BASE  5.47428  98   7.35     89   -1.9  87    -3.8  6     0     986.2    NA       0.0000   9999     2660  0     0    
2019/08/31  11:57:02  BASE  4.65108  105  7.35     89   -2.0  87    -3.9  6     0     986.3    NA       0.0000   9999     2530  0     0    
2019/08/31  11:58:02  BASE  4.11012  112  7.35     89   -2.0  87    -3.9  7     0     986.3    NA       0.0000   9999     2590  0     0    
2019/08/31  11:59:02  BASE  3.73968  119  7.35     89   -2.1  87    -3.9  7     0     986.3    NA       0.0000   9999     2590  0     0    
2019/08/31  12:00:01  BASE  3.21636  120  7.35     89   -2.1  88    -3.8  7     0     986.3    NA       0.0000   9999     2530  0     0    
2019/08/31  12:01:01  BASE  3.34572  109  7.35     89   -2.1  88    -3.8  8     0     986.2    NA       0.0000   9999     2590  0     0    
2019/08/31  12:02:02  BASE  4.4688   98   7.35     89   -2.1  88    -3.8  8     0     986.3    NA       0.0000   9999     2690  0     0    
2019/08/31  12:03:02  BASE  5.36844  95   7.35     89   -2.2  88    -3.9  8     0     986.3    NA       0.0000   9999     2660  0     0    
2019/08/31  12:04:02  BASE  6.3798   95   7.59108  96   -2.3  88    -4.0  9     0     986.2    NA       0.0000   9999     2620  0     0    
2019/08/31  12:05:03  BASE  6.76788  94   7.59108  96   -2.4  88    -4.0  9     0     986.2    NA       0.0000   9999     2590  0     0    
2019/08/31  12:06:02  BASE  6.57384  93   7.59108  96   -2.5  89    -4.1  9     0     986.3    NA       0.0000   9999     2590  0     0    
2019/08/31  12:07:02  BASE  6.72084  93   7.71456  95   -2.5  89    -4.1  10    0     986.3    NA       0.0000   9999     2660  0     0    
2019/08/31  12:08:02  BASE  6.5562   92   7.71456  95   -2.5  89    -4.0  10    0     986.3    NA       0.0000   9999     2560  0     0    
2019/08/31  12:09:02  BASE  6.00936  90   7.71456  95   -2.4  89    -4.0  10    0     986.3    NA       0.0000   9999     2460  0     0    
2019/08/31  12:10:01  BASE  6.00348  91   7.71456  95   -2.4  89    -4.0  11    0     986.3    NA       0.0000   9999     2620  0     0    
2019/08/31  12:11:02  BASE  6.0858   94   7.71456  95   -2.4  89    -3.9  11    0     986.3    NA       0.0000   9999     2490  0     0    
2019/08/31  12:12:02  BASE  5.80944  99   7.71456  95   -2.3  89    -3.9  11    0     986.4    NA       0.0000   9999     2760  0     0    
2019/08/31  12:13:02  BASE  6.06816  105  7.71456  95   -2.3  89    -3.9  12    0     986.3    NA       0.0000   9999     2690  0     0    
2019/08/31  12:14:02  BASE  6.16812  110  7.71456  95   -2.3  89    -3.8  12    0     986.3    NA       0.0000   9999     2890  0     0    
2019/08/31  12:15:02  BASE  5.88588  111  7.71456  95   -2.3  89    -3.8  12    0     986.4    NA       0.0000   9999     1410  0     0    
2019/08/31  12:16:02  BASE  5.88     111  7.71456  95   -2.2  89    -3.8  13    0     986.4    NA       0.0000   9999     2590  0     0    
2019/08/31  12:17:02  BASE  5.87412  110  7.07952  94   -2.2  88    -3.8  13    0     986.4    NA       0.0000   9999     2490  0     0    
2019/08/31  12:18:02  BASE  5.80356  108  6.92664  108  -2.1  88    -3.8  13    0     986.4    NA       0.0000   9999     2430  0     0    
2019/08/31  12:19:02  BASE  5.84472  105  6.92664  108  -2.1  88    -3.9  14    0     986.4    NA       0.0000   9999     2460  0     0    
2019/08/31  12:20:02  BASE  5.35668  101  6.92664  108  -2.0  87    -3.9  14    0     986.5    NA       0.0000   9999     2400  0     0    
2019/08/31  12:21:02  BASE  5.08032  93   6.92664  108  -2.0  87    -4.0  14    0     986.5    NA       0.0000   9999     3020  0     0    
2019/08/31  12:22:02  BASE  4.98624  89   6.92664  108  -2.0  86    -4.0  14    0     986.5    NA       0.0000   9999     2820  0     0    
2019/08/31  12:23:01  BASE  4.45116  92   6.86784  104  -2.1  86    -4.1  15    0     986.5    NA       0.0000   9999     2430  0     0    
2019/08/31  12:24:02  BASE  3.98664  96   6.86784  104  -2.1  86    -4.2  15    0     986.6    NA       0.0000   9999     2590  0     0    
2019/08/31  12:25:01  BASE  3.4398   91   6.86784  104  -2.2  86    -4.2  16    0     986.6    NA       0.0000   9999     2200  0     0    
2019/08/31  12:26:02  BASE  2.98116  85   6.86784  104  -2.3  86    -4.2  17    0     986.6    NA       0.0000   9999     3020  0     0    
2019/08/31  12:27:02  BASE  3.15168  88   6.86784  104  -2.3  87    -4.2  17    0     986.5    NA       0.0000   9999     3050  0     0    
2019/08/31  12:28:01  BASE  3.92196  91   6.83844  106  -2.3  87    -4.1  17    0     986.5    NA       0.0000   9999     2690  3610  0    
2019/08/31  12:29:02  BASE  3.96312  82   5.89764  89   -2.3  87    -4.1  18    0     986.5    NA       0.0000   9999     2430  3410  0    
2019/08/31  12:30:02  BASE  2.66364  49   5.89764  89   -2.2  87    -4.0  18    0     986.6    NA       0.0000   9999     2820  0     0    
2019/08/31  12:31:01  BASE  1.47588  14   5.2626   76   -2.2  88    -3.9  18    0     986.6    NA       0.0000   9999     2660  3250  0    
2019/08/31  12:32:02  BASE  0.71148  3    4.62756  83   -2.1  88    -3.9  18    0     986.6    NA       0.0000   9999     3050  0     0    
2019/08/31  12:33:02  BASE  0.96432  24   4.47468  104  -2.1  88    -3.8  18    0     986.6    NA       0.0000   9999     2400  3080  0    
2019/08/31  12:34:02  BASE  1.92276  36   4.47468  104  -2.1  89    -3.6  19    0     986.6    NA       0.0000   9999     3020  3670  0    
2019/08/31  12:35:02  BASE  2.33436  24   4.47468  104  -2.1  90    -3.5  19    0     986.6    NA       0.0000   9999     2950  0     0    
2019/08/31  12:36:02  BASE  2.56368  13   4.47468  104  -2.2  92    -3.4  19    0     986.6    NA       0.0000   9999     2720  0     0    
2019/08/31  12:37:02  BASE  2.60484  11   4.47468  104  -2.3  93    -3.3  20    0     986.6    NA       0.0000   9999     2460  0     0    
2019/08/31  12:38:02  BASE  2.45784  12   4.41588  61   -2.4  94    -3.2  21    0     986.6    NA       0.0000   9999     2850  0     0    
2019/08/31  12:39:02  BASE  2.03448  10   2.96352  12   -2.4  96    -3.1  21    0     986.6    NA       0.0000   9999     3350  0     0    
2019/08/31  12:40:02  BASE  1.69344  9    2.96352  12   -2.5  97    -2.9  22    0     986.6    NA       0.0000   9999     2720  3310  0    
2019/08/31  12:41:01  BASE  1.63464  8    2.96352  12   -2.5  98    -2.8  22    0     986.6    NA       0.0000   9999     2690  0     0    
2019/08/31  12:42:02  BASE  1.62876  9    2.96352  12   -2.5  99    -2.7  22    0     986.6    NA       0.0000   9999     2660  0     0    
2019/08/31  12:43:02  BASE  1.65816  16   2.96352  12   -2.5  99    -2.6  22    0     986.6    NA       0.0000   9999     2660  0     0    
2019/08/31  12:44:02  BASE  1.7346   25   2.96352  12   -2.5  100   -2.5  23    0     986.6    NA       0.0000   9999     1480  0     0    
2019/08/31  12:45:02  BASE  1.6464   32   2.96352  12   -2.5  100   -2.5  23    0     986.7    NA       0.0000   9999     1510  3050  0    
2019/08/31  12:46:02  BASE  1.5582   30   2.81064  9    -2.5  100   -2.5  23    0     986.7    NA       0.0000   9999     2950  0     0    
2019/08/31  12:47:01  BASE  1.59348  21   2.48136  6    -2.5  100   -2.5  24    0     986.7    NA       0.0000   9999     3410  0     0    
2019/08/31  12:48:02  BASE  1.76988  13   2.058    13   -2.5  100   -2.5  24    0     986.7    NA       0.0000   9999     3380  0     0    
2019/08/31  12:49:02  BASE  1.90512  8    2.1756   360  -2.5  100   -2.5  24    0     986.7    NA       0.0000   8000     620   0     0    
2019/08/31  12:50:02  BASE  2.03448  357  2.42256  277  -2.5  100   -2.5  24    0     986.7    NA       0.0000   6000     0     0     0    
2019/08/31  12:51:02  BASE  2.07564  352  2.42256  277  -2.5  100   -2.5  25    0     986.6    NA       0.0000   UP       6000  2950  0    
2019/08/31  12:52:03  BASE  1.81104  2    2.42256  277  -2.5  100   -2.5  25    0     986.7    NA       0.0000   UP       BR    8000  0    
2019/08/31  12:53:01  BASE  1.89924  6    2.42256  277  -2.5  100   -2.5  25    0     986.7    NA       0.0000   UP       BR    9999  460  
2019/08/31  12:54:02  BASE  2.29908  7    2.63424  360  -2.5  100   -2.5  26    0     986.7    NA       0.0000   UP       BR    9999  0    
2019/08/31  12:55:02  BASE  2.42844  13   2.75184  10   -2.6  100   -2.6  26    0     986.7    NA       0.0000   UP       BR    9000  3220 
2019/08/31  12:56:02  BASE  2.3226   21   2.75184  10   -2.6  100   -2.6  27    0     986.7    NA       0.0000   UP       BR    8000  3080 
2019/08/31  12:57:02  BASE  2.205    21   2.75184  10   -2.6  100   -2.6  27    0     986.7    NA       0.0000   UP       BR    8000  3120 
2019/08/31  12:58:02  BASE  2.1168   20   2.75184  10   -2.7  100   -2.7  28    0     986.7    NA       0.0000   UP       BR    8000  0    
2019/08/31  12:59:02  BASE  2.18736  17   2.81064  11   -2.7  100   -2.7  28    0     986.7    NA       0.0000   UP       BR    7000  2990 
2019/08/31  13:00:02  BASE  2.499    10   2.84592  4    -2.7  100   -2.7  29    0     986.7    NA       0.0000   UP       BR    8000  0    
2019/08/31  13:01:02  BASE  2.5872   8    2.84592  4    -2.8  100   -2.8  29    0     986.7    NA       0.0000   UP       BR    9999  0    
2019/08/31  13:02:02  BASE  2.36376  9    2.84592  4    -2.8  100   -2.8  30    0     986.7    NA       0.0000   UP       BR    9999  0    
2019/08/31  13:03:03  BASE  2.1462   12   2.84592  4    -2.8  100   -2.8  31    0     986.7    NA       0.0000   UP       BR    9000  0    
2019/08/31  13:04:02  BASE  1.90512  18   2.84592  4    -2.8  100   -2.8  32    0     986.7    NA       0.0000   UP       BR    9000  0    
2019/08/31  13:05:03  BASE  1.77576  21   2.84592  4    -2.8  100   -2.8  33    0     986.7    NA       0.0000   UP       BR    8000  0    
2019/08/31  13:06:02  BASE  1.97568  12   2.84592  4    -2.8  100   -2.8  34    0     986.8    NA       0.0000   UP       BR    5000  0    
2019/08/31  13:07:02  BASE  2.1756   1    2.84592  4    -2.9  100   -2.9  34    0     986.8    NA       0.0000   UP       BR    4700  0    
2019/08/31  13:08:02  BASE  2.18148  1    2.84592  4    -2.8  100   -2.8  35    0     986.8    NA       0.0000   UP       BR    5000  0    
2019/08/31  13:09:02  BASE  1.92864  10   2.84592  4    -2.8  100   -2.8  36    0     986.8    NA       0.0000   UP       BR    5000  0    
2019/08/31  13:10:02  BASE  1.55232  15   2.69304  10   -2.8  100   -2.8  37    0     986.8    NA       0.0000   UP       BR    4100  0    
2019/08/31  13:11:01  BASE  1.37004  9    2.54016  211  -2.7  100   -2.7  38    0     986.8    NA       0.0000   UP       BR    3100  0    
2019/08/31  13:12:02  BASE  1.43472  1    2.54016  211  -2.7  100   -2.7  39    0     986.8    NA       0.0000   UP       BR    3300  0    
2019/08/31  13:13:02  BASE  1.54056  358  2.54016  211  -2.7  100   -2.7  39    0     986.8    NA       0.0000   UP       BR    3600  0    
2019/08/31  13:14:02  BASE  1.68168  8    2.54016  211  -2.7  100   -2.7  40    0     986.9    NA       0.0000   UP       BR    3100  0    
2019/08/31  13:15:02  BASE  1.86984  18   2.54016  211  -2.7  100   -2.7  40    0     986.9    NA       0.0000   UP       BR    3000  0    
2019/08/31  13:16:01  BASE  1.89336  22   2.48136  360  -2.7  100   -2.7  41    0     987.0    NA       0.0000   UP       BR    2800  300  
2019/08/31  13:17:02  BASE  1.74048  29   2.48136  360  -2.8  100   -2.8  42    0     987.0    NA       0.0000   UP       BR    2600  260  
2019/08/31  13:18:02  BASE  1.61112  34   2.1462   5    -2.8  100   -2.8  43    0     987.0    NA       0.0000   UP       BR    2600  260  
2019/08/31  13:19:02  BASE  1.5876   37   2.1462   5    -2.8  100   -2.8  43    0     987.0    NA       0.0000   UP       BR    2600  230  
2019/08/31  13:20:02  BASE  1.42296  39   2.1462   5    -2.8  100   -2.8  44    0     987.0    NA       0.0000   UP       BR    2500  0    
2019/08/31  13:21:02  BASE  1.2936   38   2.1462   5    -2.8  100   -2.8  45    0     987.0    NA       0.0000   -SN      BR    2500  0    
2019/08/31  13:22:02  BASE  1.30536  39   2.1462   5    -2.8  100   -2.8  46    0     987.0    NA       0.0000   -SN      BR    2600  230  
2019/08/31  13:23:02  BASE  1.2936   38   2.1462   5    -2.8  100   -2.8  47    0     987.0    NA       0.0000   -SN      BR    2700  230  
2019/08/31  13:24:02  BASE  1.21128  34   2.0874   20   -2.8  100   -2.8  48    0     987.0    NA       0.0000   -SN      BR    2400  0    
2019/08/31  13:25:01  BASE  1.15248  33   2.0874   20   -2.8  100   -2.8  49    0     987.0    NA       0.0000   -SN      BR    2400  0    
2019/08/31  13:26:02  BASE  1.30536  34   1.81692  31   -2.8  100   -2.8  50    0     987.0    NA       0.0000   -SN      BR    2500  230  
2019/08/31  13:27:02  BASE  1.42296  44   1.75224  30   -2.8  100   -2.8  51    0     987.0    NA       0.0000   -SN      BR    2800  260  
2019/08/31  13:28:02  BASE  1.4406   58   1.75224  30   -2.8  100   -2.8  52    0     987.1    NA       0.0000   -SN      BR    2700  230  
2019/08/31  13:29:02  BASE  1.4994   65   1.69344  65   -2.8  100   -2.8  53    0     987.1    NA       0.0000   -SN      BR    2200  0    
2019/08/31  13:30:02  BASE  1.55232  68   1.69344  69   -2.8  100   -2.8  54    0     987.1    NA       0.0000   -SN      BR    2100  0    
2019/08/31  13:31:01  BASE  1.5288   63   1.69344  61   -2.8  100   -2.8  55    0     987.1    NA       0.0000   -SN      BR    2100  0    
2019/08/31  13:32:02  BASE  1.323    49   1.69344  61   -2.8  100   -2.8  55    0     987.1    NA       0.0000   -SN      BR    2300  230  
2019/08/31  13:33:02  BASE  1.24068  39   1.69344  61   -2.8  100   -2.8  56    0     987.1    NA       0.0000   -SN      BR    2300  0    
2019/08/31  13:34:01  BASE  1.53468  43   1.87572  53   -2.8  100   -2.8  57    0     987.1    NA       0.0000   -SN      BR    2400  0    
2019/08/31  13:35:01  BASE  1.7346   54   1.87572  53   -2.8  100   -2.8  57    0     987.1    NA       0.0000   -SN      BR    2800  0    
2019/08/31  13:36:02  BASE  1.62288  61   1.87572  53   -2.8  100   -2.8  57    0     987.1    NA       0.0000   -SN      BR    2400  0    
2019/08/31  13:37:02  BASE  1.39356  60   1.87572  53   -2.8  100   -2.8  58    0     987.1    NA       0.0000   -SN      BR    2300  0    
2019/08/31  13:38:02  BASE  1.24656  54   1.87572  53   -2.8  100   -2.8  58    0     987.1    NA       0.0000   -SN      BR    2400  0    
2019/08/31  13:39:03  BASE  1.19952  52   1.87572  53   -2.8  100   -2.8  58    0     987.0    NA       0.0000   -SN      BR    2300  0    
2019/08/31  13:40:02  BASE  1.24656  66   1.87572  53   -2.8  100   -2.8  58    0     987.1    NA       0.0000   -SN      BR    2400  0    
2019/08/31  13:41:02  BASE  1.53468  91   2.0286   105  -2.8  100   -2.8  58    0     987.1    NA       0.0000   -SN      BR    2200  0    
2019/08/31  13:42:02  BASE  1.65228  98   2.0286   105  -2.8  100   -2.8  58    0     987.1    NA       0.0000   -SN      BR    2200  0    
2019/08/31  13:43:02  BASE  1.51116  87   2.0286   105  -2.8  100   -2.8  58    0     987.1    NA       0.0000   -SN      BR    2200  0    
2019/08/31  13:44:01  BASE  1.6464   81   2.0286   105  -2.8  100   -2.8  58    0     987.1    NA       0.0000   -SN      BR    2200  0    
2019/08/31  13:45:02  BASE  1.75224  87   2.26968  108  -2.8  100   -2.8  58    0     987.1    NA       0.0000   -SN      BR    2400  0    
2019/08/31  13:46:02  BASE  1.72872  84   2.26968  78   -2.8  100   -2.8  58    0     987.1    NA       0.0000   -SN      BR    2400  0    
2019/08/31  13:47:02  BASE  1.95804  82   2.48136  99   -2.8  100   -2.8  58    0     987.1    NA       0.0000   -SN      BR    2100  0    
2019/08/31  13:48:02  BASE  2.07564  92   2.48136  99   -2.8  100   -2.8  58    0     987.1    NA       0.0000   -SN      BR    2100  0    
2019/08/31  13:49:02  BASE  1.7934   100  2.48136  99   -2.7  100   -2.7  58    0     987.2    NA       0.0000   -SN      BR    2100  260  
2019/08/31  13:50:02  BASE  1.48764  101  2.48136  99   -2.7  100   -2.7  59    0     987.2    NA       0.0000   -SN      BR    2300  0    
2019/08/31  13:51:02  BASE  1.5582   100  2.48136  99   -2.7  100   -2.7  59    0     987.2    NA       0.0000   -SN      BR    2000  0    
2019/08/31  13:52:02  BASE  1.617    103  2.48136  99   -2.8  100   -2.8  60    0     987.2    NA       0.0000   -SN      BR    1800  0    
2019/08/31  13:53:02  BASE  1.35828  111  2.48136  99   -2.8  100   -2.8  60    0     987.2    NA       0.0000   -SN      BR    1800  0    
2019/08/31  13:54:03  BASE  1.2054   113  2.48136  99   -2.8  100   -2.8  61    0     987.2    NA       0.0000   -SN      BR    1600  0    
2019/08/31  13:55:02  BASE  1.3818   124  2.48136  99   -2.8  100   -2.8  62    0     987.1    NA       0.0000   -SN      BR    1700  0    
2019/08/31  13:56:02  BASE  1.76988  131  2.84592  109  -2.8  100   -2.8  62    0     987.1    NA       0.0000   -SN      BR    1600  0    
2019/08/31  13:57:02  BASE  2.33436  122  2.99292  121  -2.8  100   -2.8  62    0     987.2    NA       0.0000   -SN      BR    1900  260  
2019/08/31  13:58:02  BASE  3.0576   118  3.59856  111  -2.8  100   -2.8  63    0     987.2    NA       0.0000   -SN      BR    1800  230  
2019/08/31  13:59:02  BASE  3.18108  119  3.59856  111  -2.8  100   -2.8  64    0     987.2    NA       0.0000   -SN      BR    1400  820  
2019/08/31  14:00:02  BASE  2.8224   121  3.59856  111  -2.8  100   -2.8  65    0     987.2    NA       0.0000   -SN      BR    1200  0    
2019/08/31  14:01:01  BASE  2.57544  124  3.59856  111  -2.7  100   -2.7  66    0     987.2    NA       0.0000   -SN      BR    1400  0    
2019/08/31  14:02:02  BASE  2.5284   121  3.59856  111  -2.7  100   -2.7  66    0     987.2    NA       0.0000   -SN      BR    1200  0    
2019/08/31  14:03:02  BASE  2.69304  114  3.59856  111  -2.7  100   -2.7  67    0     987.2    NA       0.0000   -SN      BR    1200  0    
2019/08/31  14:04:01  BASE  2.68128  106  3.59856  111  -2.7  100   -2.7  68    0     987.2    NA       0.0000   -SN      BR    1100  0    
2019/08/31  14:05:03  BASE  2.49312  98   3.59856  111  -2.8  100   -2.8  68    0     987.2    NA       0.0000   -SN      BR    1000  0    
2019/08/31  14:06:02  BASE  2.39316  92   3.59856  111  -2.8  100   -2.8  69    0     987.2    NA       0.0000   -SN      BR    0900  230  
2019/08/31  14:07:02  BASE  2.41668  91   3.59856  111  -2.8  100   -2.8  70    0     987.3    NA       0.0000   -SN      BR    0750  230  
2019/08/31  14:08:02  BASE  2.52252  93   3.2046   114  -2.8  100   -2.8  70    0     987.3    NA       0.0000   -SN      BR    1100  0    
2019/08/31  14:09:02  BASE  2.81064  96   3.26928  94   -2.8  100   -2.8  71    0     987.3    NA       0.0000   +SN      BR    0900  0    
2019/08/31  14:10:02  BASE  2.91648  98   3.26928  94   -2.8  100   -2.8  71    0     987.3    NA       0.0000   +SN      BR    0550  0    
2019/08/31  14:11:02  BASE  2.793    96   3.26928  94   -2.8  100   -2.8  72    0     987.3    NA       0.0000   SN       FZFG  0500  0    
2019/08/31  14:12:02  BASE  2.81652  92   3.26928  94   -2.8  100   -2.8  72    0     987.3    NA       0.0000   SN       FZFG  0550  0    
2019/08/31  14:13:02  BASE  2.77536  87   3.26928  94   -2.8  100   -2.8  72    0     987.3    NA       0.0000   SN       FZFG  0600  0    
2019/08/31  14:14:02  BASE  2.66364  83   3.26928  94   -2.7  100   -2.7  73    0     987.3    NA       0.0000   SN       FZFG  0600  0    
2019/08/31  14:15:02  BASE  2.75772  79   3.26928  94   -2.7  100   -2.7  73    0     987.3    NA       0.0000   SN       FZFG  0750  230  
2019/08/31  14:16:02  BASE  2.80476  74   3.26928  94   -2.7  100   -2.7  74    0     987.3    NA       0.0000   SN       FZFG  1000  230  
2019/08/31  14:17:02  BASE  3.08112  71   4.68636  62   -2.7  100   -2.7  75    0     987.3    NA       0.0000   SN       FZFG  0700  0    
2019/08/31  14:18:02  BASE  4.53936  65   6.59148  66   -2.7  100   -2.7  76    0     987.3    NA       0.0000   +SN      FZFG  0550  0    
2019/08/31  14:19:02  BASE  6.03288  61   6.86784  59   -2.8  100   -2.8  77    0     987.3    NA       0.0000   +SN      FZFG  0500  0    
2019/08/31  14:20:02  BASE  6.20928  63   6.86784  59   -2.9  100   -2.9  78    0     987.3    NA       0.0000   +SN      FZFG  0650  0    
2019/08/31  14:21:02  BASE  5.77416  65   6.86784  59   -3.0  100   -3.0  79    0     987.3    NA       0.0000   +SN      FZFG  0900  300  
2019/08/31  14:22:02  BASE  5.6742   70   6.86784  59   -3.0  100   -3.0  80    0     987.3    NA       0.0000   SN       FZFG  0800  0    
2019/08/31  14:23:02  BASE  6.13284  74   7.3206   73   -3.1  100   -3.1  80    0     987.3    NA       0.0000   SN       FZFG  0800  0    
2019/08/31  14:24:01  BASE  6.51504  73   7.3794   74   -3.1  100   -3.1  81    0     987.3    NA       0.0000   SN       FZFG  1400  300  
2019/08/31  14:25:02  BASE  6.12696  69   7.3794   74   -3.1  100   -3.1  81    0     987.3    NA       0.0000   SN       FZFG  1800  300  
2019/08/31  14:26:01  BASE  5.56836  64   7.3794   74   -3.1  100   -3.1  81    0     987.3    NA       0.0000   SN       FZFG  1900  330  
2019/08/31  14:27:02  BASE  5.06856  65   7.3794   74   -3.0  100   -3.0  82    0     987.3    NA       0.0000   -SN      BR    2000  0    
2019/08/31  14:28:02  BASE  4.52172  74   7.3794   74   -3.0  100   -3.0  81    0     987.3    NA       0.0000   SN       BR    1800  0    
2019/08/31  14:29:01  BASE  5.0568   84   7.3794   74   -3.0  100   -3.0  81    0     987.3    NA       0.0000   -SN      BR    2000  0    
2019/08/31  14:30:01  BASE  5.59188  87   7.3794   74   -3.0  100   -3.0  81    0     987.3    NA       0.0000   -SN      BR    1600  0    
2019/08/31  14:31:02  BASE  5.79768  92   7.3794   74   -3.0  100   -3.0  81    0     987.3    NA       0.0000   -SN      BR    1500  0    
2019/08/31  14:32:02  BASE  6.24456  98   7.3794   74   -2.9  100   -2.9  80    0     987.3    NA       0.0000   -SN      BR    1700  0    
2019/08/31  14:33:02  BASE  6.0858   100  7.3794   74   -2.9  100   -2.9  79    0     987.3    NA       0.0000   -SN      BR    1400  0    
2019/08/31  14:34:02  BASE  5.91528  103  7.2324   105  -2.9  100   -2.9  79    0     987.3    NA       0.0000   -SN      BR    1300  0    
2019/08/31  14:35:02  BASE  5.9388   105  7.2324   105  -2.9  100   -2.9  79    0     987.3    NA       0.0000   -SN      BR    1600  0    
2019/08/31  14:36:02  BASE  5.83884  106  7.2324   105  -2.9  100   -2.9  78    0     987.3    NA       0.0000   -SN      BR    2000  300  
2019/08/31  14:37:02  BASE  6.07992  108  7.2324   105  -2.9  100   -2.9  78    0     987.2    NA       0.0000   -SN      BR    2100  0    
2019/08/31  14:38:02  BASE  6.1152   112  7.2324   105  -2.9  100   -2.9  79    0     987.3    NA       0.0000   -SN      BR    2000  0    
2019/08/31  14:39:02  BASE  5.76828  112  7.2324   105  -2.8  100   -2.8  79    0     987.3    NA       0.0000   -SN      BR    2200  300  
2019/08/31  14:40:01  BASE  5.78592  109  7.2324   105  -2.8  100   -2.8  80    0     987.3    NA       0.0000   -SN      BR    2200  0    
2019/08/31  14:41:01  BASE  6.21516  107  7.10892  107  -2.8  100   -2.8  80    0     987.3    NA       0.0000   -SN      BR    2400  0    
2019/08/31  14:42:02  BASE  6.4092   110  7.10892  107  -2.8  100   -2.8  81    0     987.3    NA       0.0000   -SN      BR    2100  0    
2019/08/31  14:43:02  BASE  6.60912  114  7.3206   119  -2.8  100   -2.8  82    0     987.3    NA       0.0000   -SN      BR    2000  0    
2019/08/31  14:44:02  BASE  6.72672  117  7.3206   119  -2.8  100   -2.8  83    0     987.3    NA       0.0000   -SN      BR    2100  0    
2019/08/31  14:45:02  BASE  6.10344  113  7.3206   119  -2.8  100   -2.8  84    0     987.4    NA       0.0000   -SN      BR    2000  0    
2019/08/31  14:46:02  BASE  5.52132  108  7.3206   119  -2.8  100   -2.8  86    0     987.4    NA       0.0000   -SN      BR    2300  0    
2019/08/31  14:47:01  BASE  5.55072  108  7.3206   119  -2.8  100   -2.8  87    0     987.3    NA       0.0000   -SN      BR    2300  0    
2019/08/31  14:48:02  BASE  5.73888  111  7.3206   119  -2.7  100   -2.7  88    0     987.3    NA       0.0000   -SN      BR    2200  0    
2019/08/31  14:49:02  BASE  5.25084  114  7.3206   119  -2.7  100   -2.7  90    0     987.4    NA       0.0000   -SN      BR    2000  0    
2019/08/31  14:50:01  BASE  4.50996  119  7.3206   119  -2.7  100   -2.7  92    0     987.4    NA       0.0000   -SN      BR    2100  0    
2019/08/31  14:51:02  BASE  4.3512   122  7.3206   119  -2.7  100   -2.7  94    0     987.3    NA       0.0000   -SN      BR    2200  0    
2019/08/31  14:52:02  BASE  4.3512   120  7.3206   119  -2.7  100   -2.7  95    0     987.4    NA       0.0000   -SN      BR    2600  0    
2019/08/31  14:53:02  BASE  4.27476  121  6.89724  121  -2.7  100   -2.7  97    0     987.4    NA       0.0000   -SN      BR    2700  0    
2019/08/31  14:54:01  BASE  4.10424  126  6.62676  117  -2.7  100   -2.7  98    0     987.4    NA       0.0000   -SN      BR    2100  0    
2019/08/31  14:55:02  BASE  3.65736  130  6.2034   112  -2.7  100   -2.7  101   0     987.4    NA       0.0000   -SN      BR    2000  0    
2019/08/31  14:56:02  BASE  3.30456  135  6.2034   112  -2.7  100   -2.7  102   0     987.4    NA       0.0000   -SN      BR    2300  0    
2019/08/31  14:57:01  BASE  3.01644  137  6.2034   112  -2.7  100   -2.7  105   0     987.4    NA       0.0000   -SN      BR    3500  0    
2019/08/31  14:58:01  BASE  2.66952  131  5.3214   112  -2.7  100   -2.7  107   0     987.4    NA       0.0000   -SN      BR    3400  20600
2019/08/31  14:59:02  BASE  2.82828  126  4.80984  113  -2.7  100   -2.7  109   0     987.4    NA       0.0000   -SN      BR    2900  0    
2019/08/31  15:00:02  BASE  3.48684  124  4.80984  113  -2.7  100   -2.7  111   0     987.4    NA       0.0000   -SN      BR    4900  390  
2019/08/31  15:01:02  BASE  3.78672  129  4.56876  127  -2.6  100   -2.6  114   0     987.4    NA       0.0000   -SN      BR    3700  23790
2019/08/31  15:02:02  BASE  3.74556  135  4.47468  126  -2.6  100   -2.6  115   0     987.4    NA       0.0000   -SN      BR    3900  0    
2019/08/31  15:03:02  BASE  3.7338   136  4.41588  128  -2.6  100   -2.6  116   0     987.4    NA       0.0000   -SN      BR    9999  0    
2019/08/31  15:04:02  BASE  3.81612  137  4.41588  133  -2.6  100   -2.6  117   0     987.4    NA       0.0000   -SN      BR    9999  0    
2019/08/31  15:05:04  BASE  4.06896  137  4.93332  129  -2.6  100   -2.6  118   0     987.4    NA       0.0000   -SN      BR    9000  0    
2019/08/31  15:06:02  BASE  4.19244  135  4.93332  129  -2.6  100   -2.6  118   0     987.5    NA       0.0000   -SN      BR    6000  0    
2019/08/31  15:07:01  BASE  3.95136  136  4.93332  129  -2.6  100   -2.6  118   0     987.5    NA       0.0000   -SN      BR    9999  0    
2019/08/31  15:08:02  BASE  3.63384  142  4.93332  129  -2.6  100   -2.6  119   0     987.6    NA       0.0000   -SN      BR    8000  0    
2019/08/31  15:09:02  BASE  3.83964  144  4.93332  129  -2.6  100   -2.6  119   0     987.6    NA       0.0000   -SN      BR    7000  0    
2019/08/31  15:10:02  BASE  3.9102   141  4.93332  129  -2.6  100   -2.6  120   0     987.6    NA       0.0000   -SN      BR    9000  0    
2019/08/31  15:11:02  BASE  3.675    140  4.93332  129  -2.6  100   -2.6  120   0     987.6    NA       0.0000   -SN      BR    9999  660  
2019/08/31  15:12:02  BASE  3.62796  137  4.93332  129  -2.6  100   -2.6  120   0     987.6    NA       0.0000   -SN      BR    9999  1610 
2019/08/31  15:13:01  BASE  3.71028  130  4.93332  129  -2.6  100   -2.6  120   0     987.6    NA       0.0000   -SN      BR    9999  0    
2019/08/31  15:14:02  BASE  3.51624  126  4.93332  129  -2.6  100   -2.6  121   0     987.6    NA       0.0000   -SN      BR    9999  1250 
2019/08/31  15:15:02  BASE  3.19284  120  4.65696  131  -2.6  100   -2.6  121   0     987.6    NA       0.0000   -SN      9999  1080  2400 
2019/08/31  15:16:02  BASE  3.40452  117  4.68636  108  -2.5  100   -2.5  122   0     987.6    NA       0.0000   -SN      9999  2300  0    
2019/08/31  15:17:02  BASE  3.95724  112  4.68636  101  -2.5  100   -2.5  123   0     987.6    NA       0.0000   -SN      9999  390   0    
2019/08/31  15:18:02  BASE  4.08072  104  4.68636  101  -2.5  100   -2.5  124   0     987.7    NA       0.0000   -SN      9999  430   2230 
2019/08/31  15:19:02  BASE  4.0866   105  4.68636  101  -2.5  100   -2.5  126   0     987.7    NA       0.0000   -SN      9999  430   0    
2019/08/31  15:20:02  BASE  4.2042   102  4.68636  101  -2.5  99    -2.6  127   0     987.7    NA       0.0000   -SN      9999  3050  0    
2019/08/31  15:21:02  BASE  3.96312  100  4.68636  101  -2.5  99    -2.6  128   0     987.7    NA       0.0000   -SN      9999  2360  0    
2019/08/31  15:22:01  BASE  3.71616  101  4.68636  101  -2.5  99    -2.7  129   0     987.7    NA       0.0000   -SN      9999  3150  0    
2019/08/31  15:23:02  BASE  3.41628  102  4.68636  101  -2.5  99    -2.7  129   0     987.7    NA       0.0000   -SN      9999  3250  0    
2019/08/31  15:24:02  BASE  3.21636  105  4.68636  101  -2.6  99    -2.7  130   0     987.8    NA       0.0000   -SN      9999  0     0    
2019/08/31  15:25:01  BASE  2.9988   116  4.68636  101  -2.6  99    -2.7  131   0     987.8    NA       0.0000   -SN      9999  0     0    
2019/08/31  15:26:01  BASE  2.45784  124  4.68636  101  -2.6  100   -2.7  131   0     987.8    NA       0.0000   -SN      9999  0     0    
2019/08/31  15:27:02  BASE  2.06976  121  4.47468  105  -2.6  100   -2.7  132   0     987.8    NA       0.0000   -SN      9999  0     0    
2019/08/31  15:28:02  BASE  1.87572  116  4.47468  105  -2.7  100   -2.7  134   0     987.8    NA       0.0000   -SN      9999  0     0    
2019/08/31  15:29:02  BASE  1.78752  116  4.41588  104  -2.7  100   -2.7  135   0     987.8    NA       0.0000   -SN      9999  2560  0    
2019/08/31  15:30:01  BASE  1.87572  120  4.263    98   -2.7  100   -2.7  136   0     987.8    NA       0.0000   -SN      9999  390   0    
2019/08/31  15:31:02  BASE  1.76988  124  3.78084  103  -2.7  100   -2.7  138   0     987.8    NA       0.0000   -SN      9999  3150  0    
2019/08/31  15:32:02  BASE  1.5288   130  3.59856  101  -2.7  100   -2.7  139   0     987.8    NA       0.0000   -SN      9999  3050  0    
2019/08/31  15:33:02  BASE  1.43472  142  3.26928  109  -2.7  100   -2.7  140   0     987.8    NA       0.0000   -SN      9999  3020  0    
2019/08/31  15:34:01  BASE  1.42296  154  3.2046   112  -2.7  100   -2.7  140   0     987.8    NA       0.0000   -SN      9999  2460  0    
2019/08/31  15:35:02  BASE  1.33476  164  2.38728  127  -2.7  100   -2.7  139   0     987.8    NA       0.0000   -SN      9999  430   0    
2019/08/31  15:36:02  BASE  1.15248  169  2.29908  112  -2.7  100   -2.7  138   0     987.9    NA       0.0000   -SN      9999  390   0    
2019/08/31  15:37:03  BASE  1.1466   173  2.21088  129  -2.8  100   -2.8  137   0     987.9    NA       0.0000   -SN      9999  390   0    
2019/08/31  15:38:02  BASE  1.27008  184  2.21088  129  -2.8  100   -2.8  136   0     987.9    NA       0.0000   -SN      9999  390   0    
2019/08/31  15:39:02  BASE  1.19952  195  2.21088  129  -2.8  100   -2.8  135   0     987.9    NA       0.0000   -SN      9999  390   0    
2019/08/31  15:40:02  BASE  1.29948  205  1.90512  212  -2.8  100   -2.8  133   0     987.9    NA       0.0000   -SN      9999  360   2400 
2019/08/31  15:41:02  BASE  1.71108  206  2.1168   201  -2.8  100   -2.8  133   0     987.9    NA       0.0000   -SN      9999  390   0    
2019/08/31  15:42:02  BASE  1.86984  197  2.1168   201  -2.7  100   -2.7  132   0     987.9    NA       0.0000   9999     390   1250  0    
2019/08/31  15:43:02  BASE  1.84044  193  2.1168   201  -2.7  100   -2.7  132   0     987.9    NA       0.0000   9999     390   2560  0    
2019/08/31  15:44:02  BASE  1.81104  193  2.1168   201  -2.7  100   -2.7  132   0     987.9    NA       0.0000   9999     1150  2590  0    
2019/08/31  15:45:02  BASE  1.91688  198  2.42256  207  -2.7  100   -2.7  132   0     988.0    NA       0.0000   9999     1250  2400  0    
2019/08/31  15:46:02  BASE  2.1462   203  2.42256  207  -2.7  100   -2.7  132   0     988.0    NA       0.0000   -SN      9999  1350  2530 
2019/08/31  15:47:02  BASE  2.21088  206  2.42256  207  -2.8  100   -2.8  131   0     988.0    NA       0.0000   -SN      9999  620   0    
2019/08/31  15:48:02  BASE  2.22264  210  2.51076  217  -2.8  100   -2.8  130   0     988.0    NA       0.0000   -SN      9999  430   1120 
2019/08/31  15:49:02  BASE  2.14032  214  2.51076  217  -2.8  100   -2.8  130   0     988.0    NA       0.0000   -SN      9999  430   1770 
2019/08/31  15:50:02  BASE  1.82868  215  2.51076  217  -2.8  100   -2.8  130   0     988.0    NA       0.0000   -SN      9999  1020  2330 
2019/08/31  15:51:01  BASE  1.5582   218  2.51076  217  -2.8  100   -2.8  129   0     988.0    NA       0.0000   -SN      9999  980   0    
2019/08/31  15:52:02  BASE  1.64052  225  2.51076  217  -2.8  100   -2.8  130   0     988.1    NA       0.0000   -SN      9999  1510  0    
2019/08/31  15:53:02  BASE  1.78164  233  2.51076  217  -2.8  100   -2.8  130   0     988.0    NA       0.0000   9999     1610  0     0    
2019/08/31  15:54:01  BASE  1.7346   239  2.51076  217  -2.8  100   -2.8  131   0     988.1    NA       0.0000   9999     1440  3770  0    
2019/08/31  15:55:01  BASE  1.57584  244  2.51076  217  -2.8  100   -2.8  131   0     988.1    NA       0.0000   9999     1440  0     0    
2019/08/31  15:56:02  BASE  1.48764  246  2.51076  217  -2.8  100   -2.8  131   0     988.2    NA       0.0000   9999     0     0     0    
2019/08/31  15:57:02  BASE  1.3818   248  2.51076  217  -2.8  100   -2.8  131   0     988.2    NA       0.0000   9999     2130  0     0    
2019/08/31  15:58:02  BASE  1.3524   244  2.24028  218  -2.8  100   -2.8  131   0     988.2    NA       0.0000   9999     0     0     0    
2019/08/31  15:59:02  BASE  1.24068  231  1.90512  241  -2.8  100   -2.8  131   0     988.2    NA       0.0000   9999     1020  0     0    
2019/08/31  16:00:02  BASE  1.10544  214  1.90512  241  -2.8  100   -2.8  130   0     988.2    NA       0.0000   9999     5680  0     0    
2019/08/31  16:01:02  BASE  1.07016  204  1.90512  241  -2.8  100   -2.8  129   0     988.2    NA       0.0000   9999     0     0     0    
2019/08/31  16:02:02  BASE  1.1172   204  1.90512  241  -2.8  100   -2.8  129   0     988.2    NA       0.0000   9999     0     0     0    
2019/08/31  16:03:01  BASE  1.21128  203  1.81692  243  -2.8  100   -2.8  129   0     988.2    NA       0.0000   9999     0     0     0    
2019/08/31  16:04:02  BASE  1.2642   210  2.1462   217  -2.7  100   -2.7  129   0     988.2    NA       0.0000   9999     0     0     0    
2019/08/31  16:05:03  BASE  1.7934   222  2.45196  223  -2.7  100   -2.7  130   0     988.2    NA       0.0000   9999     0     0     0    
2019/08/31  16:06:02  BASE  2.45784  227  3.1164   227  -2.7  100   -2.7  130   0     988.2    NA       0.0000   -SN      9999  0     0    
2019/08/31  16:07:02  BASE  2.66952  227  3.1164   227  -2.7  100   -2.7  131   0     988.2    NA       0.0000   -SN      9999  0     0    
2019/08/31  16:08:02  BASE  2.64012  234  3.1752   234  -2.7  100   -2.7  131   0     988.2    NA       0.0000   -SN      9999  0     0    
2019/08/31  16:09:01  BASE  2.83416  240  3.2046   238  -2.7  100   -2.7  131   0     988.2    NA       0.0000   -SN      9999  0     0    
2019/08/31  16:10:02  BASE  3.02232  242  3.44568  238  -2.6  100   -2.6  131   0     988.2    NA       0.0000   -SN      9999  0     0    
2019/08/31  16:11:02  BASE  2.89884  236  3.44568  238  -2.6  100   -2.6  130   0     988.2    NA       0.0000   -SN      9999  0     0    
2019/08/31  16:12:02  BASE  2.68716  228  3.44568  238  -2.6  100   -2.6  130   0     988.2    NA       0.0000   -SN      9999  0     0    
2019/08/31  16:13:02  BASE  2.59896  227  3.44568  238  -2.6  100   -2.6  129   0     988.2    NA       0.0000   -SN      9999  0     0    
2019/08/31  16:14:02  BASE  2.25204  231  3.44568  238  -2.6  100   -2.6  128   0     988.2    NA       0.0000   -SN      9999  0     0    
2019/08/31  16:15:02  BASE  2.02272  235  3.44568  238  -2.6  100   -2.6  127   0     988.2    NA       0.0000   -SN      9999  0     0    
2019/08/31  16:16:02  BASE  2.3226   237  3.44568  238  -2.6  100   -2.6  126   0     988.2    NA       0.0000   -SN      9999  23820 0    
2019/08/31  16:17:01  BASE  2.48136  243  3.44568  238  -2.6  100   -2.6  125   0     988.2    NA       0.0000   -SN      9999  0     0    
2019/08/31  16:18:02  BASE  2.499    243  3.44568  238  -2.6  100   -2.6  124   0     988.2    NA       0.0000   -SN      9999  0     0    
2019/08/31  16:19:02  BASE  2.65776  241  3.44568  238  -2.6  100   -2.6  124   0     988.2    NA       0.0000   -SN      9999  0     0    
2019/08/31  16:20:02  BASE  2.71656  241  3.32808  248  -2.6  100   -2.6  123   0     988.2    NA       0.0000   -SN      9999  0     0    
2019/08/31  16:21:02  BASE  2.71068  243  3.32808  248  -2.6  100   -2.6  123   0     988.2    NA       0.0000   -SN      9999  0     0    
2019/08/31  16:22:02  BASE  2.646    247  3.32808  248  -2.6  100   -2.6  123   0     988.3    NA       0.0000   -SN      9999  0     0    
2019/08/31  16:23:02  BASE  2.62836  252  3.32808  248  -2.6  100   -2.6  122   0     988.3    NA       0.0000   -SN      9999  0     0    
2019/08/31  16:24:01  BASE  2.65776  260  3.32808  248  -2.6  100   -2.6  122   0     988.3    NA       0.0000   -SN      9999  0     0    
2019/08/31  16:25:02  BASE  2.3226   266  3.32808  248  -2.6  100   -2.6  122   0     988.3    NA       0.0000   -SN      9999  0     0    
2019/08/31  16:26:02  BASE  2.11092  265  3.32808  248  -2.6  100   -2.6  122   0     988.3    NA       0.0000   -SN      9999  0     0    
2019/08/31  16:27:02  BASE  2.15796  264  3.32808  248  -2.6  100   -2.6  121   0     988.3    NA       0.0000   -SN      9999  0     0    
2019/08/31  16:28:02  BASE  2.50488  259  3.99252  241  -2.6  100   -2.6  120   0     988.3    NA       0.0000   -SN      9999  0     0    
2019/08/31  16:29:01  BASE  2.89884  252  3.99252  241  -2.6  100   -2.6  118   0     988.2    NA       0.0000   -SN      9999  0     0    
2019/08/31  16:30:02  BASE  2.93412  255  3.99252  241  -2.6  100   -2.6  117   0     988.3    NA       0.0000   -SN      9999  0     0    
2019/08/31  16:31:02  BASE  2.76948  260  3.99252  241  -2.6  100   -2.6  115   0     988.3    NA       0.0000   -SN      9999  1120  0    
2019/08/31  16:32:02  BASE  2.42844  270  3.99252  241  -2.6  100   -2.6  113   0     988.3    NA       0.0000   9999     0     0     0    
2019/08/31  16:33:02  BASE  2.15796  268  3.99252  241  -2.6  100   -2.6  112   0     988.3    NA       0.0000   9999     0     0     0    
2019/08/31  16:34:02  BASE  2.34024  244  3.99252  241  -2.6  100   -2.6  110   0     988.2    NA       0.0000   9999     0     0     0    
2019/08/31  16:35:02  BASE  2.40492  237  3.99252  241  -2.6  100   -2.6  109   0     988.3    NA       0.0000   9999     0     0     0    
2019/08/31  16:36:02  BASE  2.46372  242  3.99252  241  -2.6  100   -2.6  108   0     988.3    NA       0.0000   9999     0     0     0    
2019/08/31  16:37:02  BASE  2.50488  239  3.99252  241  -2.6  100   -2.6  107   0     988.3    NA       0.0000   9999     0     0     0    
2019/08/31  16:38:02  BASE  1.86984  241  3.41628  241  -2.6  100   -2.6  107   0     988.3    NA       0.0000   -SN      9999  0     0    
2019/08/31  16:39:01  BASE  1.71108  244  3.41628  241  -2.6  100   -2.6  106   0     988.3    NA       0.0000   -SN      9999  0     0    
2019/08/31  16:40:02  BASE  1.92864  239  3.41628  241  -2.5  100   -2.5  106   0     988.4    NA       0.0000   -SN      9999  0     0    
2019/08/31  16:41:02  BASE  1.65228  234  3.41628  241  -2.5  100   -2.5  105   0     988.4    NA       0.0000   -SN      9999  0     0    
2019/08/31  16:42:01  BASE  1.47     235  3.41628  241  -2.5  100   -2.5  105   0     988.4    NA       0.0000   -SN      9999  0     0    
2019/08/31  16:43:02  BASE  1.78752  239  3.41628  241  -2.5  100   -2.5  105   0     988.4    NA       0.0000   -SN      9999  0     0    
2019/08/31  16:44:02  BASE  1.69932  239  3.2046   248  -2.5  100   -2.5  104   0     988.4    NA       0.0000   -SN      9999  0     0    
2019/08/31  16:45:02  BASE  1.12896  237  3.2046   248  -2.5  100   -2.5  105   0     988.4    NA       0.0000   -SN      9999  0     0    
2019/08/31  16:46:01  BASE  0.88788  237  2.87532  223  -2.5  100   -2.5  105   0     988.4    NA       0.0000   -SN      9999  0     0    
2019/08/31  16:47:02  BASE  0.65856  231  2.75184  227  -2.5  100   -2.5  105   0     988.5    NA       0.0000   -SN      9999  0     0    
2019/08/31  16:48:02  BASE  0.22932  217  2.29908  244  -2.5  100   -2.5  106   0     988.5    NA       0.0000   -SN      9999  0     0    
2019/08/31  16:49:02  BASE  0.36456  179  2.29908  244  -2.5  100   -2.5  107   0     988.5    NA       0.0000   -SN      9999  4820  0    
2019/08/31  16:50:02  BASE  0.72324  138  2.29908  244  -2.5  100   -2.5  107   0     988.5    NA       0.0000   -SN      9999  4890  0    
2019/08/31  16:51:02  BASE  0.55272  126  2.29908  244  -2.5  100   -2.5  108   0     988.5    NA       0.0000   -SN      9000  4230  0    
2019/08/31  16:52:02  BASE  0.22344  105  2.29908  244  -2.5  100   -2.5  109   0     988.5    NA       0.0000   -SN      9000  0     0    
2019/08/31  16:53:02  BASE  0.45276  51   1.96392  238  -2.5  100   -2.5  109   0     988.5    NA       0.0000   -SN      9999  0     0    
2019/08/31  16:54:02  BASE  1.37592  23   2.29908  25   -2.5  100   -2.5  110   0     988.5    NA       0.0000   -SN      9999  4760  0    
2019/08/31  16:55:02  BASE  1.95804  26   2.38728  22   -2.5  100   -2.5  111   0     988.5    NA       0.0000   -SN      9999  4920  0    
2019/08/31  16:56:02  BASE  1.76988  14   2.38728  22   -2.6  100   -2.6  112   0     988.6    NA       0.0000   -SN      9999  1150  0    
2019/08/31  16:57:02  BASE  1.32888  348  2.38728  22   -2.6  100   -2.6  113   0     988.7    NA       0.0000   -SN      9999  5020  0    
2019/08/31  16:58:02  BASE  1.12308  333  2.38728  22   -2.7  100   -2.7  113   0     988.7    NA       0.0000   -SN      9999  980   19820
2019/08/31  16:59:02  BASE  1.09956  329  2.38728  22   -2.7  100   -2.7  113   0     988.7    NA       0.0000   -SN      9999  850   0    
2019/08/31  17:00:02  BASE  1.0878   342  2.38728  22   -2.7  100   -2.7  113   0     988.7    NA       0.0000   9000     4950  0     0    
2019/08/31  17:01:02  BASE  1.4112   352  2.38728  22   -2.6  100   -2.6  113   0     988.6    NA       0.0000   9000     5020  0     0    
2019/08/31  17:02:02  BASE  1.93452  352  2.45196  340  -2.6  100   -2.6  112   0     988.5    NA       0.0000   9000     5020  0     0    
2019/08/31  17:03:01  BASE  2.08152  340  2.45196  340  -2.6  100   -2.6  112   0     988.5    NA       0.0000   9000     0     0     0    
2019/08/31  17:04:02  BASE  1.9404   331  2.45196  340  -2.7  100   -2.7  111   0     988.6    NA       0.0000   9000     0     0     0    
2019/08/31  17:05:03  BASE  1.5582   326  2.45196  340  -2.7  100   -2.7  111   0     988.7    NA       0.0000   BR       9000  0     0    
2019/08/31  17:06:02  BASE  1.2642   329  2.45196  340  -2.7  100   -2.7  111   0     988.7    NA       0.0000   -SN      BR    8000  22380
2019/08/31  17:07:02  BASE  1.2936   339  2.45196  340  -2.6  100   -2.7  110   0     988.7    NA       0.0000   -SN      BR    7000  0    
2019/08/31  17:08:02  BASE  1.5288   346  2.45196  340  -2.6  100   -2.6  110   0     988.7    NA       0.0000   -SN      BR    7000  0    
2019/08/31  17:09:01  BASE  1.89336  350  2.45196  340  -2.6  100   -2.6  111   0     988.7    NA       0.0000   -SN      BR    7000  1480 
2019/08/31  17:10:02  BASE  2.06388  354  2.45196  340  -2.6  100   -2.6  111   0     988.7    NA       0.0000   -SN      BR    8000  1610 
2019/08/31  17:11:01  BASE  1.90512  353  2.45196  340  -2.7  100   -2.7  113   0     988.7    NA       0.0000   -SN      BR    9999  0    
2019/08/31  17:12:02  BASE  1.61112  355  2.35788  327  -2.7  100   -2.7  115   0     988.7    NA       0.0000   -SN      BR    9999  0    
2019/08/31  17:13:02  BASE  1.50528  3    2.35788  327  -2.7  100   -2.7  117   0     988.7    NA       0.0000   -SN      BR    9000  0    
2019/08/31  17:14:02  BASE  1.4994   5    2.24028  351  -2.8  100   -2.8  119   0     988.7    NA       0.0000   -SN      BR    9000  0    
2019/08/31  17:15:02  BASE  1.5288   360  2.24028  351  -2.8  100   -2.8  122   0     988.7    NA       0.0000   -SN      BR    9000  0    
2019/08/31  17:16:02  BASE  1.78752  359  2.24028  351  -2.8  100   -2.8  124   0     988.7    NA       0.0000   -SN      BR    9000  4790 
2019/08/31  17:17:01  BASE  2.01096  1    2.26968  354  -2.8  100   -2.8  125   0     988.7    NA       0.0000   -SN      BR    9000  5090 
2019/08/31  17:18:02  BASE  2.2344   358  2.69304  340  -2.8  100   -2.8  127   0     988.7    NA       0.0000   BR       9999  5090  5840 
2019/08/31  17:19:02  BASE  2.60484  355  3.1458   354  -2.8  100   -2.8  127   0     988.7    NA       0.0000   9999     4950  5910  0    
2019/08/31  17:20:02  BASE  3.15756  352  3.78084  348  -2.8  100   -2.8  127   0     988.7    NA       0.0000   9999     4990  6100  0    
2019/08/31  17:21:02  BASE  3.4986   349  3.78084  348  -2.8  100   -2.8  127   0     988.8    NA       0.0000   9999     4760  5940  0    
2019/08/31  17:22:02  BASE  3.2928   347  3.78084  348  -2.8  100   -2.8  128   0     988.9    NA       0.0000   9999     4920  5770  0    
2019/08/31  17:23:02  BASE  3.1752   344  3.78084  348  -2.8  100   -2.8  128   0     988.9    NA       0.0000   9999     5120  5910  0    
2019/08/31  17:24:02  BASE  3.21048  342  3.78084  348  -2.9  100   -2.9  129   0     988.9    NA       0.0000   9999     4890  5770  0    
2019/08/31  17:25:02  BASE  3.07524  343  3.78084  348  -2.9  100   -2.9  128   0     989.0    NA       0.0000   9999     4990  5710  0    
2019/08/31  17:26:02  BASE  2.89296  346  3.78084  348  -2.9  100   -2.9  127   0     989.0    NA       0.0000   9999     5120  0     0    
2019/08/31  17:27:02  BASE  2.98116  337  3.78084  348  -2.9  100   -2.9  126   0     989.0    NA       0.0000   9999     5380  0     0    
2019/08/31  17:28:02  BASE  3.16344  332  3.78084  348  -2.9  100   -2.9  125   0     988.9    NA       0.0000   9999     5480  24210 0    
2019/08/31  17:29:02  BASE  3.234    337  3.78084  348  -2.9  100   -2.9  122   0     988.9    NA       0.0000   9999     5710  0     0    
2019/08/31  17:30:02  BASE  3.18108  339  3.75144  347  -2.9  100   -2.9  120   0     988.9    NA       0.0000   9999     6590  0     0    
2019/08/31  17:31:02  BASE  3.1752   339  3.59856  334  -2.9  100   -2.9  117   0     988.9    NA       0.0000   9999     6300  0     0    
2019/08/31  17:32:02  BASE  3.40452  336  3.81024  333  -2.9  100   -2.9  115   0     989.0    NA       0.0000   9999     3150  0     0    
2019/08/31  17:33:01  BASE  3.5868   332  4.02192  331  -2.9  100   -2.9  112   0     989.0    NA       0.0000   9999     5220  0     0    
2019/08/31  17:34:02  BASE  3.41628  329  4.02192  331  -2.9  100   -2.9  109   0     989.0    NA       0.0000   9999     6100  0     0    
2019/08/31  17:35:02  BASE  3.2634   326  4.02192  331  -2.9  100   -2.9  107   0     989.0    NA       0.0000   9999     2950  0     0    
2019/08/31  17:36:02  BASE  3.23988  327  4.02192  331  -2.9  100   -2.9  104   0     989.0    NA       0.0000   9999     2890  0     0    
2019/08/31  17:37:02  BASE  3.01644  330  4.02192  331  -2.9  100   -2.9  102   0     989.1    NA       0.0000   9999     5970  0     0    
2019/08/31  17:38:01  BASE  2.85768  330  4.02192  331  -2.9  100   -2.9  100   0     989.1    NA       0.0000   9999     3480  0     0    
2019/08/31  17:39:01  BASE  2.78124  330  4.02192  331  -2.9  100   -2.9  99    0     989.1    NA       0.0000   9999     6530  0     0    
2019/08/31  17:40:01  BASE  2.75772  334  4.02192  331  -2.9  100   -2.9  98    0     989.1    NA       0.0000   9999     6860  0     0    
2019/08/31  17:41:01  BASE  2.95764  336  4.02192  331  -2.9  100   -2.9  97    0     989.1    NA       0.0000   9999     6790  0     0    
2019/08/31  17:42:02  BASE  3.27516  336  4.02192  331  -2.9  100   -2.9  96    0     989.1    NA       0.0000   9999     6370  0     0    
2019/08/31  17:43:02  BASE  3.28692  338  3.53976  339  -3.0  100   -3.0  95    0     989.1    NA       0.0000   9999     6230  0     0    
2019/08/31  17:44:01  BASE  3.08112  341  3.53976  339  -3.0  100   -3.0  94    0     989.1    NA       0.0000   9999     6820  0     0    
2019/08/31  17:45:02  BASE  2.94588  345  3.53976  339  -3.0  100   -3.0  92    0     989.1    NA       0.0000   9999     6990  0     0    
2019/08/31  17:46:02  BASE  2.93412  347  3.53976  339  -2.9  100   -2.9  90    0     989.2    NA       0.0000   9999     6920  0     0    
2019/08/31  17:47:02  BASE  2.9988   346  3.53976  339  -2.9  100   -2.9  89    0     989.2    NA       0.0000   9999     6860  0     0    
2019/08/31  17:48:02  BASE  3.12228  345  3.53976  339  -2.9  100   -2.9  87    0     989.2    NA       0.0000   9999     6920  0     0    
2019/08/31  17:49:02  BASE  3.28692  342  3.53976  344  -3.0  100   -3.0  86    0     989.2    NA       0.0000   9999     7090  0     0    
2019/08/31  17:50:02  BASE  3.22224  340  3.53976  344  -3.0  100   -3.0  86    0     989.2    NA       0.0000   9999     6920  0     0    
2019/08/31  17:51:02  BASE  2.98704  340  3.53976  344  -3.0  100   -3.0  85    0     989.3    NA       0.0000   9999     24150 0     0    
2019/08/31  17:52:02  BASE  3.06348  340  3.53976  344  -3.0  100   -3.0  85    0     989.2    NA       0.0000   9999     6760  0     0    
2019/08/31  17:53:02  BASE  3.381    339  3.56916  339  -3.0  100   -3.0  86    0     989.3    NA       0.0000   9999     5770  0     0    
2019/08/31  17:54:02  BASE  3.51036  338  3.75144  332  -3.0  100   -3.0  87    0     989.2    NA       0.0000   9999     5870  0     0    
2019/08/31  17:55:02  BASE  3.33396  337  3.75144  332  -3.0  100   -3.0  88    0     989.3    NA       0.0000   9999     5680  0     0    
2019/08/31  17:56:02  BASE  3.0282   337  3.75144  332  -3.0  100   -3.0  89    0     989.3    NA       0.0000   9999     5740  0     0    
2019/08/31  17:57:02  BASE  2.8812   334  3.75144  332  -3.0  100   -3.0  91    0     989.4    NA       0.0000   9999     5640  0     0    
2019/08/31  17:58:02  BASE  2.84592  329  3.75144  332  -3.0  100   -3.0  92    0     989.4    NA       0.0000   9999     5640  0     0    
2019/08/31  17:59:02  BASE  2.85768  328  3.75144  332  -3.0  100   -3.0  94    0     989.4    NA       0.0000   9999     5680  0     0    
2019/08/31  18:00:02  BASE  2.77536  329  3.75144  332  -3.0  100   -3.0  96    0     989.4    NA       0.0000   9999     5740  0     0    
2019/08/31  18:01:02  BASE  2.58132  332  3.75144  332  -3.0  100   -3.0  98    0     989.5    NA       0.0000   9999     5320  6100  0    
2019/08/31  18:02:02  BASE  2.5284   336  3.75144  332  -3.0  100   -3.0  99    0     989.4    NA       0.0000   9999     5480  0     0    
2019/08/31  18:03:02  BASE  2.51664  339  3.75144  332  -3.0  100   -3.0  101   0     989.5    NA       0.0000   9999     5050  0     0    
2019/08/31  18:04:01  BASE  2.40492  341  3.35748  337  -3.0  100   -3.0  102   0     989.5    NA       0.0000   9999     5510  0     0    
2019/08/31  18:05:03  BASE  2.21676  342  3.02232  324  -3.0  100   -3.0  104   0     989.5    NA       0.0000   9999     5480  0     0    
2019/08/31  18:06:02  BASE  2.058    342  3.02232  324  -3.0  100   -3.0  106   0     989.5    NA       0.0000   9999     5770  0     0    
2019/08/31  18:07:01  BASE  2.05212  338  3.02232  324  -3.0  100   -3.0  108   0     989.6    NA       0.0000   9999     5380  22250 0    
2019/08/31  18:08:02  BASE  2.0286   336  3.02232  324  -3.0  100   -3.0  109   0     989.6    NA       0.0000   9999     1310  5710  0    
2019/08/31  18:09:02  BASE  1.84044  338  2.90472  331  -3.0  100   -3.0  111   0     989.6    NA       0.0000   9999     1210  5610  0    
2019/08/31  18:10:02  BASE  1.66404  341  2.72244  335  -2.9  100   -2.9  113   0     989.6    NA       0.0000   9999     5090  0     0    
2019/08/31  18:11:01  BASE  1.6464   344  2.72244  335  -2.9  100   -2.9  114   0     989.7    NA       0.0000   9999     5510  0     0    
2019/08/31  18:12:01  BASE  1.72284  350  2.63424  341  -2.9  100   -2.9  116   0     989.7    NA       0.0000   9999     5580  0     0    
2019/08/31  18:13:02  BASE  1.68168  356  2.42256  340  -2.9  100   -2.9  117   0     989.7    NA       0.0000   9999     5280  0     0    
2019/08/31  18:14:01  BASE  1.51704  357  2.24028  344  -2.9  100   -2.9  118   0     989.7    NA       0.0000   9999     6990  0     0    
2019/08/31  18:15:01  BASE  1.34064  357  2.21088  336  -3.0  100   -3.0  118   0     989.7    NA       0.0000   9999     5350  0     0    
2019/08/31  18:16:02  BASE  1.19364  0    2.21088  336  -3.0  100   -3.0  119   0     989.7    NA       0.0000   9999     5250  0     0    
2019/08/31  18:17:02  BASE  1.08192  360  2.1462   332  -3.0  100   -3.0  118   0     989.7    NA       0.0000   9999     5350  0     0    
2019/08/31  18:18:02  BASE  1.06428  357  1.90512  339  -3.0  100   -3.0  117   0     989.7    NA       0.0000   9999     6660  0     0    
2019/08/31  18:19:02  BASE  1.05252  358  1.81692  350  -3.0  100   -3.0  116   0     989.7    NA       0.0000   9999     5610  0     0    
2019/08/31  18:20:02  BASE  0.99372  358  1.81692  350  -2.9  100   -2.9  114   0     989.7    NA       0.0000   9999     5680  0     0    
2019/08/31  18:21:02  BASE  0.9408   358  1.81692  350  -2.9  100   -2.9  113   0     989.7    NA       0.0000   9999     6070  0     0    
2019/08/31  18:22:01  BASE  0.9702   0    1.69344  355  -2.9  100   -2.9  111   0     989.8    NA       0.0000   9999     6400  0     0    
2019/08/31  18:23:02  BASE  1.05252  5    1.48176  354  -2.9  100   -2.9  109   0     989.8    NA       0.0000   9999     6530  0     0    
2019/08/31  18:24:01  BASE  1.07016  10   1.42296  360  -3.0  100   -3.0  107   0     989.8    NA       0.0000   9999     6500  0     0    
2019/08/31  18:25:02  BASE  1.09956  10   1.21128  3    -3.0  100   -3.0  105   0     989.8    NA       0.0000   9999     6630  0     0    
2019/08/31  18:26:02  BASE  1.18188  359  1.29948  349  -3.0  100   -3.0  104   0     989.8    NA       0.0000   9999     6370  0     0    
2019/08/31  18:27:02  BASE  1.21716  347  1.29948  349  -3.0  100   -3.0  102   0     989.8    NA       0.0000   9999     5870  0     0    
2019/08/31  18:28:01  BASE  1.17012  342  1.29948  349  -3.0  100   -3.0  101   0     989.8    NA       0.0000   9999     5810  0     0    
2019/08/31  18:29:01  BASE  1.12896  337  1.29948  349  -3.0  100   -3.0  99    0     989.9    NA       0.0000   9999     6140  0     0    
2019/08/31  18:30:02  BASE  1.18776  331  1.29948  327  -3.0  100   -3.0  97    0     989.9    NA       0.0000   9999     7420  0     0    
2019/08/31  18:31:01  BASE  1.2936   333  1.42296  338  -3.0  100   -3.0  95    0     989.9    NA       0.0000   9999     7250  0     0    
2019/08/31  18:32:02  BASE  1.45824  337  1.69344  337  -3.0  100   -3.0  92    0     989.9    NA       0.0000   9999     6990  0     0    
2019/08/31  18:33:03  BASE  1.53468  340  1.69344  337  -3.0  100   -3.0  89    0     989.9    NA       0.0000   9999     7020  0     0    
2019/08/31  18:34:02  BASE  1.48176  350  1.69344  337  -3.0  100   -3.0  86    0     989.9    NA       0.0000   9999     6200  0     0    
2019/08/31  18:35:02  BASE  1.55232  5    1.72284  17   -3.0  100   -3.0  83    0     990.0    NA       0.0000   9999     6200  0     0    
2019/08/31  18:36:02  BASE  1.71696  19   1.9992   29   -3.0  100   -3.0  81    0     990.1    NA       0.0000   9999     6400  0     0    
2019/08/31  18:37:02  BASE  1.911    30   2.1168   37   -3.1  100   -3.1  78    0     990.1    NA       0.0000   9999     7580  0     0    
2019/08/31  18:38:02  BASE  2.19324  36   2.54016  41   -3.1  100   -3.1  77    0     990.1    NA       0.0000   9999     7250  0     0    
2019/08/31  18:39:02  BASE  2.2638   41   2.54016  41   -3.2  100   -3.2  75    0     990.1    NA       0.0000   9999     7280  0     0    
2019/08/31  18:40:02  BASE  2.16972  42   2.54016  41   -3.2  100   -3.2  74    0     990.1    NA       0.0000   9999     7740  0     0    
2019/08/31  18:41:02  BASE  2.12856  32   2.54016  41   -3.2  100   -3.2  74    0     990.1    NA       0.0000   9999     7420  0     0    
2019/08/31  18:42:01  BASE  2.19324  17   2.54016  41   -3.1  100   -3.1  73    0     990.1    NA       0.0000   9999     0     0     0    
2019/08/31  18:43:02  BASE  2.22264  4    2.54016  41   -3.1  100   -3.1  74    0     990.0    NA       0.0000   9999     7050  0     0    
2019/08/31  18:44:02  BASE  2.058    359  2.54016  41   -3.0  100   -3.0  74    0     990.1    NA       0.0000   9999     7780  0     0    
2019/08/31  18:45:01  BASE  1.97568  9    2.54016  41   -3.0  100   -3.0  74    0     990.2    NA       0.0000   9999     0     0     0    
2019/08/31  18:46:01  BASE  2.12268  26   2.54016  41   -3.0  100   -3.0  74    0     990.2    NA       0.0000   9999     0     0     0    
2019/08/31  18:47:03  BASE  2.22264  42   2.54016  41   -3.1  100   -3.1  73    0     990.2    NA       0.0000   9999     0     0     0    
2019/08/31  18:48:02  BASE  2.01096  50   2.51076  8    -3.1  100   -3.1  72    0     990.2    NA       0.0000   9999     0     0     0    
2019/08/31  18:49:02  BASE  1.80516  42   2.51076  8    -3.1  100   -3.1  71    0     990.2    NA       0.0000   9999     0     0     0    
2019/08/31  18:50:02  BASE  1.78752  25   2.51076  8    -3.1  100   -3.1  71    0     990.2    NA       0.0000   9999     0     0     0    
2019/08/31  18:51:02  BASE  1.86396  15   2.51076  8    -3.1  100   -3.1  70    0     990.2    NA       0.0000   9999     0     0     0    
2019/08/31  18:52:01  BASE  1.92864  7    2.42256  43   -3.0  100   -3.0  69    0     990.2    NA       0.0000   9999     0     0     0    
2019/08/31  18:53:02  BASE  1.95216  11   2.42256  43   -3.0  100   -3.0  68    0     990.2    NA       0.0000   9999     0     0     0    
2019/08/31  18:54:01  BASE  1.8522   36   2.42256  43   -3.0  100   -3.0  67    0     990.3    NA       0.0000   9999     0     0     0    
2019/08/31  18:55:01  BASE  1.9404   53   2.54016  48   -3.1  100   -3.1  66    0     990.3    NA       0.0000   9999     0     0     0    
2019/08/31  18:56:01  BASE  2.08152  54   2.54016  48   -3.1  100   -3.1  66    0     990.3    NA       0.0000   9999     6820  0     0    
2019/08/31  18:57:02  BASE  1.89336  52   2.54016  48   -3.1  100   -3.1  66    0     990.3    NA       0.0000   9999     6270  0     0    
2019/08/31  18:58:01  BASE  1.60524  37   2.54016  48   -3.1  100   -3.1  66    0     990.3    NA       0.0000   9999     6990  0     0    
2019/08/31  18:59:01  BASE  1.52292  22   2.54016  48   -3.0  100   -3.0  65    0     990.3    NA       0.0000   9999     5870  0     0    
2019/08/31  19:00:01  BASE  1.56996  17   2.54016  48   -2.9  100   -2.9  65    0     990.4    NA       0.0000   9999     6040  0     0    
2019/08/31  19:01:01  BASE  1.6464   24   2.54016  48   -2.9  100   -2.9  64    0     990.4    NA       0.0000   9999     6300  0     0    
2019/08/31  19:02:02  BASE  1.92864  33   2.54016  48   -2.9  100   -2.9  64    0     990.4    NA       0.0000   9999     6070  0     0    
2019/08/31  19:03:02  BASE  1.9404   32   2.54016  48   -3.0  100   -3.0  63    0     990.4    NA       0.0000   9999     5640  0     0    
2019/08/31  19:04:01  BASE  1.7346   27   2.54016  48   -3.0  100   -3.0  63    0     990.4    NA       0.0000   9999     5680  0     0    
2019/08/31  19:05:02  BASE  1.60524  25   2.35788  60   -3.1  100   -3.1  62    0     990.4    NA       0.0000   9999     5320  0     0    
2019/08/31  19:06:02  BASE  1.323    25   2.24028  40   -3.2  100   -3.2  61    0     990.4    NA       0.0000   9999     5810  0     0    
2019/08/31  19:07:02  BASE  0.99372  25   2.24028  40   -3.2  100   -3.2  60    0     990.4    NA       0.0000   9999     6760  0     0    
2019/08/31  19:08:01  BASE  0.57624  17   2.24028  40   -3.1  100   -3.1  59    0     990.4    NA       0.0000   9999     6690  0     0    
2019/08/31  19:09:02  BASE  0.25872  5    2.24028  40   -3.1  100   -3.1  58    0     990.4    NA       0.0000   9999     6400  0     0    
2019/08/31  19:10:02  BASE  0.10584  359  2.24028  40   -3.1  100   -3.1  57    0     990.5    NA       0.0000   9999     6370  0     0    
2019/08/31  19:11:02  BASE  0.47628  335  2.24028  40   -3.0  100   -3.0  57    0     990.5    NA       0.0000   9999     6270  0     0    
2019/08/31  19:12:01  BASE  1.1172   303  2.0286   31   -3.0  100   -3.0  56    0     990.5    NA       0.0000   9999     6300  0     0    
2019/08/31  19:13:01  BASE  1.39356  285  1.78752  31   -2.9  100   -2.9  55    0     990.5    NA       0.0000   9999     5970  0     0    
2019/08/31  19:14:01  BASE  1.38768  275  1.57584  276  -2.9  100   -2.9  54    0     990.6    NA       0.0000   9999     6100  0     0    
2019/08/31  19:15:01  BASE  0.98784  266  1.57584  276  -3.1  100   -3.1  54    0     990.7    NA       0.0000   9999     6370  0     0    
2019/08/31  19:16:02  BASE  0.91728  117  1.60524  87   -3.2  100   -3.2  54    0     990.7    NA       0.0000   9999     6500  0     0    
2019/08/31  19:17:02  BASE  1.11132  86   1.93452  98   -3.2  100   -3.2  53    0     990.7    NA       0.0000   9999     6400  0     0    
2019/08/31  19:18:01  BASE  1.08192  67   1.93452  98   -3.2  100   -3.2  53    0     990.7    NA       0.0000   9999     6530  0     0    
2019/08/31  19:19:01  BASE  0.93492  56   1.93452  98   -3.1  100   -3.1  52    0     990.8    NA       0.0000   9999     5680  0     0    
2019/08/31  19:20:01  BASE  0.9114   50   1.93452  98   -3.1  100   -3.1  52    0     990.8    NA       0.0000   9999     6040  0     0    
2019/08/31  19:21:01  BASE  1.39356  57   2.56956  69   -3.0  100   -3.0  52    0     990.8    NA       0.0000   9999     0     0     0    
2019/08/31  19:22:01  BASE  1.19952  61   2.56956  69   -3.1  100   -3.1  52    0     990.8    NA       0.0000   9999     0     0     0    
2019/08/31  19:23:02  BASE  1.19952  72   2.56956  69   -3.2  100   -3.2  51    0     990.8    NA       0.0000   9999     0     0     0    
2019/08/31  19:24:02  BASE  1.48764  112  2.56956  69   -3.4  100   -3.4  52    0     990.8    NA       0.0000   9999     0     0     0    
2019/08/31  19:25:01  BASE  1.22304  127  2.56956  69   -3.5  100   -3.5  52    0     990.9    NA       0.0000   9999     0     0     0    
2019/08/31  19:26:02  BASE  2.058    110  3.35748  97   -3.6  100   -3.6  52    0     990.9    NA       0.0000   9999     0     0     0    
2019/08/31  19:27:02  BASE  3.26928  99   4.02192  104  -3.6  100   -3.6  53    0     990.9    NA       0.0000   9999     0     0     0    
2019/08/31  19:28:01  BASE  3.66912  100  4.116    109  -3.6  100   -3.6  53    0     990.9    NA       0.0000   9999     0     0     0    
2019/08/31  19:29:02  BASE  3.74556  105  4.44528  102  -3.4  100   -3.4  53    0     990.9    NA       0.0000   9999     0     0     0    
2019/08/31  19:30:02  BASE  4.26888  107  5.3214   104  -3.2  100   -3.2  54    0     990.9    NA       0.0000   9999     0     0     0    
2019/08/31  19:31:01  BASE  4.6746   113  5.47428  116  -3.0  100   -3.0  54    0     990.9    NA       0.0000   9999     0     0     0    
2019/08/31  19:32:02  BASE  4.4688   114  5.47428  116  -2.7  100   -2.7  53    0     990.9    NA       0.0000   9999     0     0     0    
2019/08/31  19:33:01  BASE  3.91608  113  5.47428  116  -2.6  100   -2.6  53    0     991.0    NA       0.0000   9999     0     0     0    
2019/08/31  19:34:01  BASE  3.56328  113  5.47428  116  -2.5  100   -2.5  52    0     991.0    NA       0.0000   9999     0     0     0    
2019/08/31  19:35:02  BASE  3.99252  112  5.47428  116  -2.4  99    -2.6  52    0     991.0    NA       0.0000   9999     0     0     0    
2019/08/31  19:36:01  BASE  4.08072  112  5.47428  116  -2.3  98    -2.7  52    0     991.0    NA       0.0000   9999     0     0     0    
2019/08/31  19:37:01  BASE  4.09248  104  5.47428  116  -2.3  96    -2.9  51    0     991.0    NA       0.0000   9999     0     0     0    
2019/08/31  19:38:02  BASE  5.10972  102  6.2622   100  -2.3  93    -3.3  51    0     991.0    NA       0.0000   9999     0     0     0    
2019/08/31  19:39:01  BASE  5.99172  108  6.2916   113  -2.3  90    -3.7  51    0     991.0    NA       0.0000   9999     0     0     0    
2019/08/31  19:40:01  BASE  5.97996  112  6.47388  111  -2.3  88    -4.0  52    0     991.0    NA       0.0000   9999     0     0     0    
2019/08/31  19:41:02  BASE  5.29788  114  6.47388  111  -2.3  87    -4.2  51    0     991.1    NA       0.0000   9999     0     0     0    
2019/08/31  19:42:01  BASE  4.62168  116  6.47388  111  -2.2  86    -4.3  51    0     991.2    NA       0.0000   9999     0     0     0    
2019/08/31  19:43:01  BASE  5.03916  113  6.47388  111  -2.2  85    -4.4  51    0     991.2    NA       0.0000   9999     0     0     0    
2019/08/31  19:44:02  BASE  5.22732  110  6.47388  111  -2.2  84    -4.4  52    0     991.2    NA       0.0000   9999     0     0     0    
2019/08/31  19:45:02  BASE  4.79808  114  6.47388  111  -2.2  84    -4.6  52    0     991.3    NA       0.0000   9999     0     0     0    
2019/08/31  19:46:02  BASE  4.9098   114  6.47388  111  -2.3  83    -4.7  52    0     991.3    NA       0.0000   9999     0     0     0    
2019/08/31  19:47:02  BASE  5.05092  112  6.47388  111  -2.3  83    -4.9  53    0     991.3    NA       0.0000   9999     0     0     0    
2019/08/31  19:48:01  BASE  5.12736  110  6.47388  111  -2.4  83    -4.9  53    0     991.4    NA       0.0000   9999     0     0     0    
2019/08/31  19:49:01  BASE  5.36844  109  6.47388  111  -2.5  82    -5.1  53    0     991.4    NA       0.0000   9999     0     0     0    
2019/08/31  19:50:01  BASE  5.7624   111  7.13832  116  -2.5  82    -5.1  53    0     991.4    NA       0.0000   9999     0     0     0    
2019/08/31  19:51:02  BASE  6.34452  115  7.13832  116  -2.5  83    -5.0  53    0     991.4    NA       0.0000   9999     0     0     0    
2019/08/31  19:52:02  BASE  6.39156  114  7.13832  116  -2.4  82    -5.0  53    0     991.5    NA       0.0000   9999     0     0     0    
2019/08/31  19:53:01  BASE  6.05052  112  7.13832  116  -2.3  82    -5.0  54    0     991.5    NA       0.0000   9999     0     0     0    
2019/08/31  19:54:01  BASE  6.2034   118  7.13832  116  -2.2  82    -4.8  54    0     991.5    NA       0.0000   9999     0     0     0    
2019/08/31  19:55:02  BASE  6.16812  123  7.13832  116  -2.0  82    -4.7  55    0     991.6    NA       0.0000   9999     0     0     0    
2019/08/31  19:56:01  BASE  6.2328   129  7.13832  116  -1.9  81    -4.8  55    0     991.5    NA       0.0000   9999     0     0     0    
2019/08/31  19:57:02  BASE  6.19752  129  7.13832  116  -1.9  80    -4.8  55    0     991.6    NA       0.0000   9999     0     0     0    
2019/08/31  19:58:02  BASE  6.40332  122  7.3794   122  -1.9  80    -4.8  55    0     991.6    NA       0.0000   9999     0     0     0    
2019/08/31  19:59:01  BASE  6.62676  126  7.3794   122  -1.8  80    -4.9  55    0     991.6    NA       0.0000   9999     0     0     0    
2019/08/31  20:00:02  BASE  6.09168  130  7.3794   122  -1.8  79    -5.0  55    0     991.6    NA       0.0000   9999     0     0     0    
2019/08/31  20:01:01  BASE  5.4096   132  7.3794   122  -1.9  79    -5.0  55    0     991.6    NA       0.0000   9999     0     0     0    
2019/08/31  20:02:01  BASE  5.23908  129  7.3794   122  -1.9  79    -5.0  55    0     991.6    NA       0.0000   9999     0     0     0    
2019/08/31  20:03:01  BASE  5.82708  126  7.3794   122  -1.9  80    -5.0  54    0     991.7    NA       0.0000   9999     0     0     0    
2019/08/31  20:04:01  BASE  5.92704  126  7.3794   122  -2.0  80    -5.0  54    0     991.7    NA       0.0000   9999     0     0     0    
2019/08/31  20:05:03  BASE  5.63892  128  7.3794   122  -2.0  81    -4.9  53    0     991.7    NA       0.0000   9999     0     0     0    
2019/08/31  20:06:02  BASE  5.27436  129  7.3794   122  -2.0  81    -4.8  52    0     991.7    NA       0.0000   9999     0     0     0    
2019/08/31  20:07:01  BASE  4.7922   129  7.3794   122  -1.9  81    -4.8  51    0     991.7    NA       0.0000   9999     0     0     0    
2019/08/31  20:08:01  BASE  4.78044  127  6.74436  124  -1.9  81    -4.7  50    0     991.7    NA       0.0000   9999     0     0     0    
2019/08/31  20:09:01  BASE  5.36256  120  6.59148  127  -1.9  81    -4.7  50    0     991.8    NA       0.0000   9999     0     0     0    
2019/08/31  20:10:02  BASE  5.97996  118  6.80316  118  -1.9  81    -4.7  49    0     991.8    NA       0.0000   9999     0     0     0    
2019/08/31  20:11:01  BASE  6.31512  122  6.80316  118  -1.9  81    -4.7  48    0     991.8    NA       0.0000   9999     0     0     0    
2019/08/31  20:12:02  BASE  6.75024  122  7.86744  117  -2.0  81    -4.7  47    0     991.8    NA       0.0000   9999     0     0     0    
2019/08/31  20:13:01  BASE  6.82668  122  7.86744  117  -1.9  81    -4.7  46    0     991.8    NA       0.0000   9999     0     0     0    
2019/08/31  20:14:01  BASE  6.19164  126  7.86744  117  -1.9  81    -4.7  45    0     991.9    NA       0.0000   9999     0     0     0    
2019/08/31  20:15:02  BASE  5.69772  129  7.86744  117  -1.9  81    -4.8  44    0     992.0    NA       0.0000   9999     0     0     0    
2019/08/31  20:16:02  BASE  5.33316  129  7.86744  117  -1.9  80    -4.8  43    0     992.0    NA       0.0000   9999     0     0     0    
2019/08/31  20:17:02  BASE  4.72752  129  7.86744  117  -1.9  80    -4.9  42    0     992.0    NA       0.0000   9999     0     0     0    
2019/08/31  20:18:02  BASE  4.62168  127  7.86744  117  -2.0  80    -4.9  41    0     992.1    NA       0.0000   9999     0     0     0    
2019/08/31  20:19:01  BASE  5.27436  127  7.86744  117  -2.1  81    -4.9  40    0     992.1    NA       0.0000   9999     0     0     0    
2019/08/31  20:20:01  BASE  5.6154   131  7.86744  117  -2.1  81    -4.9  38    0     992.1    NA       0.0000   9999     0     0     0    
2019/08/31  20:21:01  BASE  5.57424  132  7.86744  117  -2.2  82    -4.9  37    0     992.1    NA       0.0000   9999     0     0     0    
2019/08/31  20:22:02  BASE  5.3508   132  7.35     124  -2.2  82    -4.9  36    0     992.1    NA       0.0000   9999     0     0     0    
2019/08/31  20:23:02  BASE  5.145    132  6.3798   132  -2.3  82    -4.9  35    0     992.2    NA       0.0000   9999     0     0     0    
2019/08/31  20:24:01  BASE  5.19792  132  6.71496  133  -2.3  83    -4.8  34    0     992.2    NA       0.0000   9999     0     0     0    
2019/08/31  20:25:02  BASE  5.2038   130  6.71496  133  -2.4  83    -4.8  33    0     992.2    NA       0.0000   9999     0     0     0    
2019/08/31  20:26:02  BASE  5.3508   132  6.89724  141  -2.4  84    -4.8  32    0     992.2    NA       0.0000   9999     0     0     0    
2019/08/31  20:27:02  BASE  5.5272   134  6.89724  141  -2.5  84    -4.8  32    0     992.2    NA       0.0000   9999     0     0     0    
2019/08/31  20:28:01  BASE  4.95684  129  6.89724  141  -2.5  85    -4.7  31    0     992.3    NA       0.0000   9999     0     0     0    
2019/08/31  20:29:02  BASE  4.16892  123  6.89724  141  -2.5  85    -4.7  30    0     992.3    NA       0.0000   9999     0     0     0    
2019/08/31  20:30:01  BASE  3.92196  122  6.89724  141  -2.5  85    -4.7  29    0     992.4    NA       0.0000   9999     0     0     0    
2019/08/31  20:31:02  BASE  3.78084  126  6.89724  141  -2.5  85    -4.7  29    0     992.4    NA       0.0000   9999     0     0     0    
2019/08/31  20:32:01  BASE  3.40452  130  6.89724  141  -2.5  85    -4.7  28    0     992.4    NA       0.0000   9999     0     0     0    
2019/08/31  20:33:01  BASE  3.22224  132  6.89724  141  -2.5  85    -4.7  27    0     992.4    NA       0.0000   9999     0     0     0    
2019/08/31  20:34:01  BASE  3.56916  131  6.89724  141  -2.5  84    -4.8  27    0     992.5    NA       0.0000   9999     0     0     0    
2019/08/31  20:35:01  BASE  4.68636  130  6.89724  141  -2.5  84    -4.8  26    0     992.4    NA       0.0000   9999     0     0     0    
2019/08/31  20:36:02  BASE  5.7918   131  7.02072  136  -2.6  84    -4.9  26    0     992.5    NA       0.0000   9999     0     0     0    
2019/08/31  20:37:01  BASE  6.62088  130  9.13752  132  -2.6  84    -5.0  25    0     992.4    NA       0.0000   9999     0     0     0    
2019/08/31  20:38:02  BASE  7.4088   129  9.13752  132  -2.5  83    -4.9  25    0     992.4    NA       0.0000   9999     0     0     0    
2019/08/31  20:39:02  BASE  7.28532  126  9.13752  132  -2.4  83    -4.9  24    0     992.5    NA       0.0000   9999     0     0     0    
2019/08/31  20:40:02  BASE  6.8208   121  9.13752  132  -2.4  83    -4.9  23    0     992.6    NA       0.0000   9999     0     0     0    
2019/08/31  20:41:02  BASE  6.91488  119  9.13752  132  -2.3  83    -4.9  23    0     992.5    NA       0.0000   9999     0     0     0    
2019/08/31  20:42:02  BASE  7.81452  119  9.31392  121  -2.3  82    -4.8  22    0     992.5    NA       0.0000   9999     0     0     0    
2019/08/31  20:43:02  BASE  8.29668  121  9.31392  121  -2.2  82    -4.9  22    0     992.5    NA       0.0000   9999     0     0     0    
2019/08/31  20:44:01  BASE  7.82628  123  9.31392  121  -2.2  82    -4.9  21    0     992.5    NA       0.0000   9999     0     0     0    
2019/08/31  20:45:01  BASE  7.19712  124  9.31392  121  -2.2  82    -4.9  20    0     992.6    NA       0.0000   9999     0     0     0    
2019/08/31  20:46:02  BASE  7.29708  126  9.31392  121  -2.1  81    -4.9  20    0     992.6    NA       0.0000   9999     0     0     0    
2019/08/31  20:47:02  BASE  7.40292  127  9.31392  121  -2.1  81    -4.9  19    0     992.6    NA       0.0000   9999     0     0     0    
2019/08/31  20:48:02  BASE  6.63264  125  9.31392  121  -2.1  81    -5.0  18    0     992.7    NA       0.0000   9999     0     0     0    
2019/08/31  20:49:02  BASE  6.4974   119  9.31392  121  -2.1  81    -5.0  17    0     992.7    NA       0.0000   9999     0     0     0    
2019/08/31  20:50:01  BASE  6.68556  113  9.31392  121  -2.2  81    -5.0  17    0     992.7    NA       0.0000   9999     0     0     0    
2019/08/31  20:51:01  BASE  6.47976  112  9.31392  121  -2.3  81    -5.0  16    0     992.8    NA       0.0000   9999     0     0     0    
2019/08/31  20:52:02  BASE  5.96232  117  8.92584  120  -2.3  82    -5.0  15    0     992.8    NA       0.0000   9999     0     0     0    
2019/08/31  20:53:01  BASE  5.45664  123  8.56128  125  -2.3  82    -5.0  15    0     992.8    NA       0.0000   9999     0     0     0    
2019/08/31  20:54:01  BASE  5.53896  126  8.56128  125  -2.3  82    -5.0  14    0     992.9    NA       0.0000   9999     0     0     0    
2019/08/31  20:55:01  BASE  5.85648  126  8.56128  125  -2.3  82    -5.0  14    0     992.9    NA       0.0000   9999     0     0     0    
2019/08/31  20:56:01  BASE  5.97996  126  7.98504  130  -2.3  82    -5.0  13    0     992.9    NA       0.0000   9999     0     0     0    
2019/08/31  20:57:01  BASE  5.83296  128  7.3794   115  -2.3  82    -5.0  12    0     992.9    NA       0.0000   9999     0     0     0    
2019/08/31  20:58:01  BASE  5.70948  128  7.3794   115  -2.3  82    -5.0  12    0     993.0    NA       0.0000   9999     0     0     0    
2019/08/31  20:59:02  BASE  5.69772  129  6.95604  116  -2.3  81    -5.1  11    0     993.0    NA       0.0000   9999     0     0     0    
2019/08/31  21:00:02  BASE  5.76828  128  6.65616  113  -2.4  81    -5.1  10    0     993.0    NA       0.0000   9999     0     0     0    
2019/08/31  21:01:01  BASE  6.05052  127  6.80316  127  -2.4  81    -5.1  10    0     993.1    NA       0.0000   9999     0     0     0    
2019/08/31  21:02:02  BASE  6.1152   128  6.80316  127  -2.4  82    -5.1  9     0     993.2    NA       0.0000   9999     0     0     0    
2019/08/31  21:03:02  BASE  6.13872  123  7.05012  116  -2.4  82    -5.1  8     0     993.2    NA       0.0000   9999     0     0     0    
2019/08/31  21:04:01  BASE  6.13872  116  7.05012  116  -2.4  82    -5.0  8     0     993.2    NA       0.0000   9999     0     0     0    
2019/08/31  21:05:03  BASE  6.16224  111  7.05012  116  -2.3  81    -5.1  8     0     993.2    NA       0.0000   9999     0     0     0    
2019/08/31  21:06:01  BASE  6.17988  111  7.05012  116  -2.4  81    -5.2  7     0     993.2    NA       0.0000   9999     0     0     0    
2019/08/31  21:07:01  BASE  6.06228  114  7.05012  116  -2.5  81    -5.3  7     0     993.3    NA       0.0000   9999     0     0     0    
2019/08/31  21:08:01  BASE  5.88     116  7.05012  116  -2.5  80    -5.4  7     0     993.3    NA       0.0000   9999     0     0     0    
2019/08/31  21:09:02  BASE  5.7036   117  7.05012  116  -2.5  80    -5.4  6     0     993.3    NA       0.0000   9999     0     0     0    
2019/08/31  21:10:01  BASE  5.88588  115  7.05012  116  -2.5  80    -5.4  6     0     993.3    NA       0.0000   9999     0     0     0    
2019/08/31  21:11:01  BASE  5.9682   112  7.05012  116  -2.4  80    -5.3  5     0     993.4    NA       0.0000   9999     0     0     0    
2019/08/31  21:12:01  BASE  6.09168  110  7.05012  116  -2.4  80    -5.3  5     0     993.4    NA       0.0000   9999     0     0     0    
2019/08/31  21:13:01  BASE  5.97408  109  6.83844  107  -2.3  80    -5.3  5     0     993.4    NA       0.0000   9999     0     0     0    
2019/08/31  21:14:02  BASE  5.44488  108  6.83844  107  -2.3  80    -5.4  4     0     993.4    NA       0.0000   9999     0     0     0    
2019/08/31  21:15:02  BASE  4.84512  109  6.83844  107  -2.5  79    -5.6  4     0     993.5    NA       0.0000   9999     0     0     0    
2019/08/31  21:16:02  BASE  4.78632  106  6.83844  107  -2.7  79    -5.9  4     0     993.5    NA       0.0000   9999     0     0     0    
2019/08/31  21:17:02  BASE  5.0568   94   6.83844  107  -2.8  79    -6.0  4     0     993.5    NA       0.0000   9999     0     0     0    
2019/08/31  21:18:02  BASE  4.7628   85   6.83844  107  -2.9  78    -6.1  4     0     993.5    NA       0.0000   9999     0     0     0    
2019/08/31  21:19:01  BASE  4.44528  90   6.83844  107  -3.1  78    -6.3  4     0     993.5    NA       0.0000   9999     0     0     0    
2019/08/31  21:20:01  BASE  4.92744  104  6.83844  107  -3.2  79    -6.4  4     0     993.5    NA       0.0000   9999     0     0     0    
2019/08/31  21:21:02  BASE  5.586    112  6.83844  107  -3.2  79    -6.3  4     0     993.5    NA       0.0000   9999     0     0     0    
2019/08/31  21:22:01  BASE  5.82708  111  6.2622   109  -3.1  80    -6.2  4     0     993.6    NA       0.0000   9999     0     0     0    
2019/08/31  21:23:01  BASE  5.5566   109  6.2622   109  -3.1  80    -6.2  4     0     993.6    NA       0.0000   9999     0     0     0    
2019/08/31  21:24:01  BASE  5.06268  114  6.2622   109  -3.1  80    -6.2  3     0     993.6    NA       0.0000   9999     0     0     0    
2019/08/31  21:25:01  BASE  5.12148  115  6.2622   109  -3.0  80    -6.0  3     0     993.7    NA       0.0000   9999     0     0     0    
2019/08/31  21:26:01  BASE  5.31552  114  6.2622   109  -3.0  80    -5.9  3     0     993.7    NA       0.0000   9999     0     0     0    
2019/08/31  21:27:01  BASE  5.3802   116  6.2622   109  -3.0  80    -6.0  2     0     993.7    NA       0.0000   9999     0     0     0    
2019/08/31  21:28:01  BASE  5.4096   116  6.2622   109  -3.0  81    -5.9  2     0     993.7    NA       0.0000   9999     0     0     0    
2019/08/31  21:29:01  BASE  5.51544  116  6.2622   109  -3.1  81    -6.0  2     0     993.7    NA       0.0000   9999     0     0     0    
2019/08/31  21:30:02  BASE  5.6448   115  6.2622   109  -3.3  80    -6.2  1     0     993.8    NA       0.0000   9999     0     0     0    
2019/08/31  21:31:01  BASE  5.87412  112  6.59148  114  -3.4  81    -6.3  1     0     993.9    NA       0.0000   9999     0     0     0    
2019/08/31  21:32:02  BASE  6.42096  113  7.19712  109  -3.4  81    -6.2  1     0     993.9    NA       0.0000   9999     0     0     0    
2019/08/31  21:33:01  BASE  6.21516  102  7.19712  109  -3.5  81    -6.3  1     0     994.0    NA       0.0000   9999     0     0     0    
2019/08/31  21:34:02  BASE  5.50956  91   7.19712  109  -3.6  81    -6.3  1     0     994.0    NA       0.0000   9999     0     0     0    
2019/08/31  21:35:02  BASE  5.09796  96   7.19712  109  -3.6  81    -6.4  1     0     994.0    NA       0.0000   9999     0     0     0    
2019/08/31  21:36:02  BASE  4.80396  107  7.19712  109  -3.6  81    -6.4  1     0     994.0    NA       0.0000   9999     0     0     0    
2019/08/31  21:37:02  BASE  4.57464  118  7.19712  109  -3.6  81    -6.3  1     0     994.0    NA       0.0000   9999     0     0     0    
2019/08/31  21:38:01  BASE  4.35708  116  7.19712  109  -3.5  81    -6.3  1     0     994.1    NA       0.0000   9999     0     0     0    
2019/08/31  21:39:02  BASE  4.38648  107  7.19712  109  -3.3  81    -6.2  0     0     994.1    NA       0.0000   9999     0     0     0    
2019/08/31  21:40:02  BASE  4.704    102  7.19712  109  -3.2  80    -6.1  0     0     994.1    NA       0.0000   9999     0     0     0    
2019/08/31  21:41:02  BASE  5.06268  101  7.19712  109  -3.3  79    -6.4  0     0     994.1    NA       0.0000   9999     0     0     0    
2019/08/31  21:42:02  BASE  5.09796  102  6.65616  107  -3.5  79    -6.6  0     0     994.1    NA       0.0000   9999     0     0     0    
2019/08/31  21:43:02  BASE  5.02152  99   5.95644  91   -3.5  78    -6.7  0     0     994.1    NA       0.0000   9999     0     0     0    
2019/08/31  21:44:02  BASE  5.5272   95   6.50328  92   -3.6  78    -6.8  0     0     994.1    NA       0.0000   9999     0     0     0    
2019/08/31  21:45:02  BASE  6.15048  94   6.59148  98   -3.6  78    -6.9  0     0     994.1    NA       0.0000   9999     0     0     0    
2019/08/31  21:46:02  BASE  6.33276  98   6.68556  104  -3.6  78    -6.9  0     0     994.1    NA       0.0000   9999     0     0     0    
2019/08/31  21:47:02  BASE  6.13284  99   6.83844  94   -3.7  78    -7.0  0     0     994.1    NA       0.0000   9999     0     0     0    
2019/08/31  21:48:02  BASE  5.38608  100  6.83844  94   -3.9  78    -7.2  0     0     994.1    NA       0.0000   9999     0     0     0    
2019/08/31  21:49:01  BASE  5.10972  102  6.83844  94   -3.9  78    -7.2  0     0     994.1    NA       0.0000   9999     0     0     0    
2019/08/31  21:50:01  BASE  5.35668  102  6.83844  94   -3.9  79    -7.1  0     0     994.2    NA       0.0000   9999     0     0     0    
2019/08/31  21:51:02  BASE  5.43312  100  6.83844  94   -3.8  79    -6.9  0     0     994.2    NA       0.0000   9999     0     0     0    
2019/08/31  21:52:01  BASE  5.4978   97   6.83844  94   -3.7  79    -6.8  0     0     994.2    NA       0.0000   9999     0     0     0    
2019/08/31  21:53:02  BASE  5.60364  96   6.83844  94   -3.7  79    -6.8  0     0     994.2    NA       0.0000   9999     0     0     0    
2019/08/31  21:54:02  BASE  5.92116  93   6.83844  94   -3.8  79    -6.9  0     0     994.2    NA       0.0000   9999     0     0     0    
2019/08/31  21:55:02  BASE  5.90352  95   6.83844  94   -3.9  79    -7.1  0     0     994.3    NA       0.0000   9999     0     0     0    
2019/08/31  21:56:02  BASE  5.69184  98   6.83844  94   -4.1  79    -7.2  0     0     994.3    NA       0.0000   9999     0     0     0    
2019/08/31  21:57:01  BASE  5.6448   99   6.3504   92   -4.2  79    -7.2  0     0     994.4    NA       0.0000   9999     0     0     0    
2019/08/31  21:58:02  BASE  5.68008  100  6.3504   92   -4.2  80    -7.2  0     0     994.4    NA       0.0000   9999     0     0     0    
2019/08/31  21:59:02  BASE  5.81532  99   6.3504   92   -4.1  81    -6.9  0     0     994.4    NA       0.0000   9999     0     0     0    
2019/08/31  22:00:01  BASE  5.80356  98   6.3504   92   -3.9  81    -6.6  0     0     994.4    NA       0.0000   9999     11650 0     0    
2019/08/31  22:01:01  BASE  5.88588  93   6.41508  91   -3.6  81    -6.4  0     0     994.4    NA       0.0000   9999     11940 0     0    
2019/08/31  22:02:02  BASE  6.22692  89   6.83844  89   -3.4  81    -6.3  0     0     994.4    NA       0.0000   9999     11390 0     0    
2019/08/31  22:03:02  BASE  6.47976  87   6.83844  89   -3.4  80    -6.4  0     0     994.4    NA       0.0000   9999     11290 0     0    
2019/08/31  22:04:01  BASE  6.4974   87   6.83844  89   -3.5  79    -6.6  0     0     994.4    NA       0.0000   9999     11320 0     0    
2019/08/31  22:05:03  BASE  6.45624  89   6.83844  89   -3.7  78    -6.9  0     0     994.5    NA       0.0000   9999     11250 0     0    
2019/08/31  22:06:02  BASE  6.468    88   6.83844  89   -3.9  78    -7.2  0     0     994.5    NA       0.0000   9999     11220 0     0    
2019/08/31  22:07:01  BASE  6.3798   90   6.83844  89   -4.1  78    -7.4  0     0     994.5    NA       0.0000   9999     0     0     0    
2019/08/31  22:08:02  BASE  6.30924  93   6.83844  89   -4.2  78    -7.5  0     0     994.6    NA       0.0000   9999     0     0     0    
2019/08/31  22:09:01  BASE  6.32688  93   6.83844  89   -4.3  79    -7.4  0     0     994.6    NA       0.0000   9999     0     0     0    
2019/08/31  22:10:02  BASE  6.35628  91   7.16772  87   -4.3  79    -7.4  0     0     994.6    NA       0.0000   9999     11580 0     0    
2019/08/31  22:11:01  BASE  6.54444  89   7.19712  94   -4.3  79    -7.3  0     0     994.6    NA       0.0000   9999     11480 0     0    
2019/08/31  22:12:02  BASE  6.39156  90   7.19712  94   -4.2  79    -7.2  0     0     994.6    NA       0.0000   9999     0     0     0    
2019/08/31  22:13:02  BASE  6.19752  90   7.19712  94   -4.2  79    -7.2  0     0     994.6    NA       0.0000   9999     0     0     0    
2019/08/31  22:14:02  BASE  6.29748  89   7.19712  94   -4.2  79    -7.2  0     0     994.7    NA       0.0000   9999     0     0     0    
2019/08/31  22:15:02  BASE  6.53856  89   7.35     92   -4.1  79    -7.2  0     0     994.7    NA       0.0000   9999     0     0     0    
2019/08/31  22:16:02  BASE  6.52092  92   7.35     92   -4.2  79    -7.2  0     0     994.8    NA       0.0000   9999     0     0     0    
2019/08/31  22:17:01  BASE  6.29748  90   7.35     92   -4.2  79    -7.3  0     0     994.8    NA       0.0000   9999     0     0     0    
2019/08/31  22:18:02  BASE  6.25632  88   7.35     92   -4.2  80    -7.2  0     0     994.9    NA       0.0000   9999     0     0     0    
2019/08/31  22:19:01  BASE  6.29748  86   7.35     92   -4.2  80    -7.1  0     0     994.9    NA       0.0000   9999     0     0     0    
2019/08/31  22:20:01  BASE  6.63264  83   7.56168  78   -4.0  80    -6.9  0     0     994.9    NA       0.0000   9999     0     0     0    
2019/08/31  22:21:01  BASE  6.39156  83   7.56168  78   -3.8  80    -6.8  0     0     995.0    NA       0.0000   9999     0     0     0    
2019/08/31  22:22:02  BASE  6.00348  84   7.56168  78   -3.7  79    -6.7  0     0     995.1    NA       0.0000   9999     0     0     0    
2019/08/31  22:23:01  BASE  5.97996  84   7.56168  78   -3.5  78    -6.7  0     0     995.1    NA       0.0000   9999     0     0     0    
2019/08/31  22:24:02  BASE  5.78592  85   7.56168  78   -3.4  78    -6.8  0     0     995.1    NA       0.0000   9999     0     0     0    
2019/08/31  22:25:01  BASE  5.586    87   7.56168  78   -3.4  77    -6.9  0     0     995.2    NA       0.0000   9999     0     0     0    
2019/08/31  22:26:02  BASE  5.08032  89   7.56168  78   -3.4  76    -7.0  0     0     995.3    NA       0.0000   9999     0     0     0    
2019/08/31  22:27:03  BASE  4.3218   92   7.56168  78   -3.3  75    -7.1  0     0     995.3    NA       0.0000   9999     0     0     0    
2019/08/31  22:28:01  BASE  4.1748   93   7.56168  78   -3.4  75    -7.3  0     0     995.3    NA       0.0000   9999     0     0     0    
2019/08/31  22:29:02  BASE  4.47468  95   7.56168  78   -3.5  74    -7.4  0     0     995.3    NA       0.0000   9999     0     0     0    
2019/08/31  22:30:02  BASE  3.969    89   6.3504   84   -3.5  74    -7.4  0     0     995.4    NA       0.0000   9999     0     0     0    
2019/08/31  22:31:02  BASE  2.86944  87   6.3504   84   -3.4  74    -7.3  0     0     995.4    NA       0.0000   9999     0     0     0    
2019/08/31  22:32:01  BASE  2.38728  83   6.321    85   -3.2  73    -7.3  0     0     995.5    NA       0.0000   9999     0     0     0    
2019/08/31  22:33:02  BASE  2.4696   51   6.13872  86   -3.0  72    -7.3  0     0     995.5    NA       0.0000   9999     0     0     0    
2019/08/31  22:34:02  BASE  2.26968  34   5.80944  87   -2.8  71    -7.3  0     0     995.5    NA       0.0000   9999     0     0     0    
2019/08/31  22:35:02  BASE  1.7346   37   5.3214   87   -2.8  70    -7.5  0     0     995.6    NA       0.0000   9999     0     0     0    
2019/08/31  22:36:01  BASE  1.68168  51   4.99212  96   -3.0  70    -7.7  0     0     995.7    NA       0.0000   9999     0     0     0    
2019/08/31  22:37:02  BASE  2.19324  62   4.99212  96   -3.2  70    -7.8  0     0     995.7    NA       0.0000   9999     0     0     0    
2019/08/31  22:38:01  BASE  2.64012  60   4.99212  96   -3.3  71    -7.8  0     0     995.7    NA       0.0000   9999     0     0     0    
2019/08/31  22:39:02  BASE  2.13444  56   4.99212  96   -3.4  72    -7.7  0     0     995.7    NA       0.0000   9999     0     0     0    
2019/08/31  22:40:02  BASE  2.59896  35   5.78004  12   -3.5  73    -7.7  0     0     995.7    NA       0.0000   9999     0     0     0    
2019/08/31  22:41:01  BASE  4.98036  26   7.3794   45   -3.6  74    -7.5  0     0     995.7    NA       0.0000   9999     0     0     0    
2019/08/31  22:42:01  BASE  6.07992  30   7.3794   45   -3.7  75    -7.4  0     0     995.7    NA       0.0000   9999     0     0     0    
2019/08/31  22:43:01  BASE  6.69732  26   8.4084   23   -3.7  77    -7.1  0     0     995.6    NA       0.0000   9999     0     0     0    
2019/08/31  22:44:01  BASE  7.39704  22   8.4084   23   -3.8  79    -6.9  0     0     995.7    NA       0.0000   9999     0     0     0    
2019/08/31  22:45:02  BASE  6.99132  20   8.4084   23   -3.9  82    -6.6  0     0     995.7    NA       0.0000   9999     0     0     0    
2019/08/31  22:46:01  BASE  6.73848  19   8.4084   23   -3.9  84    -6.2  0     0     995.7    NA       0.0000   9999     0     0     0    
2019/08/31  22:47:02  BASE  6.70908  19   8.4084   23   -4.0  86    -6.0  0     0     995.8    NA       0.0000   9999     0     0     0    
2019/08/31  22:48:02  BASE  6.73848  20   8.4084   23   -4.0  88    -5.8  0     0     995.8    NA       0.0000   9999     0     0     0    
2019/08/31  22:49:02  BASE  7.00896  20   8.4084   23   -4.1  89    -5.7  0     0     995.8    NA       0.0000   9999     0     0     0    
2019/08/31  22:50:01  BASE  7.1148   18   8.4084   23   -4.2  90    -5.6  0     0     995.9    NA       0.0000   9999     0     0     0    
2019/08/31  22:51:02  BASE  7.2618   16   8.4084   23   -4.3  91    -5.5  0     0     995.9    NA       0.0000   9999     0     0     0    
2019/08/31  22:52:02  BASE  6.9678   15   8.4084   23   -4.3  92    -5.4  0     0     996.0    NA       0.0000   9999     0     0     0    
2019/08/31  22:53:01  BASE  6.4386   17   7.98504  14   -4.4  94    -5.3  0     0     996.0    NA       0.0000   9999     0     0     0    
2019/08/31  22:54:01  BASE  6.24456  18   7.98504  14   -4.4  95    -5.1  0     0     996.0    NA       0.0000   9999     0     0     0    
2019/08/31  22:55:02  BASE  6.12108  21   7.98504  14   -4.5  96    -5.0  0     0     996.0    NA       0.0000   9999     0     0     0    
2019/08/31  22:56:02  BASE  6.45624  21   7.98504  14   -4.5  98    -4.8  0     0     996.1    NA       0.0000   9999     0     0     0    
2019/08/31  22:57:02  BASE  6.79728  18   7.98504  14   -4.5  99    -4.7  0     0     996.1    NA       0.0000   9999     0     0     0    
2019/08/31  22:58:01  BASE  6.7326   18   7.98504  14   -4.4  99    -4.5  0     0     996.2    NA       0.0000   9999     0     0     0    
2019/08/31  22:59:02  BASE  6.7326   18   7.98504  14   -4.3  100   -4.4  0     0     996.2    NA       0.0000   9999     0     0     0    
2019/08/31  23:00:01  BASE  6.50328  18   7.98504  14   -4.2  100   -4.2  0     0     996.3    NA       0.0000   9999     0     0     0    
2019/08/31  23:01:01  BASE  6.04464  21   7.3794   17   -4.2  100   -4.2  0     0     996.4    NA       0.0000   9999     0     0     0    
2019/08/31  23:02:01  BASE  5.9976   23   7.3794   17   -4.2  100   -4.2  0     0     996.4    NA       0.0000   9999     2720  0     0    
2019/08/31  23:03:01  BASE  5.65068  23   7.3794   17   -4.1  100   -4.1  0     0     996.4    NA       0.0000   9999     0     0     0    
2019/08/31  23:04:01  BASE  5.20968  23   7.3794   17   -4.2  100   -4.2  0     0     996.5    NA       0.0000   9999     0     0     0    
2019/08/31  23:05:03  BASE  5.33316  23   7.3794   17   -4.2  100   -4.2  0     0     996.5    NA       0.0000   9999     2620  0     0    
2019/08/31  23:06:01  BASE  5.72124  24   7.3794   17   -4.2  100   -4.2  0     0     996.6    NA       0.0000   9999     0     0     0    
2019/08/31  23:07:02  BASE  5.88     24   7.3794   17   -4.2  100   -4.2  0     0     996.6    NA       0.0000   9999     0     0     0    
2019/08/31  23:08:02  BASE  5.76828  21   7.3794   17   -4.2  100   -4.2  0     0     996.6    NA       0.0000   9999     0     0     0    
2019/08/31  23:09:01  BASE  5.50368  19   6.83844  22   -4.2  100   -4.2  0     0     996.6    NA       0.0000   9999     2950  0     0    
2019/08/31  23:10:02  BASE  5.23908  17   6.83844  22   -4.2  100   -4.2  0     0     996.7    NA       0.0000   9999     0     0     0    
2019/08/31  23:11:02  BASE  5.12736  15   6.83844  22   -4.2  100   -4.2  0     0     996.7    NA       0.0000   9999     3120  0     0    
2019/08/31  23:12:01  BASE  4.68048  16   6.83844  22   -4.2  100   -4.2  0     0     996.7    NA       0.0000   9999     2620  0     0    
2019/08/31  23:13:01  BASE  4.54524  21   6.83844  22   -4.2  100   -4.2  0     0     996.7    NA       0.0000   9999     2590  0     0    
2019/08/31  23:14:01  BASE  5.15088  23   6.83844  22   -4.2  100   -4.2  0     0     996.7    NA       0.0000   9999     2490  0     0    
2019/08/31  23:15:01  BASE  5.66244  21   6.83844  22   -4.2  100   -4.2  0     0     996.8    NA       0.0000   9999     2560  0     0    
2019/08/31  23:16:01  BASE  6.03288  19   6.71496  26   -4.2  100   -4.2  0     0     996.8    NA       0.0000   9999     2560  0     0    
2019/08/31  23:17:02  BASE  6.12696  19   6.74436  16   -4.1  100   -4.1  0     0     996.8    NA       0.0000   9999     2950  0     0    
2019/08/31  23:18:01  BASE  5.97996  13   6.74436  16   -4.1  100   -4.1  0     0     996.8    NA       0.0000   9999     0     0     0    
2019/08/31  23:19:01  BASE  5.66832  7    6.74436  16   -4.0  100   -4.0  0     0     996.9    NA       0.0000   9999     0     0     0    
2019/08/31  23:20:01  BASE  5.31552  9    6.74436  16   -4.0  100   -4.0  0     0     997.0    NA       0.0000   9999     0     0     0    
2019/08/31  23:21:01  BASE  5.53308  11   6.74436  16   -4.0  100   -4.0  0     0     997.0    NA       0.0000   9999     0     0     0    
2019/08/31  23:22:01  BASE  5.65068  10   6.74436  16   -4.1  100   -4.1  0     0     997.1    NA       0.0000   9999     0     0     0    
2019/08/31  23:23:01  BASE  5.63892  7    6.74436  16   -4.1  100   -4.1  0     0     997.1    NA       0.0000   9999     0     0     0    
2019/08/31  23:24:01  BASE  5.68596  8    6.74436  16   -4.0  100   -4.0  0     0     997.1    NA       0.0000   9999     0     0     0    
2019/08/31  23:25:01  BASE  5.89176  10   6.74436  1    -4.0  100   -4.0  0     0     997.1    NA       0.0000   9999     0     0     0    
2019/08/31  23:26:01  BASE  6.02112  7    6.77376  1    -4.0  100   -4.0  0     0     997.1    NA       0.0000   9999     0     0     0    
2019/08/31  23:27:02  BASE  6.22692  5    7.35     6    -4.0  100   -4.0  0     0     997.2    NA       0.0000   9999     0     0     0    
2019/08/31  23:28:01  BASE  6.46212  7    7.35     6    -4.0  100   -4.0  0     0     997.2    NA       0.0000   9999     2990  0     0    
2019/08/31  23:29:01  BASE  6.20928  7    7.35     6    -4.0  100   -4.0  0     0     997.3    NA       0.0000   9999     2950  0     0    
2019/08/31  23:30:01  BASE  5.83884  2    7.35     6    -4.0  100   -4.0  0     0     997.3    NA       0.0000   9999     2990  0     0    
2019/08/31  23:31:02  BASE  5.6448   1    7.35     6    -4.0  100   -4.0  0     0     997.3    NA       0.0000   9999     2920  0     0    
2019/08/31  23:32:01  BASE  5.8212   3    7.35     6    -4.0  100   -4.0  0     0     997.3    NA       0.0000   9999     0     0     0    
2019/08/31  23:33:02  BASE  5.69184  2    7.35     6    -3.9  100   -3.9  0     0     997.5    NA       0.0000   9999     0     0     0    
2019/08/31  23:34:01  BASE  5.07444  358  7.35     6    -3.9  100   -3.9  0     0     997.5    NA       0.0000   9999     0     0     0    
2019/08/31  23:35:02  BASE  4.8804   353  7.35     6    -3.8  100   -3.8  0     0     997.6    NA       0.0000   9999     0     0     0    
2019/08/31  23:36:01  BASE  5.03916  350  7.35     6    -3.8  100   -3.8  0     0     997.6    NA       0.0000   9999     0     0     0    
2019/08/31  23:37:02  BASE  4.75692  353  6.71496  9    -3.7  100   -3.7  0     0     997.6    NA       0.0000   9999     0     0     0    
2019/08/31  23:38:02  BASE  4.6452   354  6.62676  7    -3.7  100   -3.7  0     0     997.7    NA       0.0000   9999     0     0     0    
2019/08/31  23:39:02  BASE  5.09796  353  6.13872  10   -3.8  100   -3.8  0     0     997.6    NA       0.0000   9999     0     0     0    
2019/08/31  23:40:02  BASE  5.69184  357  6.41508  6    -3.9  100   -3.9  0     0     997.7    NA       0.0000   9999     0     0     0    
2019/08/31  23:41:01  BASE  5.74476  359  6.41508  6    -3.9  100   -3.9  0     0     997.7    NA       0.0000   9999     0     0     0    
2019/08/31  23:42:01  BASE  5.59188  352  6.41508  6    -4.0  100   -4.0  0     0     997.7    NA       0.0000   9999     0     0     0    
2019/08/31  23:43:01  BASE  5.52132  353  6.41508  6    -4.1  100   -4.1  0     0     997.8    NA       0.0000   9999     0     0     0    
2019/08/31  23:44:01  BASE  5.29788  351  6.41508  6    -4.2  100   -4.2  0     0     997.8    NA       0.0000   9999     0     0     0    
2019/08/31  23:45:01  BASE  5.05092  344  6.41508  6    -4.2  100   -4.2  0     0     997.8    NA       0.0000   9999     0     0     0    
2019/08/31  23:46:01  BASE  4.9686   350  6.41508  6    -4.3  100   -4.3  0     0     997.8    NA       0.0000   9999     0     0     0    
2019/08/31  23:47:01  BASE  5.0274   354  6.41508  6    -4.3  100   -4.3  0     0     997.9    NA       0.0000   9999     0     0     0    
2019/08/31  23:48:01  BASE  5.04504  355  6.41508  6    -4.3  100   -4.3  0     0     997.9    NA       0.0000   9999     0     0     0    
2019/08/31  23:49:02  BASE  4.9098   355  6.41508  6    -4.3  100   -4.3  0     0     997.9    NA       0.0000   9999     0     0     0    
2019/08/31  23:50:01  BASE  4.7334   353  5.86824  325  -4.3  100   -4.3  0     0     998.0    NA       0.0000   9999     1640  0     0    
2019/08/31  23:51:01  BASE  4.91568  356  5.80944  360  -4.2  100   -4.2  0     0     998.0    NA       0.0000   9999     1800  0     0    
2019/08/31  23:52:01  BASE  4.96272  1    5.59776  354  -4.2  100   -4.2  0     0     998.0    NA       0.0000   9999     0     0     0    
2019/08/31  23:53:02  BASE  4.89804  2    5.56836  360  -4.2  100   -4.2  0     0     998.0    NA       0.0000   9999     0     0     0    
2019/08/31  23:54:01  BASE  5.03916  1    5.53308  2    -4.1  100   -4.1  0     0     998.1    NA       0.0000   9999     0     0     0    
2019/08/31  23:55:01  BASE  4.9686   358  5.53308  2    -4.1  100   -4.1  0     0     998.2    NA       0.0000   9999     1540  0     0    
2019/08/31  23:56:01  BASE  4.92156  358  5.53308  2    -4.1  100   -4.1  0     0     998.2    NA       0.0000   9999     1640  0     0    
2019/08/31  23:57:02  BASE  4.83336  358  5.53308  2    -4.2  100   -4.2  0     0     998.2    NA       0.0000   9999     0     0     0    
2019/08/31  23:58:01  BASE  4.65108  357  5.53308  2    -4.2  100   -4.2  0     0     998.2    NA       0.0000   9999     0     0     0    
2019/08/31  23:59:03  BASE  4.75104  360  5.53308  2    -4.2  100   -4.2  0     0     998.3    NA       0.0000   9999     1610  0     0